Date StartTime U_cm/s V_cm/s W_cm/s Ustd_cm/s Vstd_cm/s Wstd_cm/s Uvar_(cm/s)^2 Vvar_(cm/s)^2 Wvar_(cm/s)^2 KE_(m/s)^2 TurbulentKE_(m/s)^2 HorizWindSpeed_cm/s FrictionSpeec_cm/s DragCoef SpeedOfSound_m/s SonicTemperature_C Pressure_mb 
06/19/2013  00:00:00     -387.422     -120.020      -33.955      139.494      138.891       75.074    19458.482    19290.843     5636.176       10.501        2.219      405.587       76.240        0.035      339.047       12.110      856.889
06/19/2013  00:01:00     -393.508      -72.288      -26.807      119.562      133.963       65.307    14295.116    17946.006     4265.037        9.864        1.825      400.093       55.487        0.019      339.042       12.101      856.885
06/19/2013  00:02:00     -336.951      -27.211       -2.776      184.769      156.817       68.523    34139.647    24591.521     4695.434        8.884        3.171      338.048       83.980        0.062      339.022       12.068      856.881
06/19/2013  00:03:00     -347.090     -178.068      -17.854      142.969      156.422       81.361    20440.098    24467.960     6619.662       10.200        2.576      390.102       72.902        0.035      339.044       12.104      856.867
06/19/2013  00:04:00     -253.606      -66.103        6.373      172.184      136.609       75.252    29647.231    18661.890     5662.916        6.134        2.699      262.079       83.092        0.101      339.015       12.056      856.884
06/19/2013  00:05:00     -427.186      -49.089      -28.981      137.153      122.735       68.654    18810.926    15063.811     4713.323       11.215        1.929      429.997       63.334        0.022      339.007       12.043      856.877
06/19/2013  00:06:00     -358.493      -70.813       -3.654      127.342      113.780       68.575    16216.099    12945.821     4702.528        8.370        1.693      365.420       69.701        0.036      338.963       11.969      856.899
06/19/2013  00:07:00     -119.368       -7.443       12.746      171.009       79.975       64.967    29243.997     6395.932     4220.685        2.716        1.993      119.599       70.127        0.344      338.973       11.988      856.879
06/19/2013  00:08:00     -176.887      -60.403       17.726      151.629      135.517       79.260    22991.322    18364.924     6282.101        4.144        2.382      186.916       85.455        0.209      338.973       11.987      856.882
06/19/2013  00:09:00     -268.910      -92.939       -3.734      178.291      146.950       74.977    31787.706    21594.275     5621.575        6.997        2.950      284.518       83.405        0.086      338.949       11.947      856.866
06/19/2013  00:10:00     -264.641      -46.285        1.370      148.029      104.325       63.385    21912.625    10883.755     4017.690        5.449        1.841      268.658       74.488        0.077      338.936       11.923      856.869
06/19/2013  00:11:00     -150.943      -76.176        4.992      144.363      115.497       59.154    20840.751    13339.565     3499.241        3.314        1.884      169.075       65.790        0.151      338.961       11.965      856.891
06/19/2013  00:12:00     -180.076      -67.285        5.636      131.714      124.104       79.656    17348.537    15401.863     6345.057        3.803        1.955      192.236       83.579        0.189      338.950       11.947      856.902
06/19/2013  00:13:00     -196.486     -166.739       -2.656      154.072      130.906       82.500    23738.322    17136.314     6806.320        5.704        2.384      257.699       76.518        0.088      338.946       11.941      856.891
06/19/2013  00:14:00     -213.812      -66.300       -3.250      115.918      132.194       64.483    13437.046    17475.361     4158.017        4.259        1.754      223.856       67.126        0.090      338.930       11.916      856.897
06/19/2013  00:15:00     -231.055      -80.668        2.496      160.156      110.231       63.978    25649.831    12150.978     4093.124        5.089        2.095      244.732       74.178        0.092      338.903       11.869      856.894
06/19/2013  00:16:00     -305.961       -9.350       -3.965      163.479      126.310       67.423    26725.512    15954.279     4545.869        7.046        2.361      306.104       59.718        0.038      338.898       11.859      856.867
06/19/2013  00:17:00     -384.075      -30.469      -16.829      137.681      143.104       75.517    18956.113    20478.879     5702.842        9.692        2.257      385.282       65.881        0.029      338.927       11.907      856.867
06/19/2013  00:18:00     -355.472      -63.791      -18.001      154.597      130.083       67.411    23900.384    16921.678     4544.274        8.805        2.268      361.151       75.945        0.044      338.944       11.937      856.876
06/19/2013  00:19:00     -151.409      -33.028       12.732      132.950      133.972       65.830    17675.715    17948.497     4333.579        3.206        1.998      154.969       74.263        0.230      338.955       11.955      856.854
06/19/2013  00:20:00     -400.829      -67.221      -19.667      210.895      177.332       87.803    44476.593    31446.712     7709.444       12.458        4.182      406.427       83.491        0.042      338.961       11.965      856.806
06/19/2013  00:21:00     -397.842       -5.356      -34.825      187.581      122.435       68.630    35186.601    14990.323     4710.062       10.719        2.744      397.878       75.444        0.036      338.935       11.922      856.808
06/19/2013  00:22:00     -329.566     -123.811      -11.764      204.339      152.146       79.271    41754.593    23148.259     6283.888        9.762        3.559      352.055       99.053        0.079      338.948       11.944      856.797
06/19/2013  00:23:00     -396.695      -88.398      -38.825      194.631      143.493       73.371    37881.186    20590.172     5383.322       11.526        3.193      406.425       69.846        0.030      338.965       11.973      856.788
06/19/2013  00:24:00     -380.007     -121.133        7.053      223.760      184.958       90.800    50068.563    34209.311     8244.562       12.581        4.626      398.847      106.306        0.071      338.951       11.949      856.780
06/19/2013  00:25:00     -500.685     -137.241      -28.703      172.929      180.425       82.835    29904.480    32553.120     6861.662       16.982        3.466      519.153       84.430        0.026      338.962       11.967      856.789
06/19/2013  00:26:00     -359.217      -34.983      -18.522      181.429      130.634       67.581    32916.640    17065.361     4567.165        9.257        2.727      360.916       78.689        0.048      338.952       11.951      856.803
06/19/2013  00:27:00     -409.230     -140.032       -2.875      183.586      140.591       89.576    33703.742    19765.869     8023.818       12.428        3.075      432.525       96.281        0.050      338.941       11.931      856.783
06/19/2013  00:28:00     -335.832     -166.556      -16.403      177.768      122.037       79.791    31601.623    14892.964     6366.639        9.682        2.643      374.866       60.708        0.026      339.003       12.037      856.777
06/19/2013  00:29:00     -338.729      -46.434      -13.421      119.236      118.184       64.263    14217.253    13967.446     4129.693        7.469        1.616      341.897       51.640        0.023      338.981       11.999      856.758
06/19/2013  00:30:00     -585.335      -84.391      -36.867      246.029      190.353       84.393    60530.195    36234.169     7122.166       22.747        5.194      591.388       91.547        0.024      338.980       12.000      856.739
06/19/2013  00:31:00     -335.464      -52.735      -30.029      126.851       94.004       56.658    16091.101     8836.822     3210.179        7.217        1.407      339.584       54.189        0.025      339.027       12.077      856.747
06/19/2013  00:32:00     -443.735      -15.322      -24.316      195.878      123.499       73.744    38368.068    15252.034     5438.111       12.838        2.953      444.000       86.084        0.038      338.996       12.025      856.802
06/19/2013  00:33:00     -396.909      -51.890      -24.325      163.460      126.508       75.208    26719.028    16004.213     5656.199       10.459        2.419      400.286       79.947        0.040      338.997       12.026      856.762
06/19/2013  00:34:00     -295.192      -48.188      -12.505      124.194      112.464       52.021    15424.197    12648.202     2706.215        6.019        1.539      299.100       42.583        0.020      338.968       11.976      856.754
06/19/2013  00:35:00     -542.943      -77.495      -39.556      219.222      187.951       86.438    48058.307    35325.711     7471.600       19.659        4.543      548.446       92.612        0.029      338.951       11.948      856.764
06/19/2013  00:36:00     -256.440      -28.394       -0.286      230.070      103.337       79.497    52932.004    10678.629     6319.777        6.824        3.497      258.007      106.631        0.171      338.971       11.984      856.813
06/19/2013  00:37:00     -414.364      -87.302      -13.211      182.964      148.235       73.971    33475.732    21973.665     5471.741       12.020        3.046      423.461       71.621        0.029      338.976       11.991      856.791
06/19/2013  00:38:00     -356.051      -84.585       -8.123      161.105      169.825       79.268    25954.789    28840.607     6283.418        9.752        3.054      365.961       72.463        0.039      339.057       12.126      856.812
06/19/2013  00:39:00     -397.128      -35.032      -31.020      177.365      143.407       80.888    31458.453    20565.471     6542.818       10.922        2.928      398.671       92.717        0.054      339.060       12.131      856.810
06/19/2013  00:40:00     -428.448     -113.554      -14.403      166.737      167.256       77.161    27801.383    27974.693     5953.878       12.919        3.086      443.241       80.902        0.033      339.021       12.067      856.816
06/19/2013  00:41:00     -260.743      -79.968       -2.912      163.899      136.827       80.707    26863.018    18721.533     6513.591        6.323        2.605      272.730       95.607        0.123      339.003       12.036      856.865
06/19/2013  00:42:00     -425.940     -143.884      -17.679      193.305      167.275       77.955    37366.882    27980.870     6076.968       13.692        3.571      449.586       79.077        0.031      339.000       12.031      856.865
06/19/2013  00:43:00     -386.385     -229.742      -24.890      154.559      118.652       66.917    23888.559    14078.415     4477.827       12.256        2.122      449.527       61.153        0.019      338.996       12.024      856.890
06/19/2013  00:44:00     -300.684      -92.772        0.216      157.457      116.922       57.325    24792.744    13670.865     3286.171        7.038        2.087      314.670       63.434        0.041      338.932       11.918      856.917
06/19/2013  00:45:00     -323.889      -67.546       -9.228      128.116       92.101       59.095    16413.811     8482.598     3492.212        6.896        1.419      330.858       50.775        0.024      338.936       11.923      856.947
06/19/2013  00:46:00     -393.549      -61.877      -28.114      178.341      102.284       66.612    31805.439    10462.053     4437.207       10.309        2.335      398.383       89.068        0.050      338.959       11.963      856.959
06/19/2013  00:47:00     -245.591      -52.099      -21.863      133.124      108.984       59.058    17721.981    11877.418     3487.872        4.829        1.654      251.056       53.593        0.046      338.955       11.956      856.970
06/19/2013  00:48:00     -155.806      -21.045        1.341      130.029       78.982       49.355    16907.573     6238.139     2435.959        2.515        1.279      157.221       48.733        0.096      338.947       11.944      856.993
06/19/2013  00:49:00     -467.115       59.195      -29.188      135.937      117.247       58.979    18478.872    13746.799     3478.559       12.912        1.785      470.851       54.455        0.013      338.914       11.887      857.006
06/19/2013  00:50:00     -378.696      -53.321      -27.486      157.468      143.972       75.896    24796.139    20727.891     5760.277        9.914        2.564      382.432       89.739        0.055      338.949       11.945      857.019
06/19/2013  00:51:00     -331.773      -32.591      -25.078      135.079      151.636       65.601    18246.275    22993.389     4303.504        7.864        2.277      333.370       59.690        0.032      338.950       11.946      857.065
06/19/2013  00:52:00     -389.577      -20.343      -20.943      112.836      102.164       62.001    12731.877    10437.492     3844.086        8.981        1.351      390.107       53.727        0.019      338.945       11.939      857.110
06/19/2013  00:53:00     -512.103      -80.141      -35.416      172.196      134.585       67.591    29651.456    18113.160     4568.564       16.112        2.617      518.336       72.959        0.020      338.983       12.003      857.122
06/19/2013  00:54:00     -102.999       -4.072        1.873      120.714       68.456       42.484    14571.790     4686.169     1804.886        1.584        1.053      103.080       50.004        0.235      338.969       11.980      857.138
06/19/2013  00:55:00     -200.572      -24.306      -18.562       65.315       80.784       47.941     4266.055     6526.134     2298.313        2.712        0.655      202.040       30.402        0.023      338.937       11.924      857.161
06/19/2013  00:56:00     -151.337       11.192        6.682       94.091       73.992       46.412     8853.163     5474.750     2154.058        1.977        0.824      151.751       51.532        0.115      338.875       11.823      857.171
06/19/2013  00:57:00     -171.818       24.149      -16.062       75.468       86.872       42.466     5695.402     7546.738     1803.328        2.270        0.752      173.507       34.024        0.038      338.868       11.811      857.187
06/19/2013  00:58:00     -104.520      -25.484        4.270       84.081       82.159       46.067     7069.670     6750.148     2122.135        1.376        0.797      107.582       43.987        0.167      338.814       11.721      857.199
06/19/2013  00:59:00     -238.734      -40.815      -23.099       76.751       70.889       43.569     5890.772     5025.239     1898.279        3.600        0.641      242.198       36.356        0.023      338.790       11.676      857.184
06/19/2013  01:00:00     -174.329      -20.988      -32.618       85.105       82.417       45.699     7242.866     6792.536     2088.354        2.401        0.806      175.588       38.768        0.049      338.738       11.591      857.183
06/19/2013  01:01:00     -155.140      118.348      -35.169       91.827      110.071       45.325     8432.241    12115.618     2054.312        3.095        1.130      195.127       23.582        0.015      338.682       11.496      857.184
06/19/2013  01:02:00     -187.492       44.027      -20.808       70.411       58.701       41.451     4957.731     3445.776     1718.161        2.382        0.506      192.592       27.542        0.020      338.695       11.517      857.183
06/19/2013  01:03:00     -188.953       72.933      -20.104      100.286       78.937       52.134    10057.251     6231.103     2717.935        3.021        0.950      202.540       51.910        0.066      338.648       11.440      857.180
06/19/2013  01:04:00     -151.086       22.184      -25.083       98.315       71.839       62.904     9665.875     5160.861     3956.939        2.136        0.939      152.706       54.098        0.126      338.711       11.548      857.174
06/19/2013  01:05:00     -164.834      -19.757      -21.931       92.268       97.185       40.822     8513.305     9445.018     1666.460        2.383        0.981      166.014       35.335        0.045      338.686       11.504      857.177
06/19/2013  01:06:00     -168.677       56.306      -17.487       68.929       68.216       42.866     4751.219     4653.441     1837.481        2.158        0.562      177.827       30.761        0.030      338.651       11.444      857.187
06/19/2013  01:07:00     -175.571      -16.462      -18.194       78.214       72.146       52.542     6117.453     5205.100     2760.642        2.275        0.704      176.341        5.611        0.001      338.653       11.448      857.195
06/19/2013  01:08:00     -187.584       78.041      -25.311       73.324      113.382       55.812     5376.424    12855.506     3114.996        3.163        1.067      203.170       39.410        0.038      338.609       11.374      857.205
06/19/2013  01:09:00     -194.665       59.166      -20.176      126.086       86.136       51.529    15897.569     7419.447     2655.288        3.388        1.299      203.458       64.652        0.101      338.642       11.430      857.192
06/19/2013  01:10:00     -158.657      -50.541      -17.232       82.617       83.157       59.557     6825.537     6915.150     3547.093        2.265        0.864      166.512       48.675        0.085      338.673       11.481      857.181
06/19/2013  01:11:00     -185.745      -24.630      -35.111      109.215      101.967       58.423    11927.918    10397.232     3413.222        3.103        1.287      187.371       52.469        0.078      338.672       11.480      857.160
06/19/2013  01:12:00     -203.116      -26.885      -27.551       97.556       70.051       46.643     9517.155     4907.152     2175.523        2.967        0.830      204.887       49.884        0.059      338.669       11.474      857.175
06/19/2013  01:13:00     -266.621        1.342      -38.398      108.905      103.547       56.616    11860.266    10722.015     3205.348        4.917        1.289      266.625       53.176        0.040      338.633       11.415      857.155
06/19/2013  01:14:00     -280.901      -89.270      -44.510      129.792       73.297       40.482    16845.884     5372.445     1638.761        5.635        1.193      294.745       25.298        0.007      338.629       11.409      857.135
06/19/2013  01:15:00      -89.064       28.814      -10.956       62.708       56.217       37.742     3932.301     3160.399     1424.486        0.870        0.426       93.609       24.433        0.068      338.625       11.403      857.089
06/19/2013  01:16:00     -151.159        4.065       -6.797      108.048       71.748       41.420    11674.371     5147.784     1715.606        2.072        0.927      151.213       28.570        0.036      338.615       11.385      857.058
06/19/2013  01:17:00     -102.342       40.751       11.969       68.221       97.426       59.511     4654.066     9491.885     3541.521        1.498        0.884      110.157       46.964        0.182      338.617       11.390      857.031
06/19/2013  01:18:00     -197.893      -52.843      -10.078      120.869       76.229       50.200    14609.219     5810.791     2520.052        3.249        1.147      204.827       46.567        0.052      338.626       11.402      857.009
06/19/2013  01:19:00     -420.155      -41.220      -19.267      146.723      126.636       62.703    21527.744    16036.779     3931.614       11.004        2.075      422.172       66.887        0.025      338.612       11.378      856.988
06/19/2013  01:20:00     -457.986      -11.661      -39.346      177.520      143.901       83.075    31513.473    20707.490     6901.460       13.527        2.956      458.135       86.552        0.036      338.658       11.456      856.968
06/19/2013  01:21:00     -320.554     -129.149      -21.755      117.997      119.023       56.689    13923.319    14166.404     3213.602        7.560        1.565      345.592       48.075        0.019      338.663       11.464      856.930
06/19/2013  01:22:00     -411.220     -139.044      -15.109      147.146      120.995       71.712    21651.869    14639.671     5142.616       11.504        2.072      434.091       58.019        0.018      338.659       11.456      856.943
06/19/2013  01:23:00     -333.014      -48.251      -29.258      151.767      129.387       74.110    23033.304    16740.950     5492.240        7.967        2.263      336.491       76.279        0.051      338.669       11.475      856.937
06/19/2013  01:24:00     -267.019      -95.100       -9.614      164.389      114.458       81.925    27023.861    13100.618     6711.697        6.363        2.342      283.449       88.036        0.096      338.659       11.457      856.904
06/19/2013  01:25:00     -288.643      -72.939       -9.006      190.931      111.693       66.467    36454.613    12475.301     4417.924        7.102        2.667      297.716       70.542        0.056      338.660       11.459      856.914
06/19/2013  01:26:00     -359.243      -51.573      -28.900      167.240      117.937       84.135    27969.063    13909.220     7078.636        9.074        2.448      362.926       80.062        0.049      338.665       11.468      856.891
06/19/2013  01:27:00     -454.303     -109.931      -37.396      119.918      136.663       70.240    14380.207    18676.685     4933.674       12.892        1.900      467.414       51.553        0.012      338.672       11.477      856.898
06/19/2013  01:28:00     -532.777      -51.735      -25.872      197.351      145.117       78.917    38947.537    21058.963     6227.857       17.670        3.312      535.283       88.003        0.027      338.670       11.475      856.891
06/19/2013  01:29:00     -387.337      -94.308      -40.834      158.692      118.562       57.899    25183.180    14056.943     3352.238       10.158        2.130      398.652       41.278        0.011      338.701       11.528      856.909
06/19/2013  01:30:00     -374.161      -50.156      -30.080      135.951      120.093       66.016    18482.740    14422.210     4358.054        9.033        1.863      377.508       52.177        0.019      338.701       11.529      856.923
06/19/2013  01:31:00     -442.376      -75.265      -41.923      129.513      148.708       68.609    16773.709    22114.025     4707.199       12.335        2.180      448.733       61.778        0.019      338.698       11.522      856.945
06/19/2013  01:32:00     -330.830       63.661      -43.658      150.729      161.997       71.746    22719.175    26243.189     5147.466        8.475        2.705      336.900       66.735        0.039      338.718       11.556      856.911
06/19/2013  01:33:00     -356.814      -78.960       12.641      215.888      178.182       83.254    46607.651    31748.854     6931.250       10.948        4.264      365.447      105.432        0.083      338.706       11.537      856.919
06/19/2013  01:34:00     -246.648      -61.072        8.950      212.719      155.172       68.598    45249.257    24078.496     4705.636        6.932        3.702      254.097       68.174        0.072      338.690       11.512      856.971
06/19/2013  01:35:00     -280.588      -96.911       -0.006      138.848      115.565       70.336    19278.644    13355.286     4947.155        6.284        1.879      296.852       60.621        0.042      338.724       11.567      857.004
06/19/2013  01:36:00     -170.415       -0.668       -6.006      165.922      127.075       58.856    27530.151    16148.022     3464.050        3.810        2.357      170.417       68.222        0.160      338.730       11.578      857.044
06/19/2013  01:37:00     -291.592      -24.035      -25.543      194.820      120.009       64.663    37954.810    14402.167     4181.278        7.139        2.827      292.581       78.647        0.072      338.711       11.546      857.046
06/19/2013  01:38:00     -153.969      -74.106       -3.328      157.797       99.905       57.074    24899.757     9981.066     3257.447        3.367        1.907      170.874       74.685        0.191      338.709       11.543      857.081
06/19/2013  01:39:00     -175.896       -9.401        3.186      142.398      112.890       68.228    20277.245    12744.101     4655.043        3.435        1.884      176.147       78.188        0.197      338.679       11.492      857.083
06/19/2013  01:40:00     -348.811        6.910      -19.341      159.365      132.682       62.902    25397.057    17604.517     3956.668        8.452        2.348      348.879       65.454        0.035      338.697       11.521      857.056
06/19/2013  01:41:00     -171.450      -33.679       -5.585       84.142       78.343       39.443     7079.940     6137.566     1555.760        2.266        0.739      174.727       26.891        0.024      338.688       11.508      857.048
06/19/2013  01:42:00     -213.671      -35.120      -35.619       64.489       49.001       41.937     4158.822     2401.124     1758.718        2.824        0.416      216.538       13.878        0.004      338.670       11.475      857.041
06/19/2013  01:43:00      -55.024      -24.067        5.829       61.229       44.338       36.439     3749.005     1965.853     1327.788        0.534        0.352       60.057       40.448        0.454      338.615       11.386      857.021
06/19/2013  01:44:00      -63.200       17.651        2.088       64.723       84.318       37.301     4189.015     7109.446     1391.382        0.850        0.634       65.619       22.660        0.119      338.566       11.304      857.031
06/19/2013  01:45:00     -183.830       15.952      -18.771       99.092       70.800       35.445     9819.312     5012.607     1256.376        2.524        0.804      184.521       29.350        0.025      338.573       11.315      857.032
06/19/2013  01:46:00     -270.700      -30.060      -19.279      143.528       77.917       54.693    20600.375     6071.034     2991.298        5.210        1.483      272.364       58.276        0.046      338.564       11.300      857.047
06/19/2013  01:47:00     -244.251      -16.913       -7.846      130.075       96.933       53.830    16919.495     9395.929     2897.688        4.460        1.461      244.836       59.614        0.059      338.566       11.302      857.040
06/19/2013  01:48:00     -198.731      -14.493      -17.407      111.325       63.445       43.815    12393.256     4025.306     1919.716        2.917        0.917      199.258       36.146        0.033      338.597       11.355      857.015
06/19/2013  01:49:00     -113.405       -0.257        9.137      112.190       78.478       52.533    12586.552     6158.813     2759.740        1.722        1.075      113.406       51.509        0.206      338.546       11.269      856.984
06/19/2013  01:50:00     -325.217     -139.801      -15.336      124.498      110.779       55.729    15499.872    12272.031     3105.674        7.821        1.544      353.992       46.387        0.017      338.593       11.347      856.969
06/19/2013  01:51:00     -257.399      -54.197      -21.988      144.051      105.942       63.760    20750.760    11223.665     4065.305        5.285        1.802      263.042       59.638        0.051      338.594       11.349      856.971
06/19/2013  01:52:00     -253.240      -42.804      -18.141      160.249       76.192       54.817    25679.826     5805.195     3004.934        5.038        1.724      256.832       62.986        0.060      338.618       11.389      856.952
06/19/2013  01:53:00     -156.584       22.299       -6.950      107.258      101.731       60.354    11504.211    10349.199     3642.612        2.527        1.275      158.164       52.327        0.109      338.567       11.305      856.935
06/19/2013  01:54:00     -260.126       38.054      -30.329      142.372      100.733       60.420    20269.916    10147.207     3650.591        5.204        1.703      262.895       62.622        0.057      338.567       11.305      856.949
06/19/2013  01:55:00      -80.319       31.337       -1.101       69.210       63.799       46.484     4789.969     4070.359     2160.801        0.923        0.551       86.215       32.647        0.143      338.540       11.261      856.926
06/19/2013  01:56:00     -128.099       39.288       -5.420       88.144       66.634       36.344     7769.363     4440.090     1320.921        1.575        0.677      133.988       36.864        0.076      338.551       11.277      856.935
06/19/2013  01:57:00      -36.019       -8.097       10.938       88.289       49.102       47.247     7794.878     2411.032     2232.252        0.696        0.622       36.918       33.184        0.808      338.532       11.248      856.940
06/19/2013  01:58:00     -162.192       15.897      -14.137      118.198      150.280       62.646    13970.735    22584.154     3924.467        3.361        2.024      162.969       66.400        0.166      338.543       11.263      856.956
06/19/2013  01:59:00     -130.559       76.342      -25.493       90.623      116.585       53.110     8212.478    13592.138     2820.634        2.407        1.231      151.241       40.084        0.070      338.589       11.340      856.970
06/19/2013  02:00:00     -214.509     -122.966       -6.034      115.718       87.016       53.329    13390.573     7571.753     2843.946        4.248        1.190      247.254       43.026        0.030      338.559       11.291      856.979
06/19/2013  02:01:00     -143.865       10.809      -24.840       85.711      111.540       54.668     7346.349    12441.259     2988.637        2.210        1.139      144.270       43.338        0.090      338.538       11.257      856.997
06/19/2013  02:02:00      -13.894        4.107       20.790       49.250       43.817       39.842     2425.518     1919.944     1587.372        0.329        0.297       14.489       37.574        6.726      338.515       11.219      856.980
06/19/2013  02:03:00      -67.468       34.827       -3.590      101.580       80.059       29.794    10318.571     6409.396      887.711        1.169        0.881       75.926       46.276        0.371      338.540       11.259      856.995
06/19/2013  02:04:00     -213.647       95.138      -27.587       79.256       84.924       53.865     6281.491     7212.101     2901.491        3.592        0.820      233.873       51.469        0.048      338.609       11.372      857.015
06/19/2013  02:05:00      -98.212       16.672      -15.426       66.806       74.141       47.727     4463.046     5496.827     2277.821        1.120        0.612       99.617       31.705        0.101      338.570       11.312      857.039
06/19/2013  02:06:00      -55.989      -41.408       10.287       71.544       46.930       40.436     5118.477     2202.430     1635.094        0.695        0.448       69.638       31.196        0.201      338.549       11.276      857.081
06/19/2013  02:07:00      -93.649       14.093       -1.732       57.922       81.119       47.325     3354.971     6580.370     2239.671        1.057        0.609       94.703       26.519        0.078      338.463       11.132      857.087
06/19/2013  02:08:00     -182.560      -21.005      -11.246       65.480       88.942       47.086     4287.694     7910.736     2217.053        2.415        0.721      183.765       36.992        0.041      338.480       11.159      857.082
06/19/2013  02:09:00     -120.997      -19.166      -22.111       70.274       73.712       32.367     4938.440     5433.490     1047.639        1.346        0.571      122.506       36.458        0.089      338.471       11.145      857.089
06/19/2013  02:10:00     -102.447      -31.156        0.201       96.898       46.006       30.492     9389.275     2116.580      929.786        1.195        0.622      107.079       28.986        0.073      338.435       11.082      857.122
06/19/2013  02:11:00     -158.695      -22.476       -4.897       74.145       50.453       41.483     5497.506     2545.501     1720.801        1.774        0.488      160.279       38.594        0.058      338.436       11.084      857.150
06/19/2013  02:12:00     -158.901        5.310      -29.027       70.440       64.737       38.170     4961.746     4190.832     1456.940        1.836        0.530      158.990       32.612        0.042      338.472       11.144      857.174
06/19/2013  02:13:00      -82.019      118.669      -11.197       62.274       82.363       48.722     3878.046     6783.637     2373.819        1.698        0.652      144.254       30.505        0.045      338.437       11.087      857.188
06/19/2013  02:14:00     -170.192       78.914      -36.683       93.949       64.966       47.874     8826.373     4220.587     2291.895        2.594        0.767      187.598       56.518        0.091      338.553       11.280      857.187
06/19/2013  02:15:00     -107.471      105.973      -30.248       84.179       51.273       32.049     7086.030     2628.896     1027.159        1.722        0.537      150.931       24.674        0.027      338.548       11.273      857.189
06/19/2013  02:16:00        4.688       34.903        8.859       52.736       39.115       25.665     2781.124     1529.948      658.704        0.314        0.248       35.216       17.649        0.251      338.528       11.239      857.165
06/19/2013  02:17:00      -39.739       -9.359       -5.911       87.330       68.663       30.305     7626.443     4714.565      918.375        0.748        0.663       40.826       35.503        0.756      338.564       11.302      857.174
06/19/2013  02:18:00      -73.834       19.173      -21.024       70.448       43.353       40.702     4962.947     1879.442     1656.668        0.738        0.425       76.283       31.633        0.172      338.512       11.214      857.166
06/19/2013  02:19:00     -101.499       54.184      -30.565       47.915       84.744       35.473     2295.846     7181.512     1258.362        1.245        0.537      115.057       27.792        0.058      338.526       11.237      857.168
06/19/2013  02:20:00      -52.081      -28.561       -5.383       60.621       54.642       30.455     3674.848     2985.794      927.484        0.557        0.379       59.398       27.933        0.221      338.494       11.184      857.192
06/19/2013  02:21:00      -91.850      -11.266      -16.863       55.401       58.072       33.910     3069.291     3372.314     1149.910        0.822        0.380       92.539       25.620        0.077      338.469       11.140      857.183
06/19/2013  02:22:00      -51.443      -30.648        4.182       49.983       40.791       29.265     2498.313     1663.889      856.432        0.431        0.251       59.881       21.376        0.127      338.396       11.019      857.186
06/19/2013  02:23:00      -12.800       15.277       -5.323       31.381       35.709       19.501      984.788     1275.151      380.277        0.153        0.132       19.931       11.044        0.307      338.431       11.076      857.174
06/19/2013  02:24:00      -40.800       -9.822        4.924       40.185       30.966       25.095     1614.797      958.921      629.772        0.249        0.160       41.966       18.533        0.195      338.380       10.992      857.170
06/19/2013  02:25:00      -45.525      -20.152       -2.415       75.933       36.542       22.402     5765.802     1335.293      501.858        0.504        0.380       49.786       26.440        0.282      338.340       10.924      857.146
06/19/2013  02:26:00      -28.246       -7.169        3.209       36.183       24.476       20.591     1309.181      599.097      423.976        0.160        0.117       29.141       19.749        0.459      338.241       10.758      857.128
06/19/2013  02:27:00      -58.861      -21.818      -12.045       24.757       24.995       17.687      612.923      624.739      312.829        0.282        0.078       62.775        7.916        0.016      338.301       10.860      857.115
06/19/2013  02:28:00      -58.135       33.138       -3.235       34.648       19.654       17.505     1200.488      386.289      306.413        0.319        0.095       66.916       15.518        0.054      338.234       10.748      857.092
06/19/2013  02:29:00      -24.644       70.022       -1.336       21.089       38.378       16.913      444.761     1472.867      286.035        0.386        0.110       74.232       16.433        0.049      338.248       10.770      857.093
06/19/2013  02:30:00       14.859       91.779       -9.518       16.827       17.344       18.138      283.161      300.797      328.991        0.482        0.046       92.974        8.807        0.009      338.187       10.669      857.082
06/19/2013  02:31:00       -6.772       65.720       -4.932       41.276       36.995       18.968     1703.698     1368.598      359.787        0.391        0.172       66.068       20.672        0.098      338.198       10.685      857.103
06/19/2013  02:32:00      -48.377       30.411        7.339       64.599       47.930       28.871     4173.029     2297.289      833.524        0.531        0.365       57.142       30.747        0.290      338.144       10.596      857.155
06/19/2013  02:33:00      -89.337      -56.038        2.439       46.306       47.799       30.086     2144.264     2284.744      905.144        0.823        0.267      105.458       23.993        0.052      338.184       10.663      857.141
06/19/2013  02:34:00      -77.641      -89.719        2.963       68.130       32.530       31.388     4641.671     1058.179      985.236        1.038        0.334      118.649       33.918        0.082      338.383       10.997      857.104
06/19/2013  02:35:00      -58.444      -49.802        1.613       53.397       43.827       23.736     2851.274     1920.770      563.396        0.562        0.267       76.785       23.739        0.096      338.318       10.890      857.073
06/19/2013  02:36:00     -123.408      -49.318       -7.276       51.024       52.577       27.603     2603.475     2764.379      761.949        1.192        0.306      132.898       24.742        0.035      338.248       10.771      857.068
06/19/2013  02:37:00      -92.605      -51.863        4.582       46.971       79.040       35.423     2206.270     6247.258     1254.812        1.050        0.485      106.138       27.777        0.068      338.305       10.867      857.059
06/19/2013  02:38:00      -73.595      -56.501       16.244       67.022       47.469       34.890     4491.992     2253.344     1217.305        0.842        0.398       92.783       36.318        0.153      338.269       10.804      857.094
06/19/2013  02:39:00      -48.106      -57.801       -7.815       53.349       31.462       27.125     2846.097      989.883      735.761        0.514        0.229       75.201       19.662        0.068      338.314       10.880      857.085
06/19/2013  02:40:00      -61.362     -180.671      -11.264       51.790       58.819       27.950     2682.205     3459.678      781.201        2.173        0.346      190.807       18.535        0.009      338.377       10.986      857.074
06/19/2013  02:41:00      -59.321     -114.523        0.414       59.205       68.649       30.391     3505.191     4712.745      923.624        1.289        0.457      128.975       30.694        0.057      338.344       10.931      857.063
06/19/2013  02:42:00     -127.375     -123.493       -2.640       46.431       91.578       33.622     2155.798     8386.565     1130.422        2.157        0.584      177.411       34.255        0.037      338.361       10.959      857.048
06/19/2013  02:43:00      -53.562      -48.473        8.085       35.454       40.333       18.927     1256.983     1626.758      358.213        0.426        0.162       72.240       18.099        0.063      338.284       10.831      857.048
06/19/2013  02:44:00      -92.589      -35.033       -9.044       36.111       27.265       21.374     1304.030      743.381      456.836        0.619        0.125       98.995       15.258        0.024      338.317       10.887      857.077
06/19/2013  02:45:00      -77.327      -51.972        2.173       49.045       34.327       21.769     2405.369     1178.343      473.883        0.637        0.203       93.170       20.630        0.049      338.217       10.719      857.100
06/19/2013  02:46:00      -89.938     -101.443        1.277       95.062       54.339       44.048     9036.818     2952.758     1940.232        1.615        0.696      135.571       39.995        0.087      338.315       10.882      857.123
06/19/2013  02:47:00      -58.065      -92.945       -9.049       74.306       88.285       42.616     5521.367     7794.169     1816.119        1.361        0.757      109.591       36.409        0.110      338.370       10.976      857.107
06/19/2013  02:48:00      -87.266     -112.104        1.917       51.146       84.317       27.250     2615.929     7109.433      742.566        1.533        0.523      142.066       25.430        0.032      338.409       11.038      857.111
06/19/2013  02:49:00      -94.833      -80.302        0.373       58.877       54.193       28.767     3466.555     2936.852      827.526        1.133        0.362      124.265       21.200        0.029      338.364       10.965      857.162
06/19/2013  02:50:00     -123.680      -31.538        3.427       78.120       34.033       30.588     6102.705     1158.225      935.622        1.225        0.410      127.638       41.126        0.104      338.238       10.753      857.171
06/19/2013  02:51:00     -122.005      -79.978        2.927       96.268       64.082       41.509     9267.563     4106.474     1723.022        1.819        0.755      145.882       49.869        0.117      338.328       10.904      857.184
06/19/2013  02:52:00     -198.153      -61.972       -9.980       83.571      137.594       49.236     6984.079    18931.992     2424.230        3.577        1.417      207.618       40.215        0.038      338.327       10.900      857.162
06/19/2013  02:53:00     -266.259      -71.384      -19.030      144.367      105.188       60.727    20841.770    11064.478     3687.770        5.597        1.780      275.662       72.618        0.069      338.326       10.897      857.117
06/19/2013  02:54:00     -343.984      -72.324       -2.403      136.841      115.191       69.903    18725.546    13268.988     4886.496        8.021        1.844      351.505       71.459        0.041      338.291       10.840      857.083
06/19/2013  02:55:00     -363.689      -15.416      -22.575      147.430      132.449       72.479    21735.611    17542.697     5253.270        8.877        2.227      364.016       73.896        0.041      338.341       10.925      857.084
06/19/2013  02:56:00     -442.693      -49.559      -41.312      157.882      109.060       72.119    24926.761    11894.166     5201.203       12.107        2.101      445.458       72.377        0.026      338.341       10.923      857.089
06/19/2013  02:57:00     -360.492     -122.525       -4.623      214.592      136.964       76.521    46049.934    18759.036     5855.435       10.781        3.533      380.745      102.625        0.073      338.356       10.950      857.087
06/19/2013  02:58:00     -417.172     -168.484       -9.655      168.955      133.154       74.827    28545.779    17729.933     5599.152       12.718        2.594      449.910       79.878        0.032      338.368       10.967      857.111
06/19/2013  02:59:00     -486.325     -180.965      -16.547      162.087      124.746       72.431    26272.328    15561.486     5246.204       15.830        2.354      518.903       64.221        0.015      338.371       10.974      857.107
06/19/2013  03:00:00     -440.888      -90.606      -24.987      146.600      140.964       71.505    21491.516    19870.901     5113.000       12.484        2.324      450.102       74.485        0.027      338.379       10.986      857.133
06/19/2013  03:01:00     -392.269      -78.121      -16.227      156.124      147.452       77.990    24374.647    21742.211     6082.406       10.621        2.610      399.973       72.188        0.033      338.360       10.955      857.142
06/19/2013  03:02:00     -364.987      -91.134      -10.531      176.441      119.793       66.245    31131.386    14350.450     4388.393        9.574        2.494      376.193       76.537        0.041      338.352       10.941      857.145
06/19/2013  03:03:00     -342.683      -75.981      -12.363      155.244      137.396       79.614    24100.798    18877.567     6338.358        8.633        2.466      351.005       72.368        0.043      338.357       10.949      857.122
06/19/2013  03:04:00     -358.949      -95.313      -26.268      137.876      118.620       63.400    19009.755    14070.761     4019.569        8.785        1.855      371.388       52.271        0.020      338.363       10.960      857.129
06/19/2013  03:05:00     -419.788      -92.156       -0.459      191.742      141.634       99.069    36764.897    20060.114     9814.683       12.566        3.332      429.785      103.881        0.058      338.356       10.947      857.147
06/19/2013  03:06:00     -340.282      -40.636      -20.786      218.516      173.134       81.762    47749.157    29975.340     6685.027       10.113        4.220      342.700       83.718        0.060      338.348       10.935      857.141
06/19/2013  03:07:00     -392.106     -104.303       -9.895      219.481      114.935       76.246    48172.003    13210.087     5813.486       11.595        3.360      405.742       86.729        0.046      338.363       10.960      857.165
06/19/2013  03:08:00     -307.455      -84.696       -0.594      155.149      106.525       73.577    24071.256    11347.483     5413.619        7.126        2.042      318.907       77.567        0.059      338.336       10.915      857.172
06/19/2013  03:09:00     -364.700     -105.867        2.976      189.792      151.546       72.828    36020.819    22966.188     5303.899       10.424        3.215      379.755       76.374        0.040      338.333       10.910      857.186
06/19/2013  03:10:00     -347.826      -98.036      -25.835      152.363      117.336       70.309    23214.393    13767.775     4943.287        8.658        2.096      361.378       76.408        0.045      338.300       10.855      857.193
06/19/2013  03:11:00     -259.198      -93.128        8.581      172.817      159.453       85.783    29865.706    25425.184     7358.752        6.928        3.132      275.420       90.157        0.107      338.287       10.833      857.184
06/19/2013  03:12:00     -419.433      -93.086      -12.194      136.151      142.298       70.524    18537.199    20248.636     4973.592       11.424        2.188      429.639       67.134        0.024      338.294       10.843      857.192
06/19/2013  03:13:00     -386.406      -55.357       -2.411      160.409      139.705       82.522    25731.083    19517.401     6809.888       10.221        2.603      390.351       79.694        0.042      338.302       10.859      857.199
06/19/2013  03:14:00     -406.786      -70.396       -7.871      203.131      134.899       86.434    41262.212    18197.743     7470.776       11.870        3.347      412.832       94.660        0.053      338.315       10.882      857.221
06/19/2013  03:15:00     -337.726       -5.771       -9.261      209.236      116.375       78.442    43779.780    13543.196     6153.172        8.881        3.174      337.776       96.952        0.082      338.315       10.880      857.242
06/19/2013  03:16:00     -381.325      -74.732      -26.170      155.524      135.427       71.370    24187.849    18340.430     5093.676        9.964        2.381      388.579       78.882        0.041      338.318       10.885      857.266
06/19/2013  03:17:00     -314.491     -127.151      -12.557      139.611       91.839       63.225    19491.290     8434.491     3997.457        7.357        1.596      339.223       67.221        0.039      338.291       10.838      857.257
06/19/2013  03:18:00     -380.960     -132.054        1.432      166.763      122.641       76.183    27809.816    15040.841     5803.912       10.560        2.433      403.198       79.660        0.039      338.259       10.787      857.281
06/19/2013  03:19:00     -383.103     -104.496      -12.670      155.379      131.405       61.777    24142.755    17267.213     3816.383       10.153        2.261      397.099       57.403        0.021      338.252       10.774      857.294
06/19/2013  03:20:00     -369.235     -116.488      -12.418      147.743      110.911       70.478    21827.889    12301.157     4967.124        9.457        1.955      387.174       63.429        0.027      338.227       10.733      857.322
06/19/2013  03:21:00     -447.287      -81.875      -30.432      162.007      132.212       72.339    26246.262    17479.973     5232.967       12.832        2.448      454.719       62.197        0.019      338.200       10.687      857.362
06/19/2013  03:22:00     -419.675      -25.076      -34.182      166.217      129.860       79.260    27628.141    16863.559     6282.214       11.434        2.539      420.423       89.528        0.045      338.179       10.652      857.408
06/19/2013  03:23:00     -444.023     -123.053      -24.780      198.083      132.577       76.894    39236.931    17576.554     5912.684       13.781        3.136      460.758       87.936        0.036      338.149       10.601      857.446
06/19/2013  03:24:00     -448.521     -121.274      -20.530      134.213      126.693       66.292    18013.012    16051.152     4394.587       12.737        1.923      464.627       58.995        0.016      338.148       10.599      857.496
06/19/2013  03:25:00     -375.056     -139.361        4.651      143.859      119.949       65.591    20695.368    14387.712     4302.147        9.974        1.969      400.111       74.873        0.035      338.120       10.552      857.540
06/19/2013  03:26:00     -299.856      -52.710      -12.662      149.531      110.224       68.492    22359.400    12149.301     4691.130        6.602        1.960      304.453       72.201        0.056      338.102       10.523      857.561
06/19/2013  03:27:00     -374.650      -72.184      -16.176      111.705      117.785       67.882    12477.960    13873.305     4607.930        8.839        1.548      381.540       61.202        0.026      338.088       10.499      857.570
06/19/2013  03:28:00     -362.508      -93.923      -19.328      127.576       95.367       62.910    16275.534     9094.792     3957.635        8.496        1.466      374.478       61.511        0.027      338.091       10.503      857.560
06/19/2013  03:29:00     -236.091      -62.747        1.708      118.695       99.133       60.224    14088.464     9827.258     3626.934        4.361        1.377      244.287       53.531        0.048      338.051       10.436      857.555
06/19/2013  03:30:00     -244.959      -58.708       -9.159       94.930       81.091       50.955     9011.718     6575.741     2596.388        4.086        0.909      251.896       28.774        0.013      338.040       10.417      857.536
06/19/2013  03:31:00     -249.407      -89.204        3.681      122.759      101.221       61.357    15069.845    10245.688     3764.672        4.962        1.454      264.880       57.287        0.047      338.049       10.433      857.531
06/19/2013  03:32:00     -264.873      -35.410        1.807      155.941      101.613       59.226    24317.564    10325.132     3507.678        5.477        1.908      267.229       73.150        0.075      338.065       10.461      857.528
06/19/2013  03:33:00     -237.074      -67.522       -1.537      126.848       86.602       53.860    16090.475     7499.976     2900.873        4.362        1.325      246.503       48.741        0.039      338.034       10.408      857.529
06/19/2013  03:34:00     -360.317     -126.927       -6.231      115.031      128.801       56.071    13232.192    16589.625     3143.907        8.946        1.648      382.019       62.034        0.026      338.070       10.470      857.515
06/19/2013  03:35:00     -329.970      -55.598      -19.679      117.198       93.413       49.862    13735.465     8726.064     2486.238        6.865        1.247      334.621       56.334        0.028      338.046       10.428      857.508
06/19/2013  03:36:00     -143.974      -44.176        7.452      122.656       86.511       62.704    15044.458     7484.127     3931.752        2.459        1.323      150.599       72.289        0.230      338.036       10.412      857.489
06/19/2013  03:37:00     -254.368      -49.127        0.965      123.816      112.119       68.050    15330.449    12570.727     4630.861        4.982        1.627      259.068       67.160        0.067      338.037       10.413      857.475
06/19/2013  03:38:00     -312.035      -73.909       -8.241      147.991      107.096       60.936    21901.296    11469.506     3713.171        6.998        1.854      320.669       68.752        0.046      338.075       10.476      857.457
06/19/2013  03:39:00     -331.613      -24.245      -19.824      113.941       99.498       56.333    12982.539     9899.773     3173.408        6.850        1.303      332.498       53.724        0.026      338.058       10.450      857.444
06/19/2013  03:40:00     -212.105      -22.082        1.684      144.577      100.752       67.972    20902.492    10151.040     4620.195        4.057        1.784      213.251       80.303        0.142      337.987       10.331      857.461
06/19/2013  03:41:00     -350.436      -52.174      -14.171      154.534      106.146       52.316    23880.698    11267.007     2736.982        8.180        1.894      354.299       53.760        0.023      338.032       10.404      857.466
06/19/2013  03:42:00     -323.641      -97.160       -4.563      137.263       87.889       53.833    18841.143     7724.482     2897.957        7.183        1.473      337.911       56.342        0.028      338.008       10.367      857.451
06/19/2013  03:43:00     -308.008      -48.246      -14.923      144.159       98.143       56.313    20781.891     9632.008     3171.116        6.550        1.679      311.764       61.007        0.038      337.985       10.327      857.456
06/19/2013  03:44:00     -242.623      -79.256       15.576      151.899      124.810       66.423    23073.447    15577.476     4411.988        5.422        2.153      255.240       79.369        0.097      337.976       10.312      857.478
06/19/2013  03:45:00     -286.283      -52.651        1.956      193.802      112.372       68.122    37559.100    12627.562     4640.663        6.977        2.741      291.084       82.318        0.080      338.007       10.365      857.498
06/19/2013  03:46:00     -282.559     -118.517       10.871      165.859      119.101       82.632    27509.284    14184.980     6828.080        7.125        2.426      306.408       89.519        0.085      338.015       10.377      857.528
06/19/2013  03:47:00     -343.895       23.666      -11.929      140.337      100.590       59.209    19694.438    10118.364     3505.724        7.614        1.666      344.708       64.769        0.035      337.965       10.293      857.535
06/19/2013  03:48:00     -347.730      -55.356       -8.802      135.990      157.153       66.803    18493.287    24697.008     4462.578        8.585        2.383      352.109       53.551        0.023      337.975       10.309      857.490
06/19/2013  03:49:00     -363.044     -137.683      -20.843      177.577      155.157       72.813    31533.445    24073.619     5301.753       10.604        3.045      388.275       81.431        0.044      337.982       10.320      857.460
06/19/2013  03:50:00     -327.058      -67.466       -9.941      152.017      134.819       75.191    23109.222    18176.179     5653.753        7.927        2.347      333.944       80.307        0.058      337.955       10.275      857.453
06/19/2013  03:51:00     -291.154      -61.137        8.807      165.508      116.364       71.292    27392.898    13540.546     5082.537        6.729        2.301      297.504       78.860        0.070      337.929       10.233      857.448
06/19/2013  03:52:00     -226.387      -97.008      -26.801      141.284      132.908       70.869    19961.041    17664.442     5022.478        5.201        2.132      246.296       65.561        0.071      337.947       10.263      857.441
06/19/2013  03:53:00     -306.591      -97.277        2.126      130.299      113.415       61.411    16977.799    12862.898     3771.315        6.853        1.681      321.654       65.379        0.041      337.926       10.226      857.439
06/19/2013  03:54:00     -336.940     -118.953       -1.678      179.326      175.973       80.814    32157.872    30966.547     6530.843        9.865        3.483      357.321       72.173        0.041      337.933       10.238      857.450
06/19/2013  03:55:00     -243.306     -106.975        4.648      216.161      134.025       72.199    46725.367    17962.820     5212.646        7.027        3.495      265.785       89.557        0.114      337.932       10.238      857.437
06/19/2013  03:56:00     -357.361     -195.509      -21.060      212.448      135.528       83.925    45133.967    18367.945     7043.369       11.845        3.527      407.346       87.089        0.046      337.956       10.277      857.431
06/19/2013  03:57:00     -261.108      -79.947       -2.423      160.087      124.538       82.688    25627.722    15509.784     6837.383        6.127        2.399      273.073       71.411        0.068      337.957       10.279      857.462
06/19/2013  03:58:00     -309.123     -139.479       -9.841      200.008      158.927       84.722    40003.196    25257.727     7177.854        9.376        3.622      339.134       92.647        0.075      337.952       10.271      857.475
06/19/2013  03:59:00     -360.734      -78.387       -0.177      153.329      100.117       72.494    23509.714    10023.382     5255.384        8.752        1.939      369.153       77.965        0.045      337.914       10.205      857.483
06/19/2013  04:00:00     -312.136     -129.041        9.889      150.967      113.936       77.103    22791.062    12981.480     5944.850        7.794        2.086      337.758       75.887        0.050      337.924       10.224      857.502
06/19/2013  04:01:00     -240.542      -31.798       -5.498      134.923      109.957       61.800    18204.266    12090.536     3819.195        4.650        1.706      242.634       58.603        0.058      337.900       10.183      857.512
06/19/2013  04:02:00     -324.829      -79.196       -2.575      153.892      116.406       69.172    23682.725    13550.451     4784.743        7.690        2.101      334.344       69.586        0.043      337.905       10.190      857.518
06/19/2013  04:03:00     -307.687     -124.515       -5.542      216.173      140.322       89.638    46730.733    19690.159     8035.046        9.232        3.723      331.927       99.882        0.091      337.959       10.283      857.520
06/19/2013  04:04:00     -282.237     -135.175       -6.311      119.125      127.543       67.123    14190.765    16267.127     4505.521        6.646        1.748      312.937       67.231        0.046      337.957       10.280      857.535
06/19/2013  04:05:00     -316.338     -149.992       -6.100      180.174      163.964       78.536    32462.573    26884.154     6167.952        9.405        3.276      350.096       86.050        0.060      337.924       10.224      857.546
06/19/2013  04:06:00     -230.787     -202.897      -18.386      148.034      111.878       81.418    21914.042    12516.576     6628.857        6.791        2.053      307.294       85.882        0.078      337.950       10.268      857.551
06/19/2013  04:07:00     -204.996     -169.639       -0.583      156.076      125.416       77.219    24359.743    15729.241     5962.786        5.842        2.303      266.084       83.719        0.099      337.935       10.243      857.551
06/19/2013  04:08:00     -277.734      -68.394        0.794      143.590      121.349       63.135    20618.078    14725.529     3986.018        6.056        1.966      286.031       74.393        0.068      337.905       10.192      857.563
06/19/2013  04:09:00     -183.281      -86.523        3.249      128.238       89.856       51.977    16445.046     8074.094     2701.573        3.415        1.361      202.677       51.382        0.064      337.906       10.194      857.559
06/19/2013  04:10:00     -182.022     -121.850       -3.397      135.456       97.683       52.607    18348.253     9542.059     2767.495        3.932        1.533      219.042       63.400        0.084      337.934       10.242      857.543
06/19/2013  04:11:00     -231.286     -173.052       -6.872      164.635      114.931       66.307    27104.753    13209.070     4396.568        6.409        2.236      288.860       69.623        0.058      337.938       10.248      857.551
06/19/2013  04:12:00     -320.924      -75.738      -25.249      184.811      147.661       61.293    34155.133    21803.709     3756.786        8.453        2.986      329.740       74.767        0.051      337.909       10.198      857.557
06/19/2013  04:13:00     -162.632     -121.066       18.143      159.001      128.819       76.387    25281.457    16594.296     5834.984        4.456        2.386      202.746       84.728        0.175      337.920       10.217      857.554
06/19/2013  04:14:00     -168.988      -83.094       -3.703      115.201       94.885       47.213    13271.363     9003.139     2229.075        2.998        1.225      188.313       55.089        0.086      337.917       10.212      857.564
06/19/2013  04:15:00     -240.164       -8.711        8.058      118.823      104.710       67.250    14118.799    10964.271     4522.558        4.371        1.480      240.322       67.262        0.078      337.920       10.217      857.579
06/19/2013  04:16:00     -150.550     -107.856        2.634      124.742       92.507       58.318    15560.557     8557.617     3401.006        3.091        1.376      185.198       53.587        0.084      337.907       10.197      857.609
06/19/2013  04:17:00     -158.846      -65.039       -1.333       80.105       82.395       41.639     6416.787     6788.976     1733.826        2.220        0.747      171.646       42.842        0.062      337.867       10.128      857.620
06/19/2013  04:18:00     -220.496      -79.423       -9.688      117.323      104.730       45.908    13764.789    10968.452     2107.583        4.093        1.342      234.364       41.964        0.032      337.879       10.148      857.632
06/19/2013  04:19:00     -340.598      -38.193      -20.044      160.943      105.015       65.402    25902.528    11028.068     4277.419        7.953        2.060      342.733       83.544        0.059      337.875       10.139      857.641
06/19/2013  04:20:00     -408.462      -82.053      -24.056      124.223       92.094       56.539    15431.343     8481.371     3196.661       10.063        1.355      416.622       30.146        0.005      337.879       10.145      857.606
06/19/2013  04:21:00     -326.754      -30.410        4.961      133.019      139.647       63.045    17694.166    19501.196     3974.714        7.444        2.059      328.166       60.507        0.034      337.850       10.100      857.608
06/19/2013  04:22:00     -377.062     -142.267      -16.677      135.345      121.501       76.393    18318.289    14762.526     5835.917       10.080        1.946      403.009       74.214        0.034      337.854       10.106      857.599
06/19/2013  04:23:00     -376.851     -218.747      -23.345      146.552      146.774       73.562    21477.629    21542.647     5411.302       11.941        2.422      435.737       68.884        0.025      337.871       10.135      857.593
06/19/2013  04:24:00     -228.623      -54.743       13.444      187.156      143.218       89.985    35027.512    20511.269     8097.294        5.953        3.182      235.085      103.876        0.195      337.859       10.114      857.581
06/19/2013  04:25:00     -399.185      -38.789      -20.104      164.660      146.692       78.197    27112.899    21518.497     6114.737       10.799        2.737      401.065       76.002        0.036      337.854       10.105      857.570
06/19/2013  04:26:00     -371.702      -74.932      -14.349      138.937      119.590       71.771    19303.504    14301.828     5151.069        9.136        1.938      379.180       72.539        0.037      337.833       10.070      857.556
06/19/2013  04:27:00     -325.909      -19.940      -22.091      161.030      126.839       70.898    25930.527    16088.037     5026.540        7.706        2.352      326.518       67.561        0.043      337.819       10.046      857.558
06/19/2013  04:28:00     -242.779     -127.155      -21.469      161.123      130.325       71.382    25960.755    16984.520     5095.331        6.180        2.402      274.063       57.111        0.043      337.815       10.042      857.551
06/19/2013  04:29:00     -311.909      -81.548        0.069      187.556      104.466       67.136    35177.124    10913.223     4507.186        7.726        2.530      322.393       78.143        0.059      337.824       10.054      857.551
06/19/2013  04:30:00     -493.635      -75.766      -28.229      185.384      158.015       79.709    34367.386    24968.629     6353.558       15.794        3.284      499.416       67.530        0.018      337.821       10.050      857.550
06/19/2013  04:31:00     -266.267      -24.982       -0.868       98.680      131.846       60.447     9737.805    17383.487     3653.786        5.114        1.539      267.436       44.685        0.028      337.797       10.011      857.558
06/19/2013  04:32:00     -340.712      -57.300      -20.031      137.972      131.523       59.044    19036.324    17298.257     3486.243        7.979        1.991      345.496       50.008        0.021      337.762        9.952      857.570
06/19/2013  04:33:00     -490.429      -21.295      -23.466      239.004      153.141       78.523    57122.703    23452.085     6165.875       16.412        4.337      490.891       94.212        0.037      337.749        9.930      857.550
06/19/2013  04:34:00     -416.740      -53.094      -16.760      178.405      147.113       68.669    31828.199    21642.211     4715.386       11.747        2.909      420.109       75.339        0.032      337.726        9.892      857.535
06/19/2013  04:35:00     -344.496      -66.819       -2.283      143.472      124.325       76.657    20584.118    15456.588     5876.308        8.252        2.096      350.917       69.456        0.039      337.732        9.902      857.520
06/19/2013  04:36:00     -415.850      -63.204      -13.415      208.960      130.691       81.583    43664.467    17080.252     6655.787       12.224        3.370      420.626      101.872        0.059      337.754        9.939      857.521
06/19/2013  04:37:00     -253.508       14.485        1.982      163.432      114.789       64.407    26709.876    13176.565     4148.280        5.425        2.202      253.921       78.530        0.096      337.742        9.920      857.508
06/19/2013  04:38:00     -333.776     -105.723       -9.999      171.750      129.793       68.383    29498.049    16846.317     4676.276        8.684        2.551      350.120       79.470        0.052      337.741        9.917      857.499
06/19/2013  04:39:00     -387.010      -41.165      -16.787      142.405      120.652       72.998    20279.190    14556.992     5328.773        9.595        2.008      389.193       76.365        0.038      337.723        9.887      857.484
06/19/2013  04:40:00     -221.099      -90.988       -2.877      166.485      123.764       72.388    27717.300    15317.473     5240.082        5.271        2.414      239.089       86.836        0.132      337.717        9.878      857.470
06/19/2013  04:41:00     -194.931       12.891       -7.065      126.240       95.021       57.193    15936.648     9028.912     3271.020        3.322        1.412      195.357       67.219        0.118      337.679        9.814      857.463
06/19/2013  04:42:00     -260.949      -43.742      -10.985      140.427      104.292       53.159    19719.643    10876.804     2825.851        5.177        1.671      264.590       49.712        0.035      337.676        9.809      857.456
06/19/2013  04:43:00     -255.840      -85.881        2.638      155.620      125.360       66.632    24217.715    15715.246     4439.790        5.860        2.219      269.869       67.777        0.063      337.667        9.794      857.467
06/19/2013  04:44:00     -311.174      -97.602      -17.346      151.864      135.405       69.820    23062.770    18334.577     4874.830        7.645        2.314      326.122       77.288        0.056      337.676        9.809      857.459
06/19/2013  04:45:00     -233.191      -48.559        8.675      141.196      152.227       76.388    19936.170    23172.953     5835.167        5.287        2.447      238.193       75.337        0.100      337.668        9.796      857.441
06/19/2013  04:46:00     -223.759      -98.228        3.134      134.987      121.697       70.339    18221.476    14810.195     4947.645        4.885        1.899      244.370       75.158        0.095      337.643        9.752      857.427
06/19/2013  04:47:00     -441.192     -131.858      -17.136      161.555      142.970       81.773    26100.081    20440.324     6686.829       13.277        2.661      460.474       87.712        0.036      337.676        9.808      857.443
06/19/2013  04:48:00     -191.065      -38.019       -7.965      111.167      112.589       62.497    12358.088    12676.199     3905.901        3.347        1.447      194.811       55.856        0.082      337.639        9.747      857.493
06/19/2013  04:49:00     -423.144     -174.424      -40.076      118.393      166.366       63.834    14016.969    27677.736     4074.832       12.842        2.288      457.684       52.904        0.013      337.667        9.794      857.498
06/19/2013  04:50:00     -337.901      -66.779        0.698      160.780      129.678       74.875    25850.278    16816.413     5606.300        8.345        2.414      344.436       81.429        0.056      337.624        9.720      857.504
06/19/2013  04:51:00     -463.416     -139.974      -25.479      146.489      138.764       78.130    21459.087    19255.435     6104.317       14.090        2.341      484.094       80.094        0.027      337.626        9.725      857.505
06/19/2013  04:52:00     -401.231      -99.763      -22.282      198.007      106.067       70.494    39206.813    11250.165     4969.412       11.342        2.771      413.448       88.589        0.046      337.613        9.702      857.530
06/19/2013  04:53:00     -360.860     -128.699       -8.682      162.396      170.075       84.517    26372.350    28925.642     7143.143       10.464        3.122      383.123       82.536        0.046      337.635        9.740      857.508
06/19/2013  04:54:00     -374.278     -102.453       -3.517      202.232      142.967       74.171    40897.822    20439.604     5501.330       10.870        3.342      388.047       79.654        0.042      337.622        9.717      857.502
06/19/2013  04:55:00     -294.160     -131.417      -27.925      131.601      133.004       62.264    17318.803    17690.076     3876.744        7.173        1.944      322.181       60.253        0.035      337.632        9.733      857.501
06/19/2013  04:56:00     -400.721      -79.398       -3.525      180.520      142.541       79.665    32587.402    20317.832     6346.581       11.306        2.963      408.511       90.654        0.049      337.631        9.731      857.497
06/19/2013  04:57:00     -296.389      -61.474       10.435      149.493      108.464       61.912    22348.295    11764.384     3833.113        6.483        1.897      302.697       65.873        0.047      337.602        9.684      857.509
06/19/2013  04:58:00     -309.495      -11.340       -3.344      167.895      112.387       77.519    28188.689    12630.835     6009.219        7.137        2.341      309.703       82.926        0.072      337.573        9.635      857.521
06/19/2013  04:59:00     -231.604      -39.630       -2.846      161.968      107.677       62.792    26233.762    11594.238     3942.780        4.849        2.089      234.970       77.899        0.110      337.573        9.636      857.513
06/19/2013  05:00:00     -359.939      -66.639      -19.970      143.992      127.121       69.400    20733.830    16159.663     4816.334        8.804        2.085      366.056       69.987        0.037      337.590        9.664      857.507
06/19/2013  05:01:00     -229.600      -93.516       12.354      198.184      130.944       75.864    39276.904    17146.265     5755.347        6.188        3.109      247.914       95.343        0.148      337.605        9.690      857.493
06/19/2013  05:02:00     -280.425      -38.516      -10.097      138.924       93.664       68.582    19299.852     8773.032     4703.443        5.649        1.639      283.058       78.135        0.076      337.565        9.622      857.494
06/19/2013  05:03:00     -346.526      -32.673       -8.846      168.180      127.335       83.034    28284.545    16214.134     6894.630        8.630        2.570      348.063       89.449        0.066      337.571        9.631      857.461
06/19/2013  05:04:00     -206.065      -71.149        5.258      146.533      124.710       59.728    21471.893    15552.584     3567.428        4.406        2.030      218.002       62.402        0.082      337.564        9.621      857.458
06/19/2013  05:05:00     -330.866      -96.357       -2.975      146.629      126.750       77.440    21500.209    16065.450     5996.965        8.116        2.178      344.611       77.741        0.051      337.578        9.643      857.443
06/19/2013  05:06:00     -244.027     -100.346        9.360      166.124      152.483       82.728    27597.053    23251.056     6843.999        6.369        2.885      263.853       82.344        0.097      337.587        9.659      857.432
06/19/2013  05:07:00     -384.177      -47.492      -11.230      173.481      118.066       69.647    30095.557    13939.507     4850.713        9.942        2.444      387.102       75.236        0.038      337.593        9.668      857.461
06/19/2013  05:08:00     -197.760      -78.520       -1.597      171.946      116.295       81.802    29565.257    13524.436     6691.578        4.752        2.489      212.778       82.334        0.150      337.573        9.635      857.443
06/19/2013  05:09:00     -381.755     -103.593      -22.175      149.828      133.548       70.697    22448.342    17835.064     4998.121       10.111        2.264      395.561       65.287        0.027      337.594        9.669      857.438
06/19/2013  05:10:00     -376.671     -155.190      -20.398      221.218      159.164       94.818    48937.323    25333.086     8990.486       12.480        4.163      407.388      104.556        0.066      337.589        9.661      857.424
06/19/2013  05:11:00     -223.387     -118.780       -2.477      161.168      143.391       70.847    25975.210    20561.018     5019.266        5.778        2.578      253.003       74.267        0.086      337.588        9.659      857.421
06/19/2013  05:12:00     -253.192     -130.471       -0.276      120.856      128.637       63.776    14606.176    16547.599     4067.320        5.817        1.761      284.832       57.765        0.041      337.590        9.664      857.388
06/19/2013  05:13:00     -429.791      -45.366      -13.783      240.581      154.950       94.444    57879.357    24009.621     8919.579       13.887        4.540      432.178      102.073        0.056      337.580        9.648      857.383
06/19/2013  05:14:00     -489.045      -87.604      -24.571      218.507      150.501       90.832    47745.398    22650.481     8250.463       16.303        3.932      496.829       98.003        0.039      337.604        9.687      857.419
06/19/2013  05:15:00     -384.281      -85.391      -27.944      145.088      187.061       89.638    21050.563    34991.886     8035.022       10.990        3.204      393.654       78.123        0.039      337.600        9.680      857.427
06/19/2013  05:16:00     -436.663      -75.845      -15.988      246.413      172.613       89.753    60719.461    29795.115     8055.567       14.761        4.929      443.201      106.950        0.058      337.617        9.710      857.445
06/19/2013  05:17:00     -538.754     -251.496      -50.808      286.523      219.726      100.738    82095.628    48279.633    10148.067       24.828        7.026      594.564      127.477        0.046      337.676        9.807      857.437
06/19/2013  05:18:00     -445.711     -138.404      -19.522      223.812      208.165       89.615    50091.985    43332.811     8030.872       15.981        5.073      466.706      102.870        0.049      337.648        9.762      857.473
06/19/2013  05:19:00     -483.553      -94.667      -21.581      178.671      144.852       92.973    31923.425    20981.964     8643.996       15.239        3.077      492.733       97.986        0.040      337.629        9.730      857.487
06/19/2013  05:20:00     -416.371     -198.328      -18.071      207.338      175.965       72.653    42989.149    30963.831     5278.400       14.611        3.962      461.193       67.207        0.021      337.620        9.715      857.495
06/19/2013  05:21:00     -280.626     -116.096        5.938      141.131      147.428       75.876    19917.951    21735.067     5757.094        6.983        2.371      303.692       81.877        0.073      337.602        9.684      857.507
06/19/2013  05:22:00     -279.938     -132.988        3.305      181.616      138.225       77.721    32984.537    19106.182     6040.514        7.709        2.907      309.921       91.420        0.087      337.604        9.687      857.508
06/19/2013  05:23:00     -405.850     -155.598      -10.556      235.978      186.056       91.303    55685.762    34616.946     8336.216       14.382        4.932      434.655      110.989        0.065      337.599        9.681      857.508
06/19/2013  05:24:00     -338.490      -92.564        1.899      215.272      171.507       88.784    46342.115    29414.509     7882.685       10.338        4.182      350.919       92.908        0.070      337.585        9.655      857.528
06/19/2013  05:25:00     -545.402     -113.081      -45.183      231.231      227.064       97.676    53467.957    51558.284     9540.547       21.341        5.728      557.002      116.591        0.044      337.630        9.732      857.528
06/19/2013  05:26:00     -568.825     -210.089      -47.779      232.285      170.016      100.174    53956.435    28905.559    10034.748       23.142        4.645      606.382      114.896        0.036      337.645        9.757      857.549
06/19/2013  05:27:00     -440.850      -18.846      -20.444      220.342      134.508       82.367    48550.644    18092.310     6784.370       13.426        3.671      441.253       97.006        0.048      337.636        9.742      857.596
06/19/2013  05:28:00     -342.655      -74.139       -6.877      156.338      134.463      105.124    24441.513    18080.232    11050.976        8.825        2.679      350.584       99.520        0.081      337.639        9.747      857.639
06/19/2013  05:29:00     -345.998     -111.998      -17.328      148.603      176.757       78.175    22082.807    31243.025     6111.400        9.599        2.972      363.673       80.915        0.050      337.640        9.747      857.668
06/19/2013  05:30:00     -177.019     -107.731       24.457      170.759      124.571       83.398    29158.724    15518.056     6955.245        4.758        2.582      207.224       78.918        0.145      337.639        9.746      857.681
06/19/2013  05:31:00     -185.755     -104.659       -6.454      162.898      125.374       75.487    26535.832    15718.638     5698.236        4.672        2.398      213.210       83.825        0.155      337.658        9.779      857.727
06/19/2013  05:32:00     -352.172     -116.577      -18.659      235.932      153.384       92.628    55664.039    23526.787     8579.966       11.285        4.389      370.965       97.465        0.069      337.668        9.794      857.743
06/19/2013  05:33:00     -396.685     -105.731      -15.081      269.991      209.546       96.073    72895.170    43909.593     9230.011       14.738        6.302      410.534       87.719        0.046      337.667        9.795      857.769
06/19/2013  05:34:00     -275.631      -38.501        6.733      198.702      147.618       86.718    39482.508    21791.199     7520.027        7.313        3.440      278.307      101.175        0.132      337.649        9.762      857.778
06/19/2013  05:35:00     -446.371      -87.757      -15.545      238.245      170.039       97.107    56760.716    28913.408     9429.734       15.113        4.755      454.916      117.310        0.066      337.625        9.722      857.787
06/19/2013  05:36:00     -417.940     -144.293      -35.894      200.652      136.632       79.272    40261.255    18668.410     6284.050       13.098        3.261      442.147       83.167        0.035      337.622        9.718      857.790
06/19/2013  05:37:00     -348.030     -133.436      -14.487      214.733      158.247       87.143    46110.104    25042.056     7593.861       10.893        3.937      372.733       75.272        0.041      337.607        9.691      857.788
06/19/2013  05:38:00     -483.164     -106.342      -43.659      178.568      167.983       71.439    31886.663    28218.263     5103.566       15.592        3.260      494.728       75.720        0.023      337.606        9.690      857.796
06/19/2013  05:39:00     -492.242      -72.969       -9.799      236.328      194.724       97.715    55851.025    37917.350     9548.313       17.550        5.166      497.621      109.538        0.048      337.573        9.635      857.817
06/19/2013  05:40:00     -376.060      -29.843      -15.979      236.290      153.383       83.733    55832.863    23526.434     7011.150       11.445        4.319      377.242       99.010        0.069      337.568        9.625      857.821
06/19/2013  05:41:00     -336.613      -28.520       -8.039      164.936      125.088       71.243    27203.893    15647.105     5075.591        8.105        2.396      337.819       64.456        0.036      337.536        9.570      857.830
06/19/2013  05:42:00     -501.228      -60.893      -24.339      172.737      143.626       87.555    29838.186    20628.518     7665.825       15.682        2.907      504.914       70.738        0.020      337.548        9.591      857.840
06/19/2013  05:43:00     -449.607      -62.078      -16.250      239.963      165.371       89.215    57582.098    27347.500     7959.328       14.956        4.644      453.872       96.610        0.045      337.567        9.625      857.847
06/19/2013  05:44:00     -400.365      -41.088       -8.258      179.178      133.799       78.729    32104.883    17902.140     6198.256       10.912        2.810      402.468       87.050        0.047      337.551        9.595      857.865
06/19/2013  05:45:00     -438.094     -104.458      -20.696      156.463      150.656       78.415    24480.810    22697.144     6148.849       12.829        2.666      450.376       84.247        0.035      337.530        9.562      857.893
06/19/2013  05:46:00     -450.395      -42.920      -28.599      199.600      144.665       88.191    39840.190    20927.948     7777.650       13.702        3.427      452.435       97.843        0.047      337.517        9.540      857.903
06/19/2013  05:47:00     -455.290     -127.326      -35.447      220.568      201.231       79.041    48650.396    40493.904     6247.405       16.006        4.770      472.758       79.355        0.028      337.523        9.550      857.886
06/19/2013  05:48:00     -511.361     -115.505      -21.388      172.400      171.935       85.876    29721.653    29561.571     7374.668       17.096        3.333      524.244       85.806        0.027      337.546        9.589      857.908
06/19/2013  05:49:00     -453.981     -103.161      -14.173      267.561      173.677       99.853    71589.145    30163.531     9970.579       16.431        5.586      465.554      112.184        0.058      337.554        9.601      857.929
06/19/2013  05:50:00     -369.333        9.228      -13.153      198.484      169.455       73.409    39395.892    28714.850     5388.857       10.507        3.675      369.448       71.336        0.037      337.529        9.561      857.939
06/19/2013  05:51:00     -468.960      -90.353      -25.843      198.669      158.448       92.910    39469.563    25105.627     8632.209       15.097        3.660      477.585      100.202        0.044      337.520        9.546      857.925
06/19/2013  05:52:00     -364.503     -107.143      -17.279      180.163      118.471       62.354    32458.607    14035.290     3887.963        9.750        2.519      379.924       77.366        0.041      337.494        9.503      857.946
06/19/2013  05:53:00     -315.998     -100.322      -11.763      130.617      106.512       68.043    17060.851    11344.712     4629.849        7.154        1.652      331.540       68.758        0.043      337.452        9.431      857.961
06/19/2013  05:54:00     -311.298     -126.655        4.947      207.620      114.135       73.401    43106.129    13026.780     5387.637        8.723        3.076      336.077       79.733        0.056      337.421        9.379      857.957
06/19/2013  05:55:00     -442.196      -61.969      -16.993      172.094      130.751       77.187    29616.188    17095.929     5957.821       12.616        2.633      446.517       62.160        0.019      337.403        9.351      857.977
06/19/2013  05:56:00     -391.154     -101.505       -1.383      203.010      141.991       83.844    41213.173    20161.544     7029.894       11.584        3.420      404.110       99.577        0.061      337.412        9.366      857.998
06/19/2013  05:57:00     -528.875      -94.017      -33.518      212.327      186.729       98.176    45082.844    34867.887     9638.506       18.961        4.479      537.166      101.150        0.035      337.427        9.390      857.991
06/19/2013  05:58:00     -338.318      -17.730      -11.960      168.705      133.037       75.682    28461.437    17698.938     5727.697        8.339        2.594      338.782       76.821        0.051      337.403        9.352      857.997
06/19/2013  05:59:00     -333.611      -41.846       -6.719      191.908      134.803       67.444    36828.691    18171.825     4548.756        8.631        2.977      336.225       82.869        0.061      337.410        9.363      858.026
06/19/2013  06:00:00     -362.028      -90.663       -8.346      196.813      177.167       84.953    38735.554    31388.128     7216.942       10.833        3.867      373.208       88.873        0.057      337.402        9.349      858.013
06/19/2013  06:01:00     -450.082      -29.672      -25.230      195.848      160.926       81.932    38356.363    25897.102     6712.795       13.751        3.548      451.059       96.881        0.046      337.405        9.355      858.023
06/19/2013  06:02:00     -310.927      -62.503        0.043      190.833      115.963       66.159    36417.305    13447.307     4376.992        7.740        2.712      317.147       72.509        0.052      337.410        9.362      858.028
06/19/2013  06:03:00     -463.664     -106.227      -21.437      248.322      178.583       90.956    61663.893    31891.830     8272.990       16.426        5.091      475.677      101.585        0.046      337.414        9.367      858.036
06/19/2013  06:04:00     -408.668      -79.559      -10.135      257.049      141.223       85.532    66074.224    19943.995     7315.794       13.337        4.667      416.340       95.334        0.052      337.393        9.334      858.005
06/19/2013  06:05:00     -346.478      -56.070      -17.978      199.649      111.698       66.787    39859.668    12476.464     4460.490        9.014        2.840      350.986       76.124        0.047      337.407        9.357      858.044
06/19/2013  06:06:00     -302.801      -56.190       -9.697      197.960      152.812       85.154    39187.995    23351.607     7251.214        8.235        3.490      307.970      109.317        0.126      337.407        9.356      858.036
06/19/2013  06:07:00     -510.954       14.990      -30.659      158.253      117.858       75.199    25044.138    13890.561     5654.951       15.340        2.229      511.173       79.040        0.024      337.379        9.309      858.050
06/19/2013  06:08:00     -439.929      -82.802      -16.666      213.191      121.079       83.935    45450.405    14660.159     7045.009       13.390        3.358      447.653      100.372        0.050      337.379        9.310      858.059
06/19/2013  06:09:00     -360.275      -45.611      -15.768      141.580      138.564       69.111    20044.975    19199.918     4776.263        8.807        2.201      363.150       73.494        0.041      337.358        9.275      858.084
06/19/2013  06:10:00     -365.709      -35.880      -16.873      195.684      168.155       83.678    38292.169    28275.945     7001.981       10.443        3.679      367.465       91.725        0.062      337.395        9.338      858.084
06/19/2013  06:11:00     -534.521      -21.083      -40.409      231.282      160.013       84.736    53491.158    25604.091     7180.208       18.702        4.314      534.937      103.811        0.038      337.389        9.327      858.109
06/19/2013  06:12:00     -421.937     -145.328      -26.839      185.663      156.611       83.500    34470.784    24526.986     6972.203       13.291        3.298      446.263       84.094        0.036      337.388        9.326      858.104
06/19/2013  06:13:00     -294.859      -30.476        2.106      235.742      143.761       98.757    55574.257    20667.316     9752.981        8.692        4.300      296.430      108.958        0.135      337.445        9.422      858.131
06/19/2013  06:14:00     -338.491     -100.164      -12.477      160.647      152.040       80.111    25807.415    23116.249     6417.847        9.004        2.767      353.000       78.937        0.050      337.449        9.427      858.156
06/19/2013  06:15:00     -323.872     -112.745       -3.669      150.627      120.980       71.047    22688.502    14636.131     5047.714        7.999        2.119      342.935       75.482        0.048      337.481        9.480      858.151
06/19/2013  06:16:00     -370.789      -86.124      -34.520      191.583      135.797       73.742    36703.871    18440.694     5437.822       10.333        3.029      380.660       79.225        0.043      337.503        9.518      858.179
06/19/2013  06:17:00     -260.514      -69.268       -5.764      157.050      130.160       82.825    24664.589    16941.528     6860.017        6.057        2.423      269.565       88.506        0.108      337.558        9.611      858.169
06/19/2013  06:18:00     -306.634      -83.529        2.657      198.584      129.423       75.226    39435.794    16750.371     5658.991        8.141        3.092      317.808       85.751        0.073      337.557        9.608      858.165
06/19/2013  06:19:00     -399.716     -130.097      -26.486      160.090      169.219       80.233    25628.825    28635.184     6437.265       11.904        3.035      420.355       83.766        0.040      337.531        9.563      858.192
06/19/2013  06:20:00     -476.225      -93.162      -27.100      171.906      166.279       84.219    29551.608    27648.724     7092.830       15.024        3.215      485.251       56.507        0.014      337.543        9.583      858.199
06/19/2013  06:21:00     -555.606     -189.462      -20.933      225.071      144.853       83.536    50657.166    20982.312     6978.188       21.181        3.931      587.021       95.995        0.027      337.602        9.682      858.223
06/19/2013  06:22:00     -287.294      -63.190        1.339      146.629      138.013       78.405    21500.052    19047.457     6147.324        6.660        2.335      294.161       79.947        0.074      337.616        9.707      858.270
06/19/2013  06:23:00     -371.284      -31.012      -14.781      138.088       99.597       67.140    19068.239     9919.479     4507.846        8.626        1.675      372.577       74.443        0.040      337.600        9.681      858.298
06/19/2013  06:24:00     -287.551      -37.950       -8.004      126.556      105.374       62.498    16016.492    11103.736     3906.051        5.760        1.551      290.045       64.838        0.050      337.600        9.680      858.325
06/19/2013  06:25:00     -440.782      -69.369      -12.606      172.352      133.683       75.778    29705.142    17871.084     5742.371       12.628        2.666      446.207       89.086        0.040      337.590        9.663      858.331
06/19/2013  06:26:00     -331.159      -81.977       -6.888      204.987      117.782       80.825    42019.679    13872.618     6532.633        8.942        3.121      341.154       86.461        0.064      337.603        9.686      858.338
06/19/2013  06:27:00     -362.277     -132.645      -18.006      151.412      104.823       69.154    22925.608    10987.962     4782.298        9.392        1.935      385.798       73.673        0.036      337.608        9.694      858.346
06/19/2013  06:28:00     -419.327        4.678      -27.601      148.251      150.574       72.862    21978.460    22672.550     5308.811       11.328        2.498      419.354       74.593        0.032      337.601        9.682      858.344
06/19/2013  06:29:00     -414.346      -64.322      -33.139      121.291      124.367       63.947    14711.469    15467.195     4089.191       10.559        1.713      419.309       64.205        0.023      337.618        9.710      858.345
06/19/2013  06:30:00     -315.834       13.494       -3.221      130.319      121.746       73.083    16982.998    14822.106     5341.107        6.854        1.857      316.122       72.678        0.053      337.607        9.691      858.345
06/19/2013  06:31:00     -573.140      -38.356      -39.121      152.967      162.883       82.460    23398.765    26530.794     6799.690       19.410        2.836      574.422       81.021        0.020      337.560        9.611      858.347
06/19/2013  06:32:00     -526.730      -63.486      -22.657      186.927      123.282       79.684    34941.773    15198.511     6349.502       16.923        2.824      530.542       95.805        0.033      337.565        9.622      858.338
06/19/2013  06:33:00     -458.817      -94.407      -17.335      161.933      132.645       79.493    26222.371    17594.819     6319.060       13.492        2.507      468.429       85.190        0.033      337.617        9.709      858.347
06/19/2013  06:34:00     -393.397      -83.646      -10.598      164.450      138.850       77.091    27043.675    19279.369     5942.955       10.706        2.613      402.191       80.561        0.040      337.653        9.770      858.367
06/19/2013  06:35:00     -364.718      -59.309        0.044      228.701      147.295       85.614    52304.247    21695.796     7329.699       10.892        4.066      369.509      105.486        0.081      337.613        9.702      858.344
06/19/2013  06:36:00     -472.776      -55.434      -22.171      144.229      115.809       68.749    20802.006    13411.647     4726.463       13.300        1.947      476.015       75.932        0.025      337.621        9.716      858.332
06/19/2013  06:37:00     -344.113      -39.805      -21.494      179.067      121.949       73.797    32064.969    14871.461     5446.030        8.641        2.619      346.408       81.227        0.055      337.655        9.774      858.347
06/19/2013  06:38:00     -285.823      -39.936        1.379      133.808      114.775       64.444    17904.546    13173.297     4153.015        5.925        1.762      288.600       67.617        0.055      337.689        9.832      858.360
06/19/2013  06:39:00     -270.889     -122.373       17.477      205.502      132.677       90.406    42231.188    17603.110     8173.291        7.832        3.400      297.247      109.328        0.135      337.735        9.907      858.352
06/19/2013  06:40:00     -488.154     -100.407      -36.635      149.962      138.005       73.928    22488.740    19045.512     5465.352       14.835        2.350      498.373       73.760        0.022      337.691        9.833      858.358
06/19/2013  06:41:00     -291.545     -100.014        0.420      258.710      116.398       72.475    66930.658    13548.432     5252.625        9.035        4.287      308.223      105.238        0.117      337.725        9.891      858.356
06/19/2013  06:42:00     -475.228      -43.967      -29.886      219.234      116.846       67.967    48063.712    13652.974     4619.469       14.749        3.317      477.258       77.699        0.027      337.668        9.794      858.359
06/19/2013  06:43:00     -372.941      -76.075      -22.681      159.534      119.050       80.678    25451.106    14172.910     6508.872        9.575        2.307      380.621       87.658        0.053      337.737        9.912      858.344
06/19/2013  06:44:00     -309.542     -179.813       -5.667      174.282      151.358       72.429    30374.382    22909.131     5245.947        9.334        2.926      357.979       81.993        0.052      337.766        9.959      858.305
06/19/2013  06:45:00     -217.302     -172.341      -14.467      189.410      122.040       66.971    35876.050    14893.657     4485.170        6.618        2.763      277.348       66.941        0.058      337.831       10.067      858.288
06/19/2013  06:46:00     -150.313     -115.109        8.091      153.091      101.589       72.377    23436.873    10320.406     5238.457        3.744        1.950      189.326       70.230        0.138      337.891       10.169      858.279
06/19/2013  06:47:00     -355.098     -119.837      -14.632      239.605      162.346       82.180    57410.704    26356.333     6753.606       11.558        4.526      374.774      104.389        0.078      337.810       10.032      858.264
06/19/2013  06:48:00     -323.018     -230.289      -10.452      200.399      151.020       88.781    40159.885    22807.126     7882.076       11.415        3.542      396.703       92.347        0.054      337.788        9.995      858.237
06/19/2013  06:49:00     -482.413     -192.221      -25.536      249.522      176.078      101.081    62261.248    31003.521    10217.414       18.688        5.174      519.299      124.750        0.058      337.794       10.005      858.213
06/19/2013  06:50:00     -334.828      -93.576       -3.335      210.931      166.447       84.103    44492.017    27704.653     7073.231       10.006        3.963      347.659       89.880        0.067      337.863       10.121      858.210
06/19/2013  06:51:00     -496.435      -62.273      -18.327      214.440      135.341       84.373    45984.645    18317.085     7118.791       16.103        3.571      500.325       79.237        0.025      337.827       10.061      858.212
06/19/2013  06:52:00     -391.469     -146.462      -10.673      223.538      162.234       75.404    49969.306    26319.900     5685.779       12.838        4.099      417.970       88.680        0.045      337.887       10.161      858.203
06/19/2013  06:53:00     -388.724     -218.901      -18.774      218.795      157.681      105.276    47871.304    24863.211    11083.103       14.158        4.191      446.121      105.464        0.056      337.866       10.125      858.199
06/19/2013  06:54:00     -295.109     -174.371       -2.283      189.612      186.589       96.250    35952.886    34815.278     9264.014        9.875        4.002      342.775      104.589        0.093      337.890       10.165      858.194
06/19/2013  06:55:00     -494.262     -129.041      -12.068      234.433      205.624       94.716    54958.681    42281.362     8971.037       18.363        5.311      510.830      116.333        0.052      337.845       10.090      858.202
06/19/2013  06:56:00     -253.561     -223.028       -3.587      197.420      147.516       91.007    38974.707    21760.951     8282.278        9.152        3.451      337.690       92.171        0.074      337.935       10.241      858.215
06/19/2013  06:57:00     -285.547     -157.628       -7.725      170.756      126.975       72.329    29157.551    16122.712     5231.442        7.847        2.526      326.166       49.597        0.023      337.961       10.286      858.229
06/19/2013  06:58:00     -232.944     -138.973        2.880      193.039      121.868       66.503    37264.039    14851.770     4422.628        6.505        2.827      271.250       86.772        0.102      337.992       10.339      858.273
06/19/2013  06:59:00     -206.135      -90.747        5.824      145.322      124.014       47.368    21118.473    15379.563     2243.759        4.474        1.937      225.226       37.933        0.028      337.956       10.279      858.290
06/19/2013  07:00:00     -376.103     -127.662      -26.070      149.103      139.605       80.328    22231.836    19489.615     6452.574       10.329        2.409      397.179       77.862        0.038      337.910       10.199      858.291
06/19/2013  07:01:00     -269.961     -165.689       -2.331      130.594      178.428       72.346    17054.718    31836.521     5233.873        7.722        2.706      316.752       61.768        0.038      337.948       10.262      858.310
06/19/2013  07:02:00     -348.786     -109.773      -25.333      138.835      144.730       72.518    19275.022    20946.767     5258.848        8.990        2.274      365.652       75.039        0.042      337.918       10.212      858.324
06/19/2013  07:03:00     -511.285     -147.983      -21.318      178.878      136.185       80.257    31997.303    18546.296     6441.136       17.036        2.849      532.270       78.698        0.022      337.903       10.187      858.350
06/19/2013  07:04:00     -349.933      -28.821       -8.572      138.831      115.319       56.438    19274.115    13298.395     3185.244        7.955        1.788      351.118       52.146        0.022      337.948       10.263      858.369
06/19/2013  07:05:00     -334.615      -90.152      -22.194      114.622      109.050       57.773    13138.285    11891.974     3337.714        7.447        1.418      346.547       45.238        0.017      338.005       10.360      858.392
06/19/2013  07:06:00     -303.384      -39.087       -2.305      152.198      122.995       69.794    23164.209    15127.747     4871.164        6.836        2.158      305.892       62.194        0.041      338.068       10.466      858.422
06/19/2013  07:07:00      -43.979      -40.643       31.524       93.728       83.708       52.393     8784.984     7006.953     2745.022        1.155        0.927       59.883       56.005        0.875      338.253       10.778      858.445
06/19/2013  07:08:00     -322.828      -43.563      -15.389      164.432      174.307       68.620    27037.882    30382.958     4708.659        8.423        3.106      325.754       69.423        0.045      338.149       10.601      858.468
06/19/2013  07:09:00     -236.340      -28.902      -10.886      142.874      151.703       67.829    20412.963    23013.813     4600.808        5.241        2.401      238.101       65.017        0.075      338.155       10.611      858.470
06/19/2013  07:10:00     -333.929       25.554      -24.396      179.746      151.177       61.964    32308.791    22854.568     3839.541        8.587        2.950      334.906       76.174        0.052      338.128       10.566      858.509
06/19/2013  07:11:00     -473.125      -37.644      -20.793      170.818      130.517       71.590    29178.732    17034.698     5125.080       13.851        2.567      474.621       69.479        0.021      338.007       10.362      858.495
06/19/2013  07:12:00     -363.701      -62.581      -38.081      144.393      185.932       76.465    20849.456    34570.558     5846.892        9.944        3.063      369.046       91.716        0.062      338.075       10.478      858.514
06/19/2013  07:13:00     -228.652      -95.958       -4.595      123.171      125.044       64.809    15170.984    15635.985     4200.155        4.825        1.750      247.971       69.127        0.078      338.197       10.680      858.518
06/19/2013  07:14:00     -256.667     -117.696        5.001      201.762      115.803       72.702    40708.047    13410.290     5285.620        6.957        2.970      282.366       84.344        0.089      338.219       10.719      858.531
06/19/2013  07:15:00     -313.323     -135.953      -10.347      190.700      135.524       79.736    36366.622    18366.727     6357.900        8.891        3.055      341.547       66.451        0.038      338.166       10.628      858.545
06/19/2013  07:16:00     -279.127      -72.084      -12.276      190.554      172.737       72.996    36310.687    29837.917     5328.388        7.735        3.574      288.284       82.454        0.082      338.245       10.763      858.564
06/19/2013  07:17:00     -326.707       37.770      -16.468      189.946      115.058       79.425    36079.488    13238.267     6308.359        8.202        2.781      328.883       85.473        0.068      338.234       10.742      858.562
06/19/2013  07:18:00     -447.791     -151.862      -29.240      174.539      136.261       77.996    30463.744    18566.927     6083.377       13.976        2.756      472.841       84.979        0.032      338.239       10.753      858.564
06/19/2013  07:19:00     -196.179      -53.447      -10.040      131.455      101.466       55.578    17280.449    10295.257     3088.962        3.605        1.533      203.329       66.101        0.106      338.332       10.909      858.593
06/19/2013  07:20:00     -294.032      -28.501       -0.566      171.284      150.615       65.889    29338.159    22684.985     4341.404        7.180        2.818      295.410       71.873        0.059      338.296       10.849      858.588
06/19/2013  07:21:00     -503.248     -110.906      -12.131      213.612      146.415       79.815    45630.134    21437.390     6370.477       16.956        3.672      515.324       81.435        0.025      338.194       10.677      858.614
06/19/2013  07:22:00     -424.001     -160.169      -20.046      186.028      147.380       80.564    34606.347    21720.829     6490.595       13.431        3.141      453.245       75.405        0.028      338.194       10.676      858.648
06/19/2013  07:23:00     -493.082       69.534      -36.260      204.322      122.474       65.482    41747.294    14999.952     4287.865       15.514        3.052      497.960       75.720        0.023      338.207       10.698      858.679
06/19/2013  07:24:00     -403.170       21.932      -37.201      150.165      104.049       61.928    22549.624    10826.189     3835.103       10.080        1.861      403.766       61.102        0.023      338.221       10.721      858.688
06/19/2013  07:25:00     -409.583      -20.335      -34.418      186.086      127.077       73.339    34628.121    16148.462     5378.604       11.274        2.808      410.087       79.102        0.037      338.276       10.815      858.705
06/19/2013  07:26:00     -403.711     -101.878      -12.563      175.884      143.112       83.045    30935.285    20481.159     6896.467       11.590        2.916      416.367       74.714        0.032      338.277       10.817      858.734
06/19/2013  07:27:00     -279.302      -79.875        0.886      154.042      131.466       82.099    23729.072    17283.362     6740.307        6.606        2.388      290.499       80.603        0.077      338.361       10.957      858.760
06/19/2013  07:28:00     -398.253      -65.299       -8.520      194.580      110.852       67.207    37861.442    12288.212     4516.745       10.879        2.733      403.571       63.219        0.025      338.321       10.890      858.776
06/19/2013  07:29:00     -489.691     -117.094      -25.092      205.039      143.417       85.974    42040.848    20568.363     7391.493       16.206        3.500      503.496      101.957        0.041      338.232       10.740      858.762
06/19/2013  07:30:00     -326.311     -141.183       -3.998      165.137      131.378       86.418    27270.326    17260.303     7468.030        8.920        2.600      355.543       89.265        0.063      338.371       10.974      858.754
06/19/2013  07:31:00     -409.416      -50.484      -17.083      172.114      137.948       69.376    29623.209    19029.652     4812.984       11.195        2.673      412.516       82.752        0.040      338.274       10.813      858.772
06/19/2013  07:32:00     -233.597      -63.408      -14.807      108.002       77.812       43.167    11664.394     6054.647     1863.355        3.919        0.979      242.049       47.051        0.038      338.419       11.054      858.773
06/19/2013  07:33:00     -187.387      -26.104        0.740       93.947      103.807       59.934     8825.984    10775.925     3592.082        2.949        1.160      189.196       35.575        0.035      338.434       11.079      858.790
06/19/2013  07:34:00     -356.678      -42.480       -8.554      174.103      127.994       60.571    30311.836    16382.581     3668.788        8.972        2.518      359.198       60.555        0.028      338.419       11.054      858.800
06/19/2013  07:35:00     -236.128      -91.386        3.969      149.534      119.444       59.185    22360.527    14266.872     3502.891        5.212        2.007      253.196       70.514        0.078      338.473       11.146      858.807
06/19/2013  07:36:00      -92.722      -30.962       30.697      111.700       79.580       56.498    12476.931     6332.955     3192.068        1.625        1.100       97.755       61.845        0.400      338.578       11.324      858.812
06/19/2013  07:37:00     -288.601      -35.055      -22.935      130.474       64.211       46.711    17023.409     4123.048     2181.904        5.418        1.166      290.722       52.943        0.033      338.457       11.118      858.847
06/19/2013  07:38:00     -273.120      -86.234      -18.739      168.419      125.090       66.804    28364.941    15647.579     4462.792        6.542        2.424      286.410       77.760        0.074      338.512       11.210      858.873
06/19/2013  07:39:00     -418.484     -175.127      -30.096      204.957      194.098       74.054    42007.440    37674.086     5484.053       14.592        4.258      453.650       82.552        0.033      338.372       10.975      858.925
06/19/2013  07:40:00     -358.918     -122.776      -17.009      163.097      152.130       78.306    26600.792    23143.677     6131.769       10.002        2.794      379.336       78.103        0.042      338.443       11.095      858.921
06/19/2013  07:41:00     -232.886      -37.848       -6.611      152.364      113.408       50.973    23214.691    12861.427     2598.288        4.719        1.934      235.941       59.221        0.063      338.481       11.158      858.969
06/19/2013  07:42:00     -402.637       74.974      -37.493      126.641      122.084       64.011    16038.043    14904.605     4097.440       10.208        1.752      409.558       58.968        0.021      338.411       11.040      859.002
06/19/2013  07:43:00     -239.576      -39.621        1.602      168.089      146.068       73.839    28253.931    21335.937     5452.146        5.699        2.752      242.830       80.353        0.109      338.483       11.164      858.973
06/19/2013  07:44:00     -365.966      -11.651      -26.586      216.872      160.917      101.523    47033.666    25894.274    10306.948       10.899        4.162      366.152       81.600        0.050      338.439       11.086      858.983
06/19/2013  07:45:00     -296.116     -107.820      -33.727      176.418      108.522       74.185    31123.361    11776.972     5503.452        7.442        2.420      315.134       60.643        0.037      338.355       10.947      859.054
06/19/2013  07:46:00     -240.824        3.902        1.520      101.243       95.407       46.752    10250.218     9102.574     2185.744        3.977        1.077      240.855       43.460        0.033      338.404       11.029      859.041
06/19/2013  07:47:00     -211.078      -41.167       -5.529      209.183      132.683       74.588    43757.653    17604.773     5563.403        5.659        3.346      215.055       87.334        0.165      338.595       11.351      859.049
06/19/2013  07:48:00      -99.856       17.330       -8.744      124.371       80.579       52.440    15468.088     6492.974     2749.976        1.752        1.236      101.349       57.600        0.323      338.605       11.369      859.081
06/19/2013  07:49:00     -255.891      -11.974      -29.412      123.338       86.603       55.064    15212.166     7500.127     3032.089        4.611        1.287      256.171       54.736        0.046      338.485       11.165      859.099
06/19/2013  07:50:00     -323.797       15.117      -31.593      297.530      144.815       70.972    88523.851    20971.355     5037.074       11.028        5.727      324.150       95.547        0.087      338.561       11.293      859.088
06/19/2013  07:51:00     -365.306       42.177      -30.522      153.773      152.601       54.625    23645.998    23287.137     2983.927        9.303        2.496      367.732       41.053        0.012      338.537       11.253      859.087
06/19/2013  07:52:00     -406.018       -9.159      -29.520      212.187      117.557       67.663    45023.333    13819.722     4578.279       11.460        3.171      406.121       74.630        0.034      338.467       11.134      859.136
06/19/2013  07:53:00     -463.350     -171.369      -20.013      154.710      123.210       79.116    23935.305    15180.598     6259.267       14.491        2.269      494.025       88.823        0.032      338.634       11.416      859.116
06/19/2013  07:54:00     -240.662      -43.289      -23.197      116.219      103.373       51.799    13506.791    10685.947     2683.184        4.360        1.344      244.525       54.073        0.049      338.813       11.717      859.153
06/19/2013  07:55:00     -241.874       35.156      -13.735      114.865       87.772       63.580    13193.887     7703.887     4042.376        4.243        1.247      244.416       65.663        0.072      338.678       11.490      859.168
06/19/2013  07:56:00     -242.875      -82.351        2.256      131.585      102.051       53.345    17314.550    10414.496     2845.730        4.817        1.529      256.456       61.143        0.057      338.699       11.525      859.181
06/19/2013  07:57:00     -367.073      -27.170      -32.352      208.637      127.894       70.528    43529.479    16356.891     4974.265       10.068        3.243      368.077       89.104        0.059      338.470       11.140      859.200
06/19/2013  07:58:00     -404.850      -33.835      -42.951      281.377      127.101       69.488    79173.255    16154.654     4828.650       13.350        5.008      406.261      118.200        0.085      338.532       11.245      859.233
06/19/2013  07:59:00     -230.969        0.497      -34.338      167.313      142.577       65.692    27993.500    20328.186     4315.397        5.357        2.632      230.969       63.931        0.077      338.611       11.378      859.203
06/19/2013  08:00:00     -153.746       54.903      -13.056      136.393       91.339       60.565    18603.089     8342.855     3668.130        2.871        1.531      163.255       55.979        0.118      338.840       11.764      859.237
06/19/2013  08:01:00     -366.410       19.379      -31.850      143.235       79.640       58.233    20516.385     6342.514     3391.120        8.294        1.513      366.922       68.947        0.035      338.512       11.210      859.283
06/19/2013  08:02:00     -237.454     -107.279       -5.761      178.501      121.727       67.988    31862.504    14817.544     4622.426        5.960        2.565      260.563       72.296        0.077      338.643       11.431      859.324
06/19/2013  08:03:00     -255.170      -98.120      -12.702      152.094       92.943       52.942    23132.511     8638.449     2802.848        5.473        1.729      273.384       70.024        0.066      338.537       11.252      859.364
06/19/2013  08:04:00     -186.219      -14.079      -28.539      129.903       95.906       53.206    16874.686     9197.906     2830.836        3.229        1.445      186.750       67.831        0.132      338.594       11.349      859.348
06/19/2013  08:05:00     -154.168      -85.021        2.045      142.810      104.970       67.955    20394.688    11018.682     4617.940        3.351        1.802      176.058       71.083        0.163      338.813       11.718      859.335
06/19/2013  08:06:00     -170.271       10.158       -0.432      141.005      119.002       73.754    19882.419    14161.384     5439.709        3.428        1.974      170.574       53.111        0.097      338.851       11.783      859.323
06/19/2013  08:07:00      -98.558       38.641       -5.398      127.911       71.378       55.306    16361.300     5094.853     3058.731        1.787        1.226      105.862       66.291        0.392      339.035       12.092      859.342
06/19/2013  08:08:00     -137.958        0.441        0.940      154.118       62.837       50.206    23752.505     3948.545     2520.600        2.462        1.511      137.959       58.810        0.182      339.052       12.121      859.357
06/19/2013  08:09:00     -317.645      -36.642       -5.263      166.164      132.594       81.379    27610.329    17581.069     6622.572        7.703        2.591      319.751       85.694        0.072      338.839       11.760      859.364
06/19/2013  08:10:00     -558.211      -76.493      -44.811      136.315      151.347       60.901    18581.825    22906.011     3708.983       18.232        2.260      563.427       57.054        0.010      338.769       11.642      859.391
06/19/2013  08:11:00     -304.189        3.782      -12.938      106.863       74.751       51.510    11419.602     5587.754     2653.235        5.618        0.983      304.213       46.868        0.024      338.596       11.351      859.464
06/19/2013  08:12:00      -86.497      -82.099        5.968      107.961       69.349       43.230    11655.588     4809.270     1868.846        1.629        0.917      119.256       47.907        0.161      338.752       11.616      859.431
06/19/2013  08:13:00      -84.647      -41.286        3.518       62.165       35.974       28.719     3864.431     1294.117      824.758        0.743        0.299       94.178       27.203        0.083      338.838       11.762      859.454
06/19/2013  08:14:00      -10.308       44.200        2.359      109.170       68.626       48.744    11918.146     4709.530     2376.000        1.053        0.950       45.386       35.894        0.625      339.280       12.506      859.441
06/19/2013  08:15:00      -74.697     -103.814       -4.790       98.608      163.520       64.686     9723.568    26738.768     4184.321        2.851        2.032      127.895       54.514        0.182      338.795       11.688      859.458
06/19/2013  08:16:00     -192.238      -80.677      -11.550       82.653       87.099       45.721     6831.557     7586.215     2090.422        3.005        0.825      208.481       39.198        0.035      338.766       11.638      859.477
06/19/2013  08:17:00      -65.526      -74.523       -5.216      116.950      104.909       49.872    13677.382    11005.875     2487.258        1.852        1.359       99.234       63.980        0.416      339.398       12.705      859.487
06/19/2013  08:18:00     -200.929      -59.983       -6.144      125.913       99.801       52.277    15854.132     9960.170     2732.914        3.627        1.427      209.692       53.697        0.066      338.993       12.020      859.497
06/19/2013  08:19:00       -0.566        5.970       37.353       65.321       67.472       34.428     4266.797     4552.430     1185.258        0.572        0.500        5.997       15.068        6.314      339.421       12.743      859.481
06/19/2013  08:20:00      -28.437      -27.256        6.622       65.890       71.189       36.373     4341.435     5067.916     1322.972        0.616        0.537       39.390       20.436        0.269      339.288       12.518      859.494
06/19/2013  08:21:00      -91.433       10.312       -7.404       33.691       43.594       25.067     1135.116     1900.480      628.350        0.609        0.183       92.012       13.285        0.021      339.012       12.054      859.502
06/19/2013  08:22:00      -92.175       27.047       -5.632       74.194       63.665       25.708     5504.819     4053.185      660.927        0.974        0.511       96.061       24.492        0.065      339.120       12.237      859.505
06/19/2013  08:23:00      -52.202      -50.729       15.934       30.019       43.804       24.875      901.119     1918.771      618.760        0.449        0.172       72.791       21.812        0.090      339.189       12.353      859.509
06/19/2013  08:24:00     -139.812     -139.533        1.827       87.671       95.804       38.496     7686.256     9178.345     1481.943        2.868        0.917      197.527       37.577        0.036      338.996       12.026      859.523
06/19/2013  08:25:00      -69.166     -224.308       12.424      143.009      126.917       68.804    20451.434    16107.817     4733.947        4.826        2.065      234.729       70.811        0.091      338.965       11.973      859.513
06/19/2013  08:26:00      -73.190      -65.992       19.127       99.351       92.463       46.316     9870.667     8549.349     2145.187        1.532        1.028       98.548       49.132        0.249      339.080       12.168      859.542
06/19/2013  08:27:00      -42.763       27.482       10.298       50.931       44.001       28.433     2593.946     1936.050      808.440        0.401        0.267       50.833       31.454        0.383      339.449       12.791      859.561
06/19/2013  08:28:00      -52.645       -1.932       -0.222       25.603       37.136       17.791      655.497     1379.068      316.503        0.256        0.118       52.680       10.876        0.043      339.080       12.168      859.558
06/19/2013  08:29:00      -74.275      -97.430       18.368      105.467       73.582       56.185    11123.253     5414.275     3156.711        1.752        0.985      122.513       52.168        0.181      339.166       12.313      859.583
06/19/2013  08:30:00      -51.244      -72.150       -0.660       33.879       45.962       21.010     1147.814     2112.519      441.411        0.577        0.185       88.496       18.525        0.044      338.671       11.481      859.563
06/19/2013  08:31:00      -71.055      -28.996       -2.932       36.786       43.598       20.304     1353.186     1900.774      412.267        0.478        0.183       76.744       17.060        0.049      338.700       11.530      859.556
06/19/2013  08:32:00      -57.193        9.538        5.166       55.851       43.804       27.274     3119.351     1918.755      743.876        0.458        0.289       57.983       30.011        0.268      339.119       12.234      859.570
06/19/2013  08:33:00      -48.456       27.613       12.520       72.963       29.646       28.349     5323.621      878.890      803.689        0.514        0.350       55.771       40.022        0.515      339.287       12.518      859.571
06/19/2013  08:34:00      -13.810       65.376        1.093       33.446       58.773       32.662     1118.646     3454.222     1066.830        0.505        0.282       66.819       36.460        0.298      339.607       13.056      859.547
06/19/2013  08:35:00     -146.123      -23.880       -4.706       84.636       66.262       40.792     7163.218     4390.602     1663.988        1.758        0.661      148.061       35.084        0.056      338.899       11.863      859.560
06/19/2013  08:36:00     -108.515      -33.537        0.853       56.906       36.145       31.282     3238.306     1306.467      978.533        0.921        0.276      113.579       30.240        0.071      339.029       12.083      859.588
06/19/2013  08:37:00      -88.648     -134.076      -16.498       55.199       58.258       48.342     3046.931     3393.976     2336.923        1.744        0.439      160.733       33.115        0.042      339.041       12.103      859.589
06/19/2013  08:38:00      -69.711     -167.976      -13.840       53.382       56.203       24.239     2849.617     3158.820      587.520        1.993        0.330      181.866       22.107        0.015      338.850       11.778      859.580
06/19/2013  08:39:00      -65.328      -96.483        2.044       41.466       54.861       29.719     1719.451     3009.689      883.232        0.960        0.281      116.519       28.033        0.058      339.185       12.345      859.570
06/19/2013  08:40:00      -36.394     -135.512       -7.559       70.641       81.389       34.356     4990.156     6624.231     1180.319        1.627        0.640      140.314       38.792        0.076      339.237       12.431      859.583
06/19/2013  08:41:00     -138.167     -112.045      -18.110       68.657       87.739       40.471     4713.829     7698.186     1637.908        2.301        0.702      177.888       35.353        0.039      339.190       12.353      859.602
06/19/2013  08:42:00     -218.041      -52.293      -30.602       83.982       60.869       41.945     7052.915     3705.054     1759.349        3.186        0.626      224.224       31.248        0.019      339.038       12.095      859.615
06/19/2013  08:43:00      -89.752     -124.053        4.329       94.545      103.238       48.961     8938.744    10658.076     2397.216        2.272        1.100      153.116       37.022        0.058      339.315       12.562      859.608
06/19/2013  08:44:00     -254.328     -135.218        2.822      119.869       76.517       51.008    14368.687     5854.882     2601.797        5.290        1.141      288.039       53.239        0.034      339.104       12.206      859.613
06/19/2013  08:45:00     -226.750     -124.751      -14.267      111.120       75.860       51.080    12347.558     5754.686     2609.213        4.394        1.036      258.802       45.942        0.032      339.319       12.568      859.622
06/19/2013  08:46:00     -256.262     -191.148       -7.148      168.420      118.765       67.305    28365.129    14105.153     4529.912        7.462        2.350      319.700       76.602        0.057      339.329       12.584      859.649
06/19/2013  08:47:00     -255.730      -10.235       -6.469      117.700       88.732       47.757    13853.185     7873.424     2280.693        4.477        1.200      255.935       44.718        0.031      339.278       12.498      859.691
06/19/2013  08:48:00     -181.166       13.202      -14.789       91.597      114.245       50.762     8389.959    13051.863     2576.746        2.861        1.201      181.646       38.653        0.045      339.114       12.223      859.677
06/19/2013  08:49:00     -283.582     -136.800      -10.794      105.318       85.678       47.602    11091.888     7340.691     2265.918        5.997        1.035      314.854       31.929        0.010      338.892       11.849      859.658
06/19/2013  08:50:00      -71.766      -29.956       12.975       89.043       78.199       44.505     7928.733     6115.009     1980.664        1.112        0.801       77.767       48.478        0.389      339.496       12.871      859.668
06/19/2013  08:51:00        9.305       23.402       17.194       66.254       27.805       36.818     4389.559      773.093     1355.566        0.372        0.326       25.184       24.879        0.976      339.999       13.719      859.677
06/19/2013  08:52:00      -20.072       98.330       14.187       59.911       96.800       51.376     3589.308     9370.228     2639.496        1.293        0.780      100.358       59.543        0.352      340.014       13.743      859.701
06/19/2013  08:53:00      -74.235       47.609        4.119       69.862       98.593       48.692     4880.736     9720.543     2370.924        1.238        0.849       88.190       36.343        0.170      339.645       13.122      859.707
06/19/2013  08:54:00     -108.248      -47.945       -2.193       67.963       60.393       33.859     4619.027     3647.336     1146.456        1.172        0.471      118.391       36.004        0.092      339.634       13.102      859.710
06/19/2013  08:55:00      -49.702       93.171        7.075      139.482       97.686       55.301    19455.091     9542.609     3058.206        2.162        1.603      105.599       39.233        0.138      339.666       13.154      859.698
06/19/2013  08:56:00     -207.524      -33.139      -13.771      140.049      137.312       60.339    19613.636    18854.701     3640.826        4.322        2.105      210.153       74.731        0.126      339.449       12.786      859.689
06/19/2013  08:57:00     -189.792       72.848       -4.540      149.639       73.103       48.685    22391.712     5344.064     2370.196        3.572        1.505      203.292       62.168        0.094      339.639       13.108      859.692
06/19/2013  08:58:00     -154.539      -20.234      -10.897       87.642       93.477       32.876     7681.106     8737.957     1080.799        2.095        0.875      155.858       26.303        0.028      339.682       13.182      859.683
06/19/2013  08:59:00     -212.989       23.021        2.830      122.363       72.533       58.860    14972.819     5261.108     3464.451        3.480        1.185      214.230       67.708        0.100      339.575       13.001      859.694
06/19/2013  09:00:00     -213.153       12.066      -18.694       94.180      114.996       47.580     8869.813    13224.111     2263.875        3.514        1.218      213.494       42.607        0.040      339.323       12.574      859.691
06/19/2013  09:01:00      -57.849        2.675       10.415       58.454       36.814       35.564     3416.883     1355.238     1264.828        0.475        0.302       57.911       25.135        0.188      340.062       13.823      859.700
06/19/2013  09:02:00        2.591      -77.206       22.603       48.435       62.083       35.597     2345.929     3854.313     1267.116        0.697        0.373       77.250       32.299        0.175      339.735       13.272      859.697
06/19/2013  09:03:00       16.259     -127.773       -9.852       90.221       38.394       34.881     8139.750     1474.074     1216.663        1.376        0.542      128.803       30.599        0.056      339.284       12.512      859.685
06/19/2013  09:04:00      -15.635       -5.646       80.935       55.192       94.339       46.609     3046.175     8899.845     2172.356        1.047        0.706       16.623       57.534       11.979      339.721       13.250      859.669
06/19/2013  09:05:00      -34.348        3.457       30.326       49.174       33.202       38.821     2418.126     1102.370     1507.067        0.357        0.251       34.521       40.129        1.351      339.692       13.200      859.696
06/19/2013  09:06:00      -45.739      -15.215       -4.105       31.666       25.266       15.768     1002.729      638.366      248.616        0.211        0.094       48.203       16.171        0.113      339.481       12.843      859.717
06/19/2013  09:07:00     -201.657       56.565       -2.328       92.830       52.958       28.268     8617.372     2804.581      799.071        2.804        0.611      209.440       29.946        0.020      339.413       12.725      859.711
06/19/2013  09:08:00      -89.770        6.262      -11.349       73.596       35.818       32.192     5416.429     1282.964     1036.325        0.798        0.387       89.988       30.954        0.118      339.448       12.788      859.714
06/19/2013  09:09:00       -4.789      -11.431       21.704       29.042       43.522       25.742      843.458     1894.190      662.653        0.201        0.170       12.394       27.914        5.072      340.252       14.145      859.698
06/19/2013  09:10:00      -46.786      -80.470        9.846      101.186       48.175       44.351    10238.526     2320.840     1967.036        1.164        0.726       93.083       47.261        0.258      339.699       13.211      859.718
06/19/2013  09:11:00      -15.818       16.202       29.099       31.783       42.168       34.097     1010.143     1778.141     1162.599        0.265        0.198       22.643       21.333        0.888      340.704       14.912      859.738
06/19/2013  09:12:00      -32.499      -29.014       10.963       48.584       56.245       29.681     2360.414     3163.487      880.933        0.421        0.320       43.566       28.208        0.419      339.912       13.572      859.736
06/19/2013  09:13:00      -95.852      -61.293        4.061       66.723       38.760       21.616     4452.023     1502.319      467.267        0.969        0.321      113.773       22.534        0.039      339.618       13.074      859.756
06/19/2013  09:14:00      -57.419       -4.047        5.380       55.438       34.488       25.040     3073.397     1189.419      626.980        0.412        0.244       57.561       28.985        0.254      340.056       13.813      859.753
06/19/2013  09:15:00     -234.367      -67.025       -9.069      106.495       74.206       41.649    11341.133     5506.562     1734.653        3.904        0.929      243.763       43.877        0.032      339.393       12.693      859.758
06/19/2013  09:16:00      -84.814       14.784       -2.459       58.740       53.545       25.431     3450.441     2867.020      646.746        0.719        0.348       86.093       23.658        0.076      339.401       12.710      859.750
06/19/2013  09:17:00      -81.220        3.308        3.428       50.637       33.452       29.009     2564.108     1119.054      841.531        0.557        0.226       81.287       21.422        0.069      339.568       12.991      859.721
06/19/2013  09:18:00     -148.104       -5.972        0.907      119.264       54.783       39.204    14224.015     3001.211     1536.941        2.036        0.938      148.225       40.885        0.076      339.571       12.992      859.741
06/19/2013  09:19:00      -62.965     -112.528       17.249       94.722       97.220       40.113     8972.254     9451.789     1609.040        1.847        1.002      128.946       53.067        0.169      339.538       12.940      859.766
06/19/2013  09:20:00      -38.027      -50.294       -0.611       33.249       44.740       31.033     1105.493     2001.641      963.017        0.402        0.204       63.052       25.160        0.159      339.577       13.006      859.731
06/19/2013  09:21:00      -89.645      -38.895       -0.143       45.272       33.929       28.704     2049.520     1151.189      823.915        0.679        0.201       97.719       26.737        0.075      339.428       12.754      859.700
06/19/2013  09:22:00      -37.130     -135.485       14.951       55.105       48.808       48.202     3036.520     2382.247     2323.408        1.385        0.387      140.481       23.219        0.027      339.947       13.629      859.671
06/19/2013  09:23:00      -81.070      -85.814       31.091      160.154      120.039       62.054    25649.436    14409.450     3850.673        2.940        2.195      118.053       70.251        0.354      340.267       14.169      859.651
06/19/2013  09:24:00     -123.332     -130.209        7.620      140.148      105.261       61.530    19641.372    11079.908     3785.882        3.336        1.725      179.347       35.914        0.040      339.804       13.386      859.690
06/19/2013  09:25:00     -114.168      -62.549        8.806       91.310       68.179       42.980     8337.425     4648.392     1847.280        1.593        0.742      130.180       25.688        0.039      339.779       13.345      859.692
06/19/2013  09:26:00     -130.721      -34.700       -3.872       54.757       72.400       31.459     2998.298     5241.822      989.658        1.377        0.461      135.248       25.367        0.035      339.723       13.252      859.706
06/19/2013  09:27:00     -217.145      -60.976       -3.172      110.691       55.633       45.189    12252.412     3095.026     2042.075        3.413        0.869      225.544       48.407        0.046      339.515       12.899      859.706
06/19/2013  09:28:00      -72.946       -1.469       15.830       84.152       38.664       35.957     7081.580     1494.896     1292.941        0.772        0.493       72.961       40.145        0.303      340.355       14.320      859.691
06/19/2013  09:29:00      -76.906      -83.072       -4.014       64.225       67.464       39.014     4124.789     4551.400     1522.091        1.151        0.510      113.206       45.526        0.162      340.035       13.779      859.664
06/19/2013  09:30:00     -199.644     -108.219       -0.380      103.141       62.312       32.289    10638.155     3882.769     1042.605        3.356        0.778      227.088       18.576        0.007      339.738       13.275      859.638
06/19/2013  09:31:00      -91.228     -140.105        5.813       72.159      125.674       44.385     5206.962    15794.050     1970.042        2.547        1.149      167.188       48.655        0.085      339.781       13.347      859.629
06/19/2013  09:32:00     -203.363     -193.494        1.540      126.295      104.753       58.550    15950.371    10973.255     3428.104        5.457        1.518      280.707       56.583        0.041      339.497       12.868      859.609
06/19/2013  09:33:00     -141.345     -194.631       -2.656       98.401      106.495       55.003     9682.747    11341.250     3025.334        4.095        1.202      240.540       44.389        0.034      339.565       12.982      859.611
06/19/2013  09:34:00     -173.077     -124.238       -3.431       98.562       83.577       37.917     9714.458     6985.152     1437.673        3.177        0.907      213.051       36.090        0.029      339.636       13.100      859.607
06/19/2013  09:35:00      -83.437      -39.716        0.897       39.127       39.561       23.843     1530.921     1565.048      568.489        0.610        0.183       92.407       11.730        0.016      339.599       13.041      859.588
06/19/2013  09:36:00      -75.369       24.154       -7.297       36.456       40.531       23.100     1329.022     1642.745      533.618        0.491        0.175       79.145       17.278        0.048      339.767       13.327      859.572
06/19/2013  09:37:00     -161.317      -63.243       -4.950      124.774      110.250       49.210    15568.619    12155.165     2421.597        3.009        1.507      173.271       43.860        0.064      339.962       13.655      859.565
06/19/2013  09:38:00     -365.528     -266.195       -9.280      147.796      136.303       76.102    21843.576    18578.428     5791.449       12.538        2.311      452.184       85.847        0.036      339.659       13.142      859.544
06/19/2013  09:39:00     -342.070     -253.675      -11.269      196.263      115.576       87.723    38519.222    13357.927     7695.401       12.052        2.979      425.867       97.540        0.052      339.701       13.212      859.533
06/19/2013  09:40:00     -191.394     -161.146      -11.299      124.317       78.964       44.791    15454.785     6235.247     2006.264        4.321        1.185      250.200       35.030        0.020      339.413       12.727      859.575
06/19/2013  09:41:00     -107.574     -159.886       -6.457      137.474       77.942       37.843    18899.182     6074.997     1432.083        3.179        1.320      192.706       31.699        0.027      339.562       12.976      859.547
06/19/2013  09:42:00     -372.865     -121.927      -48.969      107.072      111.933       53.472    11464.307    12529.073     2859.224        9.157        1.343      392.294       53.932        0.019      339.595       13.031      859.569
06/19/2013  09:43:00     -108.723     -170.706        2.957      102.835      114.394       49.801    10574.945    13086.007     2480.173        3.355        1.307      202.389       43.709        0.047      339.855       13.472      859.552
06/19/2013  09:44:00     -241.940     -201.308        6.256      159.667      109.698       71.950    25493.497    12033.618     5176.829        7.089        2.135      314.738       76.055        0.058      339.897       13.541      859.557
06/19/2013  09:45:00     -280.388     -151.110       -6.445      138.940      107.410       66.583    19304.312    11536.955     4433.302        6.838        1.764      318.515       64.851        0.041      339.805       13.387      859.565
06/19/2013  09:46:00     -151.102     -138.142       20.151      122.824       87.605       63.885    15085.671     7674.695     4081.334        3.458        1.342      204.732       67.198        0.108      339.913       13.570      859.562
06/19/2013  09:47:00     -100.725     -275.913       -1.192       65.985       79.258       55.312     4354.032     6281.905     3059.439        4.998        0.685      293.723       39.751        0.018      339.678       13.174      859.537
06/19/2013  09:48:00     -319.480      -82.712      -21.355      106.922       96.366       54.568    11432.344     9286.397     2977.716        6.653        1.185      330.014       42.784        0.017      339.825       13.420      859.532
06/19/2013  09:49:00     -285.806     -115.156      -10.388      164.392      105.108       59.688    27024.804    11047.657     3562.654        6.834        2.082      308.133       74.244        0.058      340.013       13.738      859.546
06/19/2013  09:50:00     -214.612     -152.440      -21.217      119.866      110.033       52.796    14367.779    12107.169     2787.387        4.950        1.463      263.242       54.982        0.044      339.786       13.355      859.568
06/19/2013  09:51:00      -99.743      -82.140       12.151       74.624       94.612       42.641     5568.797     8951.522     1818.271        1.659        0.817      129.211       46.106        0.127      339.999       13.717      859.548
06/19/2013  09:52:00     -181.856     -136.904       -4.010      106.707       74.612       52.061    11386.405     5567.002     2710.310        3.574        0.983      227.627       57.821        0.065      339.957       13.644      859.530
06/19/2013  09:53:00     -342.681     -126.554       -7.680      152.810      124.324       67.876    23350.982    15456.346     4607.094        8.845        2.171      365.303       44.878        0.015      339.973       13.670      859.533
06/19/2013  09:54:00     -233.306     -160.467        7.634      133.960      142.357       81.152    17945.194    20265.375     6585.626        6.251        2.240      283.163       88.330        0.097      340.007       13.729      859.557
06/19/2013  09:55:00     -151.254     -187.705       14.293      149.035      121.004       67.887    22211.567    14641.906     4608.606        4.988        2.073      241.062       62.839        0.068      340.027       13.762      859.520
06/19/2013  09:56:00      -95.323     -263.140       -2.152      118.856      101.027       59.361    14126.785    10206.454     3523.698        5.309        1.393      279.873       26.977        0.009      339.684       13.183      859.522
06/19/2013  09:57:00      -84.188     -142.719       -9.076       86.636       77.790       35.000     7505.710     6051.292     1225.031        2.116        0.739      165.700       10.907        0.004      339.987       13.695      859.494
06/19/2013  09:58:00     -123.798      -17.436       -9.481       68.508       60.016       34.995     4693.308     3601.922     1224.615        1.262        0.476      125.020       30.897        0.061      340.153       13.976      859.485
06/19/2013  09:59:00     -104.997       47.792       22.781       98.843       74.659       61.037     9769.936     5573.995     3725.507        1.644        0.953      115.362       52.555        0.208      340.498       14.559      859.480
06/19/2013  10:00:00     -306.948      -18.836      -15.444      124.119      104.697       59.589    15405.439    10961.523     3550.891        6.236        1.496      307.525       67.546        0.048      340.222       14.089      859.454
06/19/2013  10:01:00      -91.878       12.704        2.295       96.439       42.887       38.473     9300.487     1839.304     1480.196        1.061        0.631       92.752       52.457        0.320      341.009       15.425      859.463
06/19/2013  10:02:00     -256.552      -46.393      -18.596       92.846       92.964       34.712     8620.288     8642.325     1204.918        4.339        0.923      260.713       27.863        0.011      339.901       13.548      859.456
06/19/2013  10:03:00      -66.126     -124.033       -6.062       82.024       85.222       31.115     6727.875     7262.839      968.170        1.737        0.748      140.559       26.361        0.035      339.912       13.571      859.429
06/19/2013  10:04:00      -61.015      -98.836       12.269       60.179       76.566       40.456     3621.530     5862.394     1636.703        1.238        0.556      116.152       23.393        0.041      340.519       14.595      859.365
06/19/2013  10:05:00      -77.113     -107.863       -1.531       89.610       92.677       29.379     8030.018     8589.109      863.116        1.753        0.874      132.593       36.813        0.077      339.893       13.537      859.370
06/19/2013  10:06:00     -163.957      -42.913        3.573       91.984       72.992       45.043     8460.965     5327.812     2028.895        2.227        0.791      169.480       39.819        0.055      340.424       14.433      859.361
06/19/2013  10:07:00     -216.086     -112.751       20.437      163.835      117.177       73.156    26841.922    13730.430     5351.744        5.286        2.296      243.734       84.731        0.121      340.646       14.808      859.364
06/19/2013  10:08:00     -220.579     -100.973        5.431      148.691      101.454       56.533    22108.990    10292.960     3195.942        4.723        1.780      242.591       56.688        0.055      340.624       14.771      859.367
06/19/2013  10:09:00     -217.878     -113.576        4.490      125.163      102.685       58.692    15665.799    10544.157     3444.738        4.502        1.483      245.704       60.122        0.060      340.718       14.929      859.370
06/19/2013  10:10:00     -243.204     -188.365       -9.923      123.640      106.217       37.908    15286.941    11282.080     1437.052        6.136        1.400      307.620       43.949        0.020      340.359       14.323      859.367
06/19/2013  10:11:00     -143.029     -113.966       16.038       87.476       83.981       46.989     7652.052     7052.820     2207.942        2.530        0.846      182.881       44.421        0.059      340.425       14.435      859.350
06/19/2013  10:12:00     -131.995     -334.614       -4.202       90.843      147.784       56.450     8252.506    21840.072     3186.594        8.134        1.664      359.707       43.311        0.014      340.277       14.182      859.385
06/19/2013  10:13:00     -164.508     -127.563        0.024      141.339      102.120       61.235    19976.631    10428.442     3749.780        3.874        1.708      208.171       58.239        0.078      340.575       14.688      859.392
06/19/2013  10:14:00     -297.013     -285.171       -8.677      197.099      160.289       78.779    38848.206    25692.435     6206.139       12.017        3.537      411.751       89.549        0.047      340.270       14.172      859.359
06/19/2013  10:15:00     -352.820     -220.930      -18.172      181.397      125.268       68.798    32904.751    15691.951     4733.188       11.347        2.666      416.284       85.308        0.042      340.129       13.934      859.390
06/19/2013  10:16:00     -258.301     -130.857       -2.459      148.983      118.903       69.770    22196.069    14137.957     4867.887        6.252        2.060      289.556       68.030        0.055      340.228       14.100      859.365
06/19/2013  10:17:00     -131.631      -91.880       17.851      101.132      102.365       53.852    10227.654    10478.621     2900.005        2.484        1.180      160.526       52.967        0.109      340.383       14.365      859.322
06/19/2013  10:18:00     -335.019     -275.324       -5.651      158.866      183.312       87.968    25238.399    33603.294     7738.382       12.731        3.329      433.637       86.194        0.040      340.304       14.229      859.321
06/19/2013  10:19:00     -380.032     -302.910       -5.511      172.838      102.243       89.236    29872.897    10453.722     7963.018       14.224        2.414      485.982       88.583        0.033      340.063       13.821      859.331
06/19/2013  10:20:00     -330.592     -176.974       -6.591      124.344       97.225       59.380    15461.341     9452.699     3525.973        8.454        1.422      374.981       44.016        0.014      340.118       13.912      859.346
06/19/2013  10:21:00     -174.409     -174.768      -20.337      102.509      130.825       44.411    10508.071    17115.061     1972.340        4.548        1.480      246.906       42.303        0.029      340.378       14.354      859.344
06/19/2013  10:22:00      -91.856     -241.869        2.240      122.420      161.264       54.917    14986.689    26006.033     3015.827        5.547        2.200      258.724       75.900        0.086      340.239       14.120      859.339
06/19/2013  10:23:00       13.922      -57.491       14.815       71.485       77.043       54.129     5110.145     5935.632     2929.930        0.884        0.699       59.152       40.126        0.460      340.899       15.239      859.285
06/19/2013  10:24:00       24.402     -167.608       -4.805      118.795       83.543       56.531    14112.248     6979.361     3195.802        2.649        1.214      169.375       54.268        0.103      340.645       14.807      859.251
06/19/2013  10:25:00     -253.457      -87.151        2.832      161.049       83.624       53.942    25936.641     6992.897     2909.731        5.383        1.792      268.022       67.420        0.063      340.747       14.979      859.277
06/19/2013  10:26:00     -196.752      -54.426       12.202      147.200      110.194       64.984    21667.709    12142.803     4222.982        3.992        1.902      204.141       68.971        0.114      340.748       14.981      859.334
06/19/2013  10:27:00     -205.168      -26.102       -2.889      120.115       88.111       54.057    14427.576     7763.603     2922.199        3.394        1.256      206.822       58.739        0.081      340.483       14.534      859.358
06/19/2013  10:28:00      -79.492      -57.174       -9.627       90.468       78.633       33.557     8184.515     6183.112     1126.049        1.258        0.775       97.918       28.510        0.085      340.590       14.715      859.333
06/19/2013  10:29:00     -253.566     -117.945      -18.409      120.119      108.308       58.997    14428.635    11730.546     3480.596        5.409        1.482      279.655       60.751        0.047      340.508       14.573      859.337
06/19/2013  10:30:00     -297.920     -212.650      -14.507      117.643      100.712       51.539    13839.804    10142.880     2656.319        8.041        1.332      366.027       52.053        0.020      340.279       14.187      859.336
06/19/2013  10:31:00     -242.575      -73.673        5.787      162.025       90.353       66.155    26252.081     8163.649     4376.540        5.154        1.940      253.516       67.070        0.070      340.728       14.946      859.319
06/19/2013  10:32:00     -211.623     -149.742        4.181      115.392       75.074       54.583    13315.237     5636.033     2979.298        4.457        1.097      259.243       54.251        0.044      340.507       14.573      859.301
06/19/2013  10:33:00     -184.401     -164.012        4.023      132.403       90.140       55.521    17530.660     8125.279     3082.563        4.482        1.437      246.786       59.490        0.058      340.547       14.640      859.320
06/19/2013  10:34:00     -204.904      -84.216       -2.638      109.077       70.641       46.524    11897.687     4990.123     2164.451        3.406        0.953      221.536       48.682        0.048      340.523       14.600      859.351
06/19/2013  10:35:00     -165.788     -131.293        1.498      112.295       97.871       66.333    12610.153     9578.792     4400.101        3.565        1.329      211.479       69.073        0.107      340.917       15.266      859.335
06/19/2013  10:36:00     -151.146      -13.725        3.358       80.246       72.414       49.628     6439.374     5243.733     2462.947        1.859        0.707      151.768       58.148        0.147      340.963       15.347      859.340
06/19/2013  10:37:00      -28.613       58.416       20.155       48.400       40.834       42.697     2342.563     1667.419     1823.072        0.523        0.292       65.047       30.234        0.216      341.308       15.932      859.335
06/19/2013  10:38:00        9.129       37.292       16.959       44.662       38.229       42.412     1994.680     1461.467     1798.739        0.351        0.263       38.393       18.217        0.225      341.041       15.479      859.312
06/19/2013  10:39:00       35.531       25.801       10.987       35.562       40.222       31.737     1264.644     1617.777     1007.250        0.297        0.194       43.911       19.555        0.198      341.131       15.631      859.304
06/19/2013  10:40:00      -43.139      -61.482        0.783       56.275       45.268       26.619     3166.863     2049.235      708.587        0.578        0.296       75.106       23.767        0.100      340.945       15.315      859.338
06/19/2013  10:41:00       -7.298     -116.394        9.048       28.926       40.279       28.044      836.691     1622.412      786.449        0.846        0.162      116.623       20.367        0.031      340.623       14.771      859.363
06/19/2013  10:42:00     -111.864      -57.241        6.525      103.170       79.373       44.126    10644.021     6300.048     1947.082        1.736        0.945      125.659       48.954        0.152      340.986       15.385      859.351
06/19/2013  10:43:00     -288.541     -136.092      -11.240      169.413      125.797       61.378    28700.866    15824.984     3767.312        7.509        2.415      319.025       62.047        0.038      340.753       14.989      859.361
06/19/2013  10:44:00     -246.965      -34.925      -28.395       81.817       56.255       34.754     6694.089     3164.681     1207.859        3.704        0.553      249.422       37.858        0.023      340.486       14.537      859.342
06/19/2013  10:45:00      -96.399      -32.746        1.893       64.653       41.968       26.534     4180.058     1761.292      704.046        0.851        0.332      101.809       24.270        0.057      340.702       14.905      859.322
06/19/2013  10:46:00     -267.895     -152.679      -16.594      143.554      111.152       54.393    20607.659    12354.744     2958.628        6.563        1.796      308.348       49.292        0.026      340.726       14.943      859.357
06/19/2013  10:47:00     -159.850     -176.601        7.558      132.065      145.783       54.345    17441.078    21252.663     2953.424        4.921        2.082      238.202       47.511        0.040      340.814       15.091      859.370
06/19/2013  10:48:00     -229.693     -223.196       19.931      204.530      132.911       74.849    41832.533    17665.360     5602.403        8.402        3.255      320.274       87.723        0.075      340.799       15.067      859.366
06/19/2013  10:49:00     -367.825     -169.628      -14.548      105.746      102.245       53.245    11182.149    10453.983     2835.005        9.437        1.224      405.054       46.322        0.013      340.614       14.755      859.390
06/19/2013  10:50:00     -271.760      -93.627       -4.319      141.643      104.526       57.059    20062.827    10925.764     3255.782        5.843        1.712      287.436       61.938        0.046      340.975       15.364      859.382
06/19/2013  10:51:00     -298.067     -135.456       -0.320      150.842      124.523       64.211    22753.190    15505.875     4123.014        7.478        2.119      327.403       75.412        0.053      340.896       15.230      859.401
06/19/2013  10:52:00     -284.805      -33.685      -17.476      140.037      114.256       63.567    19610.395    13054.403     4040.705        5.962        1.835      286.790       66.286        0.053      340.942       15.306      859.405
06/19/2013  10:53:00     -235.546       33.988        3.914       96.946      100.652       51.366     9398.609    10130.802     2638.422        3.941        1.108      237.986       43.779        0.034      340.911       15.256      859.426
06/19/2013  10:54:00     -172.726      -91.022      -12.491      131.129       85.046       45.174    17194.911     7232.826     2040.677        3.237        1.323      195.242       56.379        0.083      341.201       15.748      859.437
06/19/2013  10:55:00     -329.981      -30.811      -15.629       92.547       93.064       51.170     8564.959     8660.964     2618.319        6.496        0.992      331.416       35.065        0.011      341.028       15.452      859.439
06/19/2013  10:56:00     -152.945      -48.735        0.170      119.269       82.040       51.266    14225.010     6730.609     2628.179        2.467        1.179      160.522       58.464        0.133      340.910       15.255      859.434
06/19/2013  10:57:00      -27.620      -29.266       25.299       41.875       48.611       32.147     1753.544     2363.077     1033.407        0.370        0.258       40.241       29.008        0.520      341.797       16.763      859.425
06/19/2013  10:58:00      -65.310      -86.068       29.389      110.127       94.312       60.598    12128.010     8894.761     3672.120        1.861        1.235      108.042       68.141        0.398      341.449       16.168      859.438
06/19/2013  10:59:00      -25.337      -40.231       29.163       53.136       55.030       34.674     2823.430     3028.305     1202.290        0.508        0.353       47.545       33.455        0.495      341.509       16.272      859.424
06/19/2013  11:00:00      -83.154      -82.452        1.656       60.502       54.279       35.251     3660.517     2946.159     1242.614        1.078        0.392      117.102       25.031        0.046      340.920       15.273      859.402
06/19/2013  11:01:00     -104.468      -10.135       11.772       82.369       81.117       45.495     6784.638     6579.967     2069.751        1.329        0.772      104.958       42.559        0.164      341.285       15.892      859.397
06/19/2013  11:02:00     -162.807      -54.514       -7.347      113.998       89.197       45.837    12995.567     7956.038     2100.997        2.629        1.153      171.692       47.838        0.078      340.701       14.901      859.396
06/19/2013  11:03:00     -119.964      -54.317      -12.115       84.925       51.732       30.550     7212.268     2676.163      933.278        1.415        0.541      131.688       22.789        0.030      340.805       15.078      859.392
06/19/2013  11:04:00      -43.244      -61.810        6.705       59.864       27.807       25.436     3583.640      773.229      646.994        0.537        0.250       75.435       21.100        0.078      341.053       15.499      859.381
06/19/2013  11:05:00       -9.522     -136.894       17.460       49.132       95.110       37.275     2413.942     9045.925     1389.428        1.599        0.642      137.224       26.314        0.037      341.038       15.472      859.397
06/19/2013  11:06:00      -62.895     -186.502       11.545       72.902       95.650       43.624     5314.678     9148.984     1903.091        2.762        0.818      196.822       39.669        0.041      341.285       15.890      859.384
06/19/2013  11:07:00      -16.554      -39.703        2.933       26.205       52.897       27.602      686.699     2798.108      761.860        0.305        0.212       43.016       27.776        0.417      341.578       16.389      859.364
06/19/2013  11:08:00      -16.293        7.444        3.220       29.996       34.028       25.112      899.766     1157.924      630.632        0.151        0.134       17.913       18.051        1.015      341.911       16.953      859.358
06/19/2013  11:09:00     -117.216       -5.759       -2.530       66.859       92.887       34.054     4470.111     8628.006     1159.679        1.402        0.713      117.358       33.344        0.081      341.758       16.694      859.355
06/19/2013  11:10:00      -44.418       35.260        6.905       73.558       55.490       45.286     5410.735     3079.148     2050.805        0.690        0.527       56.712       53.193        0.880      341.722       16.634      859.370
06/19/2013  11:11:00      -65.711      -67.372       -6.206       67.481       93.857       35.548     4553.697     8809.163     1263.683        1.176        0.731       94.111       39.185        0.173      341.356       16.012      859.365
06/19/2013  11:12:00     -112.790      -95.930       10.705       99.818       75.003       47.658     9963.570     5625.403     2271.256        1.995        0.893      148.068       52.852        0.127      341.432       16.139      859.393
06/19/2013  11:13:00     -198.415     -159.667       -9.280      128.836       62.444       49.010    16598.693     3899.287     2402.019        4.392        1.145      254.681       54.489        0.046      341.438       16.148      859.413
06/19/2013  11:14:00     -174.945     -149.114       16.839      158.016      154.184       91.306    24969.035    23772.564     8336.777        5.509        2.854      229.871       97.998        0.182      341.703       16.598      859.430
06/19/2013  11:15:00     -177.379     -168.050        8.557      131.615       97.180       57.780    17322.463     9443.906     3338.541        4.493        1.505      244.344       65.410        0.072      341.185       15.720      859.442
06/19/2013  11:16:00     -174.595      -81.131        4.021      100.571       76.103       48.526    10114.522     5791.609     2354.724        2.767        0.913      192.524       52.898        0.075      341.352       16.003      859.439
06/19/2013  11:17:00     -245.054      -28.110        0.547      114.138       76.773       46.426    13027.515     5894.163     2155.377        4.096        1.054      246.661       52.335        0.045      341.395       16.075      859.462
06/19/2013  11:18:00      -58.014       83.968      -25.524      124.492       59.102       51.196    15498.371     3493.009     2621.047        1.634        1.081      102.060       36.144        0.125      341.084       15.552      859.478
06/19/2013  11:19:00        0.466      105.577      -14.614      120.039       73.906       55.462    14409.296     5462.126     3076.019        1.715        1.147      105.578       16.632        0.025      341.204       15.755      859.432
06/19/2013  11:20:00      177.043      111.857       20.920       94.588       58.199       64.740     8946.875     3387.150     4191.326        3.041        0.826      209.419       29.727        0.020      341.359       16.015      859.356
06/19/2013  11:21:00      -34.189      -10.047       31.225       52.128       62.620       39.703     2717.359     3921.232     1576.305        0.523        0.411       35.635       35.075        0.969      341.637       16.488      859.343
06/19/2013  11:22:00      -34.867      -40.834       13.227       45.407       37.367       32.249     2061.778     1396.290     1039.976        0.378        0.225       53.695       20.459        0.145      341.713       16.617      859.367
06/19/2013  11:23:00      -18.565      -23.251        9.736       27.362       28.673       22.051      748.657      822.122      486.238        0.152        0.103       29.754       21.153        0.505      342.084       17.247      859.392
06/19/2013  11:24:00      -48.645      -97.043       11.700       40.982       88.813       43.080     1679.508     7887.744     1855.897        1.167        0.571      108.552       22.330        0.042      341.596       16.418      859.399
06/19/2013  11:25:00      -23.103      -44.452       -1.264       57.998       66.289       31.510     3363.816     4394.179      992.879        0.563        0.438       50.097       14.838        0.088      341.638       16.489      859.416
06/19/2013  11:26:00     -180.239       21.328       27.096      160.419      136.077       72.312    25734.159    18516.922     5229.012        4.157        2.474      181.496       65.054        0.128      341.652       16.511      859.419
06/19/2013  11:27:00     -341.144      -91.073      -11.244      144.604      138.732       63.621    20910.431    19246.677     4047.663        8.449        2.210      353.091       65.750        0.035      341.196       15.739      859.439
06/19/2013  11:28:00     -256.854       55.820       -8.875       87.311       98.893       51.221     7623.148     9779.818     2623.629        4.459        1.001      262.850       39.988        0.023      341.577       16.382      859.462
06/19/2013  11:29:00     -190.367        1.459       -4.407      116.516       62.154       45.453    13575.936     3863.141     2065.947        2.788        0.975      190.372       45.210        0.056      341.530       16.304      859.438
06/19/2013  11:30:00      -70.011       39.597        5.877       83.003       68.914       49.438     6889.415     4749.105     2444.110        1.029        0.704       80.433       38.009        0.223      342.131       17.326      859.408
06/19/2013  11:31:00     -356.615      -61.585      -21.110      170.171      125.936       73.853    28958.059    15859.793     5454.241        9.083        2.514      361.894       78.911        0.048      341.605       16.431      859.436
06/19/2013  11:32:00     -132.163       27.448        3.777      149.087       83.397       53.295    22227.038     6955.032     2840.385        2.512        1.601      134.983       71.221        0.278      341.608       16.439      859.469
06/19/2013  11:33:00        5.150       19.551       -8.610       64.551       70.603       52.028     4166.834     4984.805     2706.902        0.617        0.593       20.218       19.452        0.926      341.759       16.694      859.401
06/19/2013  11:34:00     -104.285      -93.603        2.041       86.610       69.739       46.397     7501.325     4863.553     2152.697        1.708        0.726      140.132       41.734        0.089      341.712       16.614      859.412
06/19/2013  11:35:00      -22.857      -21.182       -0.080       28.418       50.179       26.448      807.586     2517.908      699.501        0.250        0.201       31.163       17.770        0.325      341.468       16.203      859.389
06/19/2013  11:36:00       -7.933       -9.338       -1.250       54.781       62.348       43.065     3000.946     3887.236     1854.587        0.445        0.437       12.252       17.949        2.146      341.838       16.830      859.389
06/19/2013  11:37:00      -55.520      -19.033       16.858       89.126       96.035       51.312     7943.456     9222.649     2632.930        1.176        0.990       58.692       45.476        0.600      341.801       16.767      859.354
06/19/2013  11:38:00       84.625       81.492       47.952       62.238       61.629       58.409     3873.533     3798.184     3411.637        1.359        0.554      117.483       25.516        0.047      341.848       16.844      859.251
06/19/2013  11:39:00       99.629      139.616       22.212       96.008       64.013       54.832     9217.555     4097.703     3006.536        2.311        0.816      171.518       34.421        0.040      342.001       17.104      859.197
06/19/2013  11:40:00      -79.854      333.647      -45.017       62.900      146.307       49.457     3956.353    21405.737     2445.994        7.376        1.390      343.070       68.360        0.040      341.570       16.371      859.284
06/19/2013  11:41:00      -11.712      291.219      -32.523       75.648      128.360       63.578     5722.595    16476.226     4042.143        5.612        1.312      291.454       71.507        0.060      341.923       16.973      859.343
06/19/2013  11:42:00     -109.921      309.972      -20.369       84.742      133.932       61.120     7181.185    17937.790     3735.656        6.871        1.443      328.884       64.421        0.038      341.461       16.188      859.379
06/19/2013  11:43:00      -77.470       99.154       -4.921       71.277       64.823       46.316     5080.407     4202.041     2145.177        1.364        0.571      125.830       33.775        0.072      341.547       16.336      859.386
06/19/2013  11:44:00      -19.776      363.879      -35.861       87.178      115.035       52.782     7599.952    13233.032     2785.942        7.885        1.181      364.416       59.865        0.027      341.363       16.020      859.396
06/19/2013  11:45:00      -44.815      136.377        1.848       70.228      104.359       58.710     4931.973    10890.702     3446.864        1.994        0.963      143.551       46.996        0.107      341.957       17.031      859.408
06/19/2013  11:46:00       52.676       55.796       49.346       73.636       76.640       52.913     5422.263     5873.711     2799.801        1.121        0.705       76.733       29.591        0.149      342.304       17.619      859.399
06/19/2013  11:47:00       10.263       61.457       24.506       57.558       71.918       47.654     3312.978     5172.168     2270.904        0.762        0.538       62.308       50.797        0.665      342.617       18.152      859.390
06/19/2013  11:48:00       -6.371      163.684      -25.462       43.381       64.426       40.836     1881.922     4150.659     1667.548        1.759        0.385      163.808       29.037        0.031      341.698       16.589      859.381
06/19/2013  11:49:00       -4.728      156.787      -12.322       50.576       66.129       33.129     2557.912     4372.982     1097.533        1.639        0.401      156.858       25.816        0.027      341.828       16.812      859.407
06/19/2013  11:50:00       74.116       90.087       15.883       60.994       60.972       51.977     3720.213     3717.636     2701.653        1.200        0.507      116.658       43.252        0.137      342.112       17.294      859.391
06/19/2013  11:51:00       56.088       41.139       20.568       62.904       41.465       34.935     3956.914     1719.365     1220.484        0.608        0.345       69.558       16.626        0.057      342.198       17.441      859.376
06/19/2013  11:52:00       82.565       62.591       64.788       60.476       50.305       47.609     3657.373     2530.642     2266.627        1.169        0.423      103.608       26.656        0.066      342.508       17.966      859.368
06/19/2013  11:53:00       94.747       91.100       68.858       95.667       73.463       59.288     9152.129     5396.872     3515.099        2.004        0.903      131.439       43.701        0.111      342.197       17.436      859.364
06/19/2013  11:54:00       42.997       11.226       53.512       96.568       84.958       48.375     9325.317     7217.810     2340.145        1.186        0.944       44.439       41.933        0.890      342.450       17.869      859.333
06/19/2013  11:55:00       -8.361       -9.583       12.159       96.546       70.194       41.778     9321.162     4927.251     1745.390        0.815        0.800       12.718       39.081        9.443      342.367       17.727      859.332
06/19/2013  11:56:00      -80.695      -67.337       -5.691      158.521       96.655       70.930    25128.986     9342.227     5031.059        2.528        1.975      105.100       63.079        0.360      342.023       17.141      859.368
06/19/2013  11:57:00        5.767       14.963       60.843       93.577       54.906       47.754     8756.747     3014.614     2280.467        0.900        0.703       16.036       49.123        9.384      342.337       17.675      859.340
06/19/2013  11:58:00     -149.164     -120.141        2.536      116.175       76.471       44.242    13496.677     5847.772     1957.394        2.899        1.065      191.530       39.821        0.043      342.253       17.532      859.373
06/19/2013  11:59:00     -103.255     -103.494       16.110      106.601       79.578       52.888    11363.876     6332.588     2797.127        2.106        1.025      146.193       39.996        0.075      342.207       17.453      859.395
06/19/2013  12:00:00      -65.360     -100.927        2.831       59.712       75.389       37.387     3565.564     5683.543     1397.760        1.255        0.532      120.242       34.659        0.083      342.079       17.237      859.417
06/19/2013  12:01:00     -181.305      -58.903        6.963      176.047       83.953       76.918    30992.415     7048.074     5916.351        4.016        2.198      190.634       93.721        0.242      341.952       17.020      859.432
06/19/2013  12:02:00      -27.116      -59.354       19.123       66.427      105.427       49.401     4412.594    11114.868     2440.439        1.129        0.898       65.255       28.810        0.195      342.554       18.045      859.413
06/19/2013  12:03:00     -258.344     -262.945       -0.763      199.907      146.346       79.275    39962.816    21417.251     6284.544       10.176        3.383      368.621       93.870        0.065      341.876       16.890      859.415
06/19/2013  12:04:00     -345.562     -238.078       -2.454      195.676      127.173       83.787    38289.155    16173.008     7020.223       11.878        3.074      419.636       91.218        0.047      341.533       16.309      859.425
06/19/2013  12:05:00     -141.616     -125.001       10.913      132.056       98.566       51.411    17438.693     9715.223     2643.106        3.279        1.490      188.892       65.473        0.120      341.769       16.709      859.462
06/19/2013  12:06:00     -191.329      -60.369      -11.483       96.504       80.708       44.646     9313.046     6513.832     1993.287        2.910        0.891      200.627       36.837        0.034      341.626       16.467      859.472
06/19/2013  12:07:00      -58.360      -33.884        7.308       54.929       72.898       39.816     3017.151     5314.071     1585.339        0.726        0.496       67.483       25.977        0.148      341.549       16.337      859.456
06/19/2013  12:08:00     -118.461      -96.554       -7.359       88.053       69.850       37.443     7753.319     4879.010     1402.003        1.872        0.702      152.826       48.118        0.099      341.553       16.346      859.434
06/19/2013  12:09:00     -199.006     -176.599      -26.644       53.430       87.263       31.038     2854.731     7614.759      963.338        4.146        0.572      266.065       20.313        0.006      341.267       15.858      859.446
06/19/2013  12:10:00      -45.483      -23.333       15.341       51.273       43.422       35.494     2628.908     1885.504     1259.856        0.431        0.289       51.119       29.602        0.335      342.181       17.413      859.420
06/19/2013  12:11:00       19.750      -34.611       55.135       57.675       78.055       60.452     3326.443     6092.613     3654.399        0.885        0.654       39.849       42.701        1.148      342.377       17.744      859.388
06/19/2013  12:12:00       61.572     -199.954       -9.497       85.722      129.023       84.279     7348.209    16646.923     7102.919        3.747        1.555      209.220       84.035        0.161      342.004       17.107      859.360
06/19/2013  12:13:00       78.401     -157.979      -20.444       85.536      144.683       82.219     7316.446    20933.194     6759.965        3.326        1.750      176.363       93.216        0.279      342.067       17.215      859.357
06/19/2013  12:14:00       17.922     -186.965      -44.381      104.908      118.305       59.697    11005.596    13996.035     3563.717        3.290        1.428      187.822       59.409        0.100      342.062       17.208      859.382
06/19/2013  12:15:00        8.665      -89.572       44.253       93.238      140.952       91.524     8693.339    19867.546     8376.711        2.349        1.847       89.990       98.391        1.195      342.190       17.425      859.367
06/19/2013  12:16:00      -14.447      -46.435       53.214       43.578       54.887       37.697     1899.042     3012.632     1421.083        0.576        0.317       48.631       15.464        0.101      342.126       17.318      859.403
06/19/2013  12:17:00       11.284      -26.848       45.994       44.664       52.501       46.224     1994.874     2756.406     2136.672        0.492        0.344       29.123       32.304        1.230      342.316       17.641      859.407
06/19/2013  12:18:00       18.243       32.047       34.863       48.611       42.462       41.700     2363.032     1803.052     1738.903        0.424        0.295       36.876       26.788        0.528      342.355       17.707      859.390
06/19/2013  12:19:00       12.590       82.933       14.465       54.592       64.612       39.907     2980.337     4174.775     1592.592        0.799        0.437       83.883       38.454        0.210      342.241       17.514      859.388
06/19/2013  12:20:00        6.629       68.809       18.205       39.591       68.822       40.628     1567.439     4736.413     1650.610        0.653        0.398       69.128       43.393        0.394      342.528       18.002      859.378
06/19/2013  12:21:00       30.986      117.476      -16.040       39.739       71.962       43.460     1579.212     5178.476     1888.777        1.183        0.432      121.494       39.897        0.108      341.820       16.800      859.356
06/19/2013  12:22:00       45.259       45.545       24.647       74.050       47.649       30.751     5483.352     2270.403      945.613        0.671        0.435       64.208       22.215        0.120      342.221       17.478      859.346
06/19/2013  12:23:00       21.745      119.992       -4.676      132.006       75.872       41.484    17425.634     5756.600     1720.942        1.989        1.245      121.947       45.643        0.140      342.230       17.491      859.330
06/19/2013  12:24:00      -86.277       81.884       -8.974       50.121       52.399       34.152     2512.089     2745.672     1166.344        1.033        0.321      118.949       31.442        0.070      341.978       17.067      859.328
06/19/2013  12:25:00      -39.114      107.457       -7.445       42.245       68.484       33.875     1784.656     4690.088     1147.521        1.038        0.381      114.354       29.468        0.066      342.216       17.470      859.333
06/19/2013  12:26:00       -8.951       54.552        7.813       30.689       48.714       29.420      941.825     2373.014      865.513        0.365        0.209       55.282       19.512        0.125      342.526       17.999      859.333
06/19/2013  12:27:00      -10.960      -12.333       13.532       22.401       28.170       22.493      501.813      793.522      505.948        0.113        0.090       16.499       21.642        1.721      342.272       17.566      859.316
06/19/2013  12:28:00        1.834       31.054       14.776       39.007       42.472       28.818     1521.571     1803.840      830.483        0.267        0.208       31.108       30.500        0.961      342.702       18.296      859.302
06/19/2013  12:29:00       21.854        9.652       31.843       32.728       39.955       31.652     1071.113     1596.430     1001.876        0.263        0.183       23.891       18.953        0.629      342.568       18.069      859.315
06/19/2013  12:30:00       71.424       36.128       75.836       89.281       80.785       64.714     7971.017     6526.204     4187.840        1.542        0.934       80.041       51.880        0.420      342.209       17.459      859.271
06/19/2013  12:31:00     -179.674      -26.914      -11.175      123.176       80.186       43.115    15172.328     6429.820     1858.872        2.829        1.173      181.679       30.631        0.028      342.620       18.154      859.301
06/19/2013  12:32:00     -422.089     -149.731      -18.684      165.240      145.127       74.694    27304.106    21061.936     5579.131       12.743        2.697      447.860       78.568        0.031      342.166       17.382      859.346
06/19/2013  12:33:00     -422.036     -154.734      -17.273      151.478      105.466       70.029    22945.441    11123.129     4904.112       12.066        1.949      449.507       57.442        0.016      341.843       16.834      859.356
06/19/2013  12:34:00     -137.385     -129.317       -1.971      125.559      104.086       51.601    15765.107    10833.991     2662.679        3.243        1.463      188.673       50.060        0.070      341.965       17.042      859.360
06/19/2013  12:35:00     -325.405      -45.903      -12.422      231.514      115.675       80.552    53598.923    13380.658     6488.562        9.079        3.673      328.626       98.934        0.091      342.546       18.029      859.382
06/19/2013  12:36:00     -211.490      -41.200        1.929      117.362       72.853       53.407    13773.824     5307.617     2852.327        3.418        1.097      215.466       62.188        0.083      342.378       17.745      859.390
06/19/2013  12:37:00     -159.347      -61.933       13.392      134.580      106.364       55.761    18111.726    11313.293     3109.336        3.096        1.627      170.959       70.739        0.171      342.708       18.306      859.375
06/19/2013  12:38:00       33.068       50.744       27.976       55.427       47.770       56.743     3072.107     2281.951     3219.766        0.651        0.429       60.568       38.725        0.409      342.958       18.732      859.382
06/19/2013  12:39:00       -7.768       27.192       12.446       33.005       47.479       33.512     1089.363     2254.261     1123.065        0.271        0.223       28.280       30.659        1.175      343.038       18.869      859.366
06/19/2013  12:40:00        3.927       15.984       35.120       24.044       30.624       27.429      578.097      937.845      752.359        0.189        0.113       16.459        4.820        0.086      343.327       19.361      859.363
06/19/2013  12:41:00      -83.423     -115.955      -11.709       51.045       68.641       32.230     2605.624     4711.529     1038.745        1.445        0.418      142.846       29.707        0.043      342.011       17.122      859.366
06/19/2013  12:42:00      -86.020     -226.444        9.333       74.373       93.658       45.427     5531.364     8771.902     2063.622        3.756        0.818      242.232       46.680        0.037      341.854       16.853      859.356
06/19/2013  12:43:00     -171.152     -190.810       -2.559       96.186       80.180       43.987     9251.730     6428.890     1934.816        4.166        0.881      256.323       36.811        0.021      341.943       17.001      859.337
06/19/2013  12:44:00      -83.586      -70.017       -0.856       64.763       56.845       36.195     4194.257     3231.341     1310.076        1.031        0.437      109.037       38.369        0.124      342.039       17.169      859.304
06/19/2013  12:45:00      -23.122     -138.611      -16.171       51.519       54.698       41.705     2654.198     2991.877     1739.347        1.370        0.369      140.526       26.558        0.036      342.089       17.254      859.285
06/19/2013  12:46:00       23.253       49.210        2.732      107.244      108.249       55.018    11501.210    11717.879     3026.937        1.460        1.312       54.427       68.791        1.597      342.018       17.133      859.239
06/19/2013  12:47:00       39.861      -39.635       29.612       78.722       83.285       54.390     6197.218     6936.415     2958.273        1.006        0.805       56.212       54.141        0.928      342.105       17.282      859.178
06/19/2013  12:48:00       34.833      -79.996       20.837       68.358       69.170       44.899     4672.885     4784.475     2015.960        0.976        0.574       87.250       47.164        0.292      342.559       18.053      859.179
06/19/2013  12:49:00      -37.851     -111.736      -36.256       81.207       59.213       48.416     6594.589     3506.141     2344.090        1.384        0.622      117.973       36.312        0.095      342.643       18.196      859.171
06/19/2013  12:50:00      -31.474      -66.755       37.386       75.738       78.148       55.736     5736.192     6107.123     3106.504        1.089        0.747       73.803       48.940        0.440      342.996       18.797      859.165
06/19/2013  12:51:00       77.579      -84.715       -1.017       72.804       88.364       51.799     5300.441     7808.174     2683.188        1.449        0.790      114.869       60.688        0.279      342.473       17.906      859.188
06/19/2013  12:52:00      -19.527       26.380       37.835       44.028       28.529       24.811     1938.426      813.904      615.601        0.294        0.168       32.821       23.420        0.509      342.783       18.436      859.201
06/19/2013  12:53:00       -3.611      -74.015       10.460       58.244       55.473       49.571     3392.332     3077.279     2457.265        0.726        0.446       74.103       29.378        0.157      342.932       18.689      859.186
06/19/2013  12:54:00       76.766      -25.420       48.872       73.931      142.223       80.525     5465.791    20227.477     6484.219        2.055        1.609       80.865       86.056        1.132      342.395       17.772      859.135
06/19/2013  12:55:00       14.033       38.539      102.591       86.566      110.672       65.519     7493.625    12248.310     4292.749        1.812        1.202       41.014       64.744        2.492      342.929       18.683      859.064
06/19/2013  12:56:00      -19.046      -68.789       17.218       91.603       76.119       59.757     8391.120     5794.122     3570.922        1.157        0.888       71.376       55.031        0.594      343.235       19.204      859.067
06/19/2013  12:57:00        4.708      -55.239       46.012       37.428      119.012       44.343     1400.869    14163.913     1966.301        1.136        0.877       55.439       58.078        1.097      343.445       19.561      859.083
06/19/2013  12:58:00       10.866       75.542       25.556       58.294       85.575       47.640     3398.214     7323.151     2269.548        0.973        0.650       76.319       49.253        0.416      343.326       19.358      859.110
06/19/2013  12:59:00      -64.524     -164.298       12.977       93.753      128.274       49.885     8789.558    16454.112     2488.524        2.952        1.387      176.514       51.068        0.084      342.597       18.116      859.127
06/19/2013  13:00:00     -355.156        6.676       -3.060      188.888      116.074       74.191    35678.620    13473.215     5504.305        9.041        2.733      355.218       80.795        0.052      342.525       17.994      859.101
06/19/2013  13:01:00     -390.530      -96.219      -10.198      112.831       82.799       53.611    12730.865     6855.717     2874.123        9.216        1.123      402.209       53.518        0.018      342.202       17.444      859.099
06/19/2013  13:02:00     -221.729     -160.872       20.590      143.958      148.543       73.207    20723.951    22065.162     5359.204        6.180        2.407      273.941       67.822        0.061      342.543       18.024      859.102
06/19/2013  13:03:00     -242.756     -151.056       -0.657      131.741      127.492       59.678    17355.790    16254.284     3561.408        5.945        1.859      285.917       70.523        0.061      342.239       17.506      859.138
06/19/2013  13:04:00     -227.951     -171.078       -4.026      127.598       82.419       61.670    16281.144     6792.888     3803.212        5.406        1.344      285.007       67.683        0.056      342.253       17.530      859.134
06/19/2013  13:05:00     -269.800     -181.920       -9.323      146.279      161.160       75.800    21397.613    25972.424     5745.607        7.953        2.656      325.402       72.886        0.050      342.379       17.745      859.120
06/19/2013  13:06:00     -287.951     -227.325      -12.240      134.064      105.330       56.359    17973.263    11094.459     3176.372        8.349        1.612      366.869       69.290        0.036      342.381       17.747      859.127
06/19/2013  13:07:00     -198.000     -161.544        3.116      124.120      111.145       65.042    15405.894    12353.142     4230.464        4.864        1.599      255.540       67.720        0.070      342.557       18.047      859.091
06/19/2013  13:08:00     -215.024      -33.838       -0.795      134.400       88.486       57.079    18063.370     7829.787     3258.042        3.826        1.458      217.670       58.132        0.071      342.801       18.462      859.096
06/19/2013  13:09:00      -89.790     -219.913       -1.477      164.052      165.086       68.060    26912.916    27253.538     4632.146        5.760        2.940      237.538       82.476        0.121      342.625       18.164      859.134
06/19/2013  13:10:00      -31.352     -144.622       12.501       84.192       81.819       65.130     7088.303     6694.393     4241.972        2.004        0.901      147.981       34.271        0.054      342.422       17.820      859.170
06/19/2013  13:11:00      -16.477       -3.405       16.445       62.673       36.769       36.871     3927.844     1351.932     1359.496        0.360        0.332       16.825       39.022        5.379      342.778       18.425      859.154
06/19/2013  13:12:00      -10.111        2.036        0.323       49.916       30.810       24.530     2491.620      949.255      601.738        0.207        0.202       10.314        8.541        0.686      342.617       18.151      859.126
06/19/2013  13:13:00      -87.265        1.675      -11.315       44.009       23.836       20.841     1936.780      568.149      434.336        0.534        0.147       87.281       23.754        0.074      342.072       17.226      859.120
06/19/2013  13:14:00      -17.179       42.861       18.494       47.558       76.612       36.498     2261.719     5869.370     1332.118        0.597        0.473       46.176       33.256        0.519      342.803       18.469      859.112
06/19/2013  13:15:00      -74.054       17.021       -1.708       31.355       37.758       25.581      983.148     1425.645      654.362        0.442        0.153       75.984       17.386        0.052      342.483       17.925      859.104
06/19/2013  13:16:00     -117.778      -53.656        1.755       76.458       61.592       43.006     5845.794     3793.517     1849.485        1.412        0.574      129.424       38.739        0.090      342.724       18.333      859.103
06/19/2013  13:17:00      -12.327      -59.502      -11.272       92.357       32.898       30.565     8529.844     1082.250      934.235        0.718        0.527       60.765       28.408        0.219      342.357       17.711      859.103
06/19/2013  13:18:00        4.778       47.529       27.211       27.055       40.980       28.491      731.954     1679.367      811.719        0.312        0.161       47.768       25.263        0.280      343.450       19.572      859.075
06/19/2013  13:19:00       56.994       68.611       -0.376       51.043       58.037       40.962     2605.383     3368.330     1677.852        0.780        0.383       89.195       45.591        0.261      342.935       18.693      859.045
06/19/2013  13:20:00       40.213      102.209       -1.922       45.565       56.788       32.863     2076.150     3224.835     1079.991        0.922        0.319      109.836       25.667        0.055      342.560       18.055      859.004
06/19/2013  13:21:00       79.540       80.806       28.218       75.119       56.785       44.457     5642.881     3224.522     1976.428        1.225        0.542      113.385       34.555        0.093      342.450       17.867      858.952
06/19/2013  13:22:00       11.308       60.437       57.810       46.659       47.031       50.519     2177.052     2211.951     2552.196        0.703        0.347       61.486       23.989        0.152      342.949       18.718      858.952
06/19/2013  13:23:00      -44.095      -27.982       16.014       49.463       43.523       32.730     2446.628     1894.242     1071.258        0.420        0.271       52.224       25.473        0.238      342.940       18.702      858.978
06/19/2013  13:24:00       -5.016      -21.363       20.227       52.772       36.243       26.835     2784.928     1313.590      720.119        0.285        0.241       21.944       23.724        1.169      342.671       18.246      859.005
06/19/2013  13:25:00      -75.275      -40.218       -9.639       38.780       24.913       21.099     1503.912      620.667      445.165        0.497        0.128       85.346       19.565        0.053      342.766       18.406      858.993
06/19/2013  13:26:00      -86.317      -26.788        3.703       47.287       45.929       26.978     2236.063     2109.498      727.798        0.663        0.254       90.379       20.014        0.049      342.973       18.758      858.977
06/19/2013  13:27:00      -88.138      -41.150       10.281       44.962       44.912       31.280     2021.624     2017.102      978.418        0.729        0.251       97.271       27.595        0.080      343.161       19.076      858.979
06/19/2013  13:28:00      -17.410       25.799       -9.512       45.537       72.074       30.879     2073.594     5194.690      953.539        0.464        0.411       31.124       33.238        1.140      342.942       18.707      858.977
06/19/2013  13:29:00     -199.773     -103.317      -11.742      131.051      109.473       44.142    17174.417    11984.374     1948.502        4.091        1.555      224.908       25.976        0.013      343.078       18.936      858.998
06/19/2013  13:30:00     -165.367      -84.873      -14.945      112.092       78.160       39.488    12564.673     6108.919     1559.331        2.750        1.012      185.875       49.416        0.071      342.444       17.855      859.008
06/19/2013  13:31:00     -199.407     -196.989       11.312      169.716      140.775       61.846    28803.681    19817.482     3824.908        6.556        2.622      280.300       53.278        0.036      342.832       18.516      858.966
06/19/2013  13:32:00     -262.295     -187.739       -8.883      135.070      102.198       62.788    18244.038    10444.382     3942.274        6.837        1.632      322.559       60.009        0.035      342.979       18.765      858.994
06/19/2013  13:33:00      -80.667     -152.272       22.034      118.072      118.703       67.648    13941.076    14090.420     4576.290        3.139        1.630      172.319       62.415        0.131      343.064       18.911      859.047
06/19/2013  13:34:00     -190.428      -62.465      -16.628      105.866       69.085       50.033    11207.588     4772.685     2503.346        2.946        0.924      200.412       51.707        0.067      342.816       18.489      859.021
06/19/2013  13:35:00     -195.199      -67.465       -1.241      117.820       81.494       56.714    13881.482     6641.259     3216.506        3.319        1.187      206.529       59.755        0.084      342.823       18.501      858.976
06/19/2013  13:36:00     -147.996      -10.144       -9.190       70.775       55.961       30.188     5009.092     3131.629      911.287        1.557        0.453      148.343       32.711        0.049      342.479       17.917      858.985
06/19/2013  13:37:00      -44.817      -64.779        4.206       47.360       40.912       28.102     2242.979     1673.795      789.701        0.546        0.235       78.771       18.000        0.052      342.547       18.033      858.945
06/19/2013  13:38:00      -20.798       26.439        7.954       59.110       34.839       37.991     3493.953     1213.753     1443.310        0.367        0.308       33.638       42.865        1.624      342.864       18.573      858.936
06/19/2013  13:39:00     -141.410      124.824      -16.439      136.176      166.444       64.555    18544.025    27703.636     4167.392        4.312        2.521      188.621       75.608        0.161      343.142       19.044      858.911
06/19/2013  13:40:00     -194.612      101.816      -23.418      114.259       67.275       42.968    13055.095     4525.898     1846.262        3.410        0.971      219.637       48.029        0.048      342.499       17.948      858.928
06/19/2013  13:41:00      -50.086      139.283      -12.395       37.231       83.611       38.270     1386.139     6990.847     1464.601        1.595        0.492      148.015       32.248        0.047      342.915       18.660      858.940
06/19/2013  13:42:00      -53.622      131.174      -22.043       45.681       89.324       38.180     2086.777     7978.783     1457.679        1.604        0.576      141.711       15.074        0.011      342.565       18.062      858.939
06/19/2013  13:43:00      -92.460      104.466       -9.804       48.306       54.682       33.702     2333.424     2990.174     1135.821        1.301        0.323      139.507       24.302        0.030      342.693       18.281      858.935
06/19/2013  13:44:00      -38.163       94.770      -16.603       33.811       71.508       30.723     1143.203     5113.454      943.898        0.896        0.360      102.166       22.494        0.048      342.624       18.164      858.937
06/19/2013  13:45:00       18.067       24.853       -2.573       23.349       24.060       32.811      545.153      578.898     1076.552        0.158        0.110       30.726       19.222        0.391      342.728       18.342      858.921
06/19/2013  13:46:00      -22.345        6.101       34.164       41.575       20.058       23.740     1728.465      402.311      563.610        0.220        0.135       23.163       24.499        1.119      343.269       19.262      858.927
06/19/2013  13:47:00      -22.622      -16.603       20.076       50.582       33.301       36.777     2558.539     1108.952     1352.543        0.310        0.251       28.061       31.141        1.232      343.080       18.939      858.931
06/19/2013  13:48:00      -50.427      -12.736        8.254       49.002       27.367       23.498     2401.244      748.968      552.135        0.324        0.185       52.011       26.102        0.252      342.934       18.691      858.926
06/19/2013  13:49:00      -81.339     -111.729        0.509      103.618       87.438       37.995    10736.788     7645.475     1443.638        1.946        0.991      138.201       52.326        0.143      342.801       18.464      858.945
06/19/2013  13:50:00     -116.914     -117.419       -5.153       87.743       57.099       47.628     7698.773     3260.268     2268.404        2.035        0.661      165.699       41.944        0.064      342.677       18.253      858.959
06/19/2013  13:51:00      -30.214      -28.600       13.483       51.760       45.600       29.971     2679.064     2079.393      898.286        0.378        0.283       41.603       33.114        0.634      343.106       18.983      858.952
06/19/2013  13:52:00     -141.475      -26.582       -2.952      109.575       92.630       44.972    12006.600     8580.288     2022.521        2.167        1.130      143.951       49.931        0.120      343.315       19.339      858.975
06/19/2013  13:53:00     -183.787     -150.738       18.807      122.893      147.444       63.629    15102.654    21739.656     4048.613        4.886        2.045      237.697       58.681        0.061      343.055       18.894      859.006
06/19/2013  13:54:00     -128.305     -242.241      -11.539      105.682      136.767       52.025    11168.684    18705.211     2706.570        5.392        1.629      274.122       54.433        0.039      342.934       18.690      859.010
06/19/2013  13:55:00     -123.339     -233.625        7.603       86.112      122.405       57.287     7415.329    14982.888     3281.752        4.776        1.284      264.184       48.657        0.034      342.746       18.368      859.005
06/19/2013  13:56:00     -101.320      -89.349       14.371       81.639       95.655       49.578     6664.924     9149.881     2457.988        1.836        0.914      135.089       47.760        0.125      343.206       19.155      858.973
06/19/2013  13:57:00       24.840      -49.499       21.793       80.858       71.427       43.403     6538.038     5101.797     1883.828        0.853        0.676       55.382       31.224        0.318      343.180       19.110      858.955
06/19/2013  13:58:00       14.403       -5.194       45.683       86.995      101.605       58.015     7568.175    10323.666     3365.791        1.179        1.063       15.311       64.360       17.669      343.411       19.504      858.950
06/19/2013  13:59:00     -207.477      -84.414        0.041      142.937      115.412       61.896    20431.105    13319.968     3831.118        4.387        1.879      223.992       69.379        0.096      343.280       19.279      858.967
06/19/2013  14:00:00     -133.905     -141.948       10.901      102.481      102.933       63.630    10502.446    10595.280     4048.759        3.167        1.257      195.140       61.766        0.100      343.008       18.816      858.991
06/19/2013  14:01:00     -201.397     -176.679       20.469      206.493      131.371       98.869    42639.283    17258.296     9775.086        7.092        3.484      267.910      113.374        0.179      342.980       18.768      858.996
06/19/2013  14:02:00     -110.666       77.898       -3.660      137.568       96.405       75.474    18925.027     9293.989     5696.346        2.612        1.696      135.333       83.165        0.378      343.220       19.177      858.941
06/19/2013  14:03:00     -115.230       39.881       32.273      121.969      129.872       74.635    14876.442    16866.665     5570.331        2.660        1.866      121.937       59.838        0.241      343.812       20.186      858.948
06/19/2013  14:04:00     -326.190      -54.369      -16.153      168.728       93.140       67.515    28468.993     8675.127     4558.262        7.565        2.085      330.690       61.439        0.035      343.551       19.741      858.959
06/19/2013  14:05:00     -505.612     -149.323      -25.378      171.559      154.246       66.338    29432.320    23791.803     4400.752       16.809        2.881      527.201       55.799        0.011      342.941       18.701      858.942
06/19/2013  14:06:00     -342.747      -94.806      -15.600      165.737      183.414       76.528    27468.698    33640.751     5856.531        9.682        3.348      355.617       75.051        0.045      342.993       18.788      858.939
06/19/2013  14:07:00     -295.681      -52.469        1.942      156.604      113.800       61.981    24524.895    12950.340     3841.649        6.574        2.066      300.300       68.195        0.052      343.497       19.648      858.909
06/19/2013  14:08:00     -269.595      -23.690      -31.899      165.100      102.505       61.743    27258.131    10507.173     3812.239        5.791        2.079      270.634       79.122        0.085      343.424       19.522      858.922
06/19/2013  14:09:00     -203.331        8.123      -16.413       67.687       52.865       40.198     4581.490     2794.756     1615.855        2.533        0.450      203.493       38.042        0.035      342.795       18.453      858.929
06/19/2013  14:10:00     -158.696      -13.869       -0.356      140.001       70.924       53.074    19600.366     5030.265     2816.855        2.641        1.372      159.301       65.326        0.168      343.439       19.551      858.912
06/19/2013  14:11:00     -245.165     -103.419       -7.084      136.545       87.115       50.028    18644.647     7588.955     2502.831        4.979        1.437      266.086       53.931        0.041      342.921       18.666      858.887
06/19/2013  14:12:00      -15.717      -64.801        9.948       50.601       57.473       41.692     2560.454     3303.141     1738.223        0.607        0.380       66.680       42.179        0.400      343.197       19.139      858.871
06/19/2013  14:13:00     -132.810     -252.326        2.107      116.691      103.687       61.768    13616.861    10751.019     3815.255        5.474        1.409      285.144       67.442        0.056      342.883       18.602      858.896
06/19/2013  14:14:00     -254.570     -228.779       -5.687      114.794      126.891       61.302    13177.676    16101.342     3757.888        7.510        1.652      342.265       57.119        0.028      343.083       18.942      858.899
06/19/2013  14:15:00     -261.079     -120.454        5.979      147.841      122.277       69.057    21857.099    14951.762     4768.806        6.213        2.079      287.526       80.706        0.079      343.534       19.710      858.920
06/19/2013  14:16:00     -147.296     -279.262       19.775      138.104      174.294       84.946    19072.650    30378.531     7215.789        7.836        2.833      315.726       84.982        0.072      343.199       19.141      858.947
06/19/2013  14:17:00      -67.681     -297.410      -14.876      138.000      135.710       65.982    19044.057    18417.232     4353.628        6.753        2.091      305.014       42.731        0.020      343.009       18.816      858.958
06/19/2013  14:18:00     -105.574     -189.438        3.398      127.651      119.923       58.566    16294.828    14381.414     3430.007        4.057        1.705      216.870       49.648        0.052      342.879       18.595      858.973
06/19/2013  14:19:00     -143.733      -95.497      -13.793      104.398       53.167       42.189    10898.854     2826.748     1779.903        2.273        0.775      172.565       44.490        0.066      342.805       18.470      858.914
06/19/2013  14:20:00     -166.585     -116.276       -0.137       94.882       83.082       37.784     9002.586     6902.649     1427.625        2.930        0.867      203.151       42.769        0.044      342.811       18.478      858.913
06/19/2013  14:21:00     -220.287     -199.041       -4.306      130.478      128.469       79.274    17024.598    16504.236     6284.392        6.398        1.991      296.890       80.924        0.074      343.041       18.872      858.913
06/19/2013  14:22:00     -259.165     -140.133      -15.323      144.859      140.001       62.058    20984.041    19600.143     3851.178        6.573        2.222      294.624       77.071        0.068      343.195       19.133      858.926
06/19/2013  14:23:00     -123.219     -241.422       -3.083       73.198       77.982       49.206     5357.983     6081.163     2421.185        4.367        0.693      271.049       39.545        0.021      342.948       18.712      858.948
06/19/2013  14:24:00      -24.784     -173.876       -3.725      107.476       66.130       46.630    11551.167     4373.223     2174.328        2.448        0.905      175.633       44.569        0.064      343.200       19.142      858.923
06/19/2013  14:25:00      -68.284      -84.936      -29.684       90.332       92.878       36.446     8159.957     8626.253     1328.294        1.543        0.906      108.981       30.000        0.076      343.420       19.520      858.899
06/19/2013  14:26:00     -277.513      -60.956      -19.703      103.186      103.291       51.366    10647.287    10668.962     2638.491        5.253        1.198      284.128       53.657        0.036      343.067       18.914      858.896
06/19/2013  14:27:00     -113.443        0.541      -18.890      131.738       89.018       52.117    17354.795     7924.161     2716.184        2.061        1.400      113.444       35.957        0.100      343.499       19.653      858.866
06/19/2013  14:28:00     -289.520     -189.066      -24.536      196.402      137.267       71.615    38573.790    18842.233     5128.730        9.134        3.127      345.786       76.288        0.049      343.335       19.371      858.897
06/19/2013  14:29:00     -424.995     -221.026      -15.236      204.514      142.483       78.076    41825.831    20301.320     6095.838       14.895        3.411      479.033       91.064        0.036      343.135       19.030      858.917
06/19/2013  14:30:00     -213.636     -127.876        1.332      164.653      138.685       77.888    27110.757    19233.608     6066.540        5.719        2.621      248.984       86.805        0.122      343.370       19.432      858.910
06/19/2013  14:31:00     -342.110     -234.371       -4.050      207.300      145.849       87.594    42973.188    21271.893     7672.733       12.194        3.596      414.692      106.316        0.066      343.076       18.931      858.911
06/19/2013  14:32:00     -231.456     -153.061       -0.349      174.063      128.344       87.342    30297.890    16472.174     7628.694        6.569        2.720      277.488       99.211        0.128      343.551       19.739      858.892
06/19/2013  14:33:00     -169.980     -158.467       22.675      149.605      141.193       71.660    22381.767    19935.574     5135.125        5.098        2.373      232.390       69.962        0.091      343.413       19.504      858.906
06/19/2013  14:34:00     -306.079       35.959      -31.367      167.482       90.959       59.132    28050.171     8273.617     3496.557        6.788        1.991      308.184       76.406        0.061      343.484       19.625      858.939
06/19/2013  14:35:00     -388.058      -88.416      -20.150       94.758       68.003       44.963     8979.068     4624.362     2021.684        8.722        0.781      398.003       48.857        0.015      342.796       18.452      858.917
06/19/2013  14:36:00     -385.208      -77.913      -19.496       87.170       95.902       48.514     7598.527     9197.168     2353.650        8.699        0.957      393.009       40.420        0.011      342.941       18.698      858.911
06/19/2013  14:37:00     -239.374       86.631      -31.384       77.709       89.288       47.279     6038.764     7972.361     2235.266        4.101        0.812      254.568       29.624        0.014      342.981       18.767      858.884
06/19/2013  14:38:00     -146.438       77.634       -7.384       60.305       62.654       35.202     3636.673     3925.477     1239.196        1.816        0.440      165.744       24.583        0.022      343.243       19.215      858.841
06/19/2013  14:39:00     -145.056      -58.854       -3.061       81.092       65.081       38.608     6575.861     4235.549     1490.540        1.841        0.615      156.541       32.520        0.043      343.598       19.820      858.886
06/19/2013  14:40:00     -238.738     -116.112      -15.815       81.255       90.906       41.292     6602.412     8263.906     1705.008        4.365        0.829      265.477       47.646        0.032      343.310       19.326      858.907
06/19/2013  14:41:00      -49.821      -84.291       15.517      158.968       96.688       62.970    25270.858     9348.582     3965.202        2.420        1.929       97.914       45.552        0.216      343.483       19.623      858.905
06/19/2013  14:42:00        3.916     -162.915       -4.854      145.371      115.778       77.857    21132.764    13404.584     6061.712        3.358        2.030      162.962       70.670        0.188      343.332       19.369      858.859
06/19/2013  14:43:00     -129.860      -94.109       -1.786      118.043       98.590       54.524    13934.246     9719.899     2972.889        2.617        1.331      160.375       61.714        0.148      343.566       19.767      858.856
06/19/2013  14:44:00     -355.163     -125.064      -12.982      207.483       96.837       75.241    43049.007     9377.325     5661.267       10.001        2.904      376.539       87.618        0.054      342.919       18.664      858.862
06/19/2013  14:45:00     -344.993      -25.379      -34.303      133.155      103.610       57.001    17730.294    10735.130     3249.097        7.627        1.586      345.925       67.924        0.039      342.908       18.644      858.837
06/19/2013  14:46:00     -347.127       40.268      -35.140       94.992       69.385       40.507     9023.486     4814.253     1640.844        6.941        0.774      349.455       39.343        0.013      342.804       18.468      858.804
06/19/2013  14:47:00     -237.263      -41.563       -0.249      132.236      101.000       55.913    17486.437    10200.946     3126.245        4.441        1.541      240.876       61.813        0.066      343.306       19.322      858.779
06/19/2013  14:48:00     -300.771      -60.684      -32.280       86.977       74.518       47.462     7564.965     5552.958     2252.668        5.528        0.769      306.832       43.435        0.020      342.993       18.788      858.784
06/19/2013  14:49:00     -146.482     -135.856      -14.558      102.683      102.911       60.655    10543.749    10590.742     3679.058        3.246        1.241      199.784       45.150        0.051      343.360       19.413      858.800
06/19/2013  14:50:00     -173.061     -162.424       -6.787      119.042       96.866       52.099    14170.900     9383.091     2714.298        4.132        1.313      237.343       47.240        0.040      343.332       19.366      858.827
06/19/2013  14:51:00      -22.265      -93.897        4.948      164.878       99.618       76.641    27184.762     9923.734     5873.815        2.615        2.149       96.501       79.999        0.687      343.484       19.627      858.792
06/19/2013  14:52:00       -8.528      -87.209       29.007       75.580       83.205       59.448     5712.263     6923.045     3534.074        1.234        0.808       87.625       50.366        0.330      343.831       20.219      858.803
06/19/2013  14:53:00     -184.809     -157.369      -19.552      114.395       78.401       53.434    13086.216     6146.716     2855.174        4.069        1.104      242.733       55.324        0.052      343.419       19.515      858.840
06/19/2013  14:54:00     -123.688       32.497       -7.550       69.862       60.004       46.642     4880.722     3600.467     2175.469        1.353        0.533      127.886       43.473        0.116      342.884       18.608      858.813
06/19/2013  14:55:00      -49.475       17.837       14.480       48.033       46.975       24.497     2307.136     2206.679      600.117        0.404        0.256       52.592       17.103        0.106      343.512       19.676      858.780
06/19/2013  14:56:00      -81.538      -78.000       -4.299       94.070       53.857       43.092     8849.073     2900.543     1856.910        1.318        0.680      112.838       33.774        0.090      343.336       19.374      858.763
06/19/2013  14:57:00       35.306       26.144       33.106       85.495      101.772       43.620     7309.343    10357.498     1902.726        1.129        0.978       43.932       32.963        0.563      343.539       19.720      858.706
06/19/2013  14:58:00       28.763     -114.776       24.092       65.757      144.772       79.617     4323.958    20958.850     6338.875        2.309        1.581      118.325       84.803        0.514      343.547       19.734      858.631
06/19/2013  14:59:00     -261.248     -111.535      -26.069      165.157      117.243       54.209    27276.973    13745.898     2938.594        6.266        2.198      284.060       28.596        0.010      343.701       19.995      858.655
06/19/2013  15:00:00     -400.962     -134.633      -11.912      142.083      127.731       66.660    20187.662    16315.139     4443.505       10.998        2.047      422.962       69.501        0.027      343.279       19.274      858.742
06/19/2013  15:01:00     -397.958     -151.214       -6.846      189.493      132.396       79.523    35907.432    17528.631     6323.835       12.051        2.988      425.718       86.562        0.041      343.513       19.675      858.776
06/19/2013  15:02:00     -402.610     -211.682        1.637      168.615      129.476       84.955    28430.932    16763.996     7217.273       12.965        2.621      454.867       93.886        0.043      343.192       19.126      858.788
06/19/2013  15:03:00     -303.824     -178.462      -23.072      135.152      117.635       67.696    18265.998    13837.887     4582.812        8.068        1.834      352.360       65.974        0.035      343.124       19.012      858.797
06/19/2013  15:04:00     -157.429     -198.649       -9.224      109.916      101.025       56.629    12081.499    10206.094     3206.841        4.491        1.275      253.467       59.174        0.055      343.365       19.423      858.753
06/19/2013  15:05:00      -28.790      -90.341        6.207       98.093       49.188       41.101     9622.286     2419.431     1689.288        1.138        0.687       94.818       49.709        0.275      343.656       19.919      858.707
06/19/2013  15:06:00     -128.077      -59.347        0.880       81.727       57.813       31.416     6679.364     3342.331      986.965        1.547        0.550      141.159       34.902        0.061      343.819       20.197      858.702
06/19/2013  15:07:00      -15.818      -73.748       18.335      108.834      124.032       58.225    11844.896    15383.989     3390.169        1.832        1.531       75.425       60.975        0.654      343.902       20.341      858.701
06/19/2013  15:08:00     -216.196     -139.186       -8.320      167.366      156.511       78.847    28011.460    24495.620     6216.857        6.244        2.936      257.126       74.283        0.083      343.494       19.641      858.689
06/19/2013  15:09:00     -230.680     -190.933       16.762      154.496      157.099       62.708    23868.900    24679.981     3932.338        7.121        2.624      299.448       72.111        0.058      343.531       19.706      858.701
06/19/2013  15:10:00     -266.535     -203.760        9.949      158.989      122.385       79.163    25277.419    14978.112     6266.765        7.958        2.326      335.498       72.271        0.046      343.476       19.611      858.688
06/19/2013  15:11:00     -132.285     -164.751       14.565      161.006      146.092       76.877    25922.957    21342.998     5910.002        4.900        2.659      211.287       70.929        0.113      343.756       20.087      858.664
06/19/2013  15:12:00     -262.602     -169.306       -1.947      183.777      118.908       77.430    33774.007    14139.177     5995.339        7.576        2.695      312.449       84.176        0.073      343.686       19.971      858.701
06/19/2013  15:13:00     -248.630      -82.525       -1.552      139.304      106.269       66.524    19405.601    11293.168     4425.412        5.187        1.756      261.968       74.354        0.081      343.661       19.925      858.717
06/19/2013  15:14:00     -215.454     -211.446      -15.322      140.629      106.148       60.471    19776.656    11267.465     3656.750        6.303        1.735      301.877       56.777        0.035      343.398       19.477      858.709
06/19/2013  15:15:00     -285.060     -208.774       -9.500      128.190      112.337       63.073    16432.745    12619.671     3978.165        7.898        1.652      353.335       56.431        0.026      343.321       19.345      858.698
06/19/2013  15:16:00     -189.127     -110.616       -5.004      132.152      118.324       59.018    17464.210    14000.645     3483.118        4.148        1.747      219.101       40.668        0.034      343.461       19.585      858.753
06/19/2013  15:17:00      -96.851      -18.617        7.371       95.956       54.908       45.672     9207.463     3014.935     2085.962        1.204        0.715       98.624       39.598        0.161      343.795       20.158      858.759
06/19/2013  15:18:00      -40.555     -127.262        5.166       45.225       52.025       26.655     2045.342     2706.575      710.468        1.166        0.273      133.568       21.080        0.025      343.585       19.801      858.724
06/19/2013  15:19:00      -63.153     -152.945       30.384      107.842      108.997       63.942    11629.945    11880.345     4088.533        2.795        1.380      165.471       63.946        0.149      343.786       20.141      858.737
06/19/2013  15:20:00     -141.354     -115.884       -1.386      126.504      102.250       54.507    16003.294    10454.994     2970.960        3.141        1.471      182.784       53.149        0.085      343.792       20.151      858.756
06/19/2013  15:21:00     -213.091     -208.973        3.223      146.111      124.889       63.224    21348.334    15597.300     3997.278        6.501        2.047      298.459       57.744        0.037      343.794       20.154      858.772
06/19/2013  15:22:00     -250.719     -175.124      -12.282      121.383      108.940       69.337    14733.714    11867.969     4807.628        6.254        1.570      305.824       49.201        0.026      343.393       19.471      858.766
06/19/2013  15:23:00     -103.799     -121.210        2.977       78.077       90.742       45.110     6096.044     8234.193     2034.916        2.092        0.818      159.581       38.856        0.059      343.492       19.640      858.742
06/19/2013  15:24:00      -16.434      -64.657      -20.978       94.634       76.640       53.792     8955.527     5873.687     2893.633        1.130        0.886       66.713       49.100        0.542      343.876       20.297      858.704
06/19/2013  15:25:00      -56.182      -34.459       25.773       70.533       61.928       43.784     4974.836     3835.071     1917.053        0.787        0.536       65.908       37.989        0.332      343.991       20.492      858.699
06/19/2013  15:26:00      -54.284     -101.969      -15.794       49.483       64.663       43.018     2448.581     4181.248     1850.555        1.104        0.424      115.518       30.568        0.070      343.856       20.263      858.700
06/19/2013  15:27:00     -135.362     -168.284      -11.963      161.162       93.377       59.063    25973.065     8719.205     3488.479        4.248        1.909      215.968       52.320        0.059      343.437       19.545      858.688
06/19/2013  15:28:00     -103.965     -175.191       17.714      120.681      137.325       55.592    14563.883    18858.074     3090.469        3.916        1.826      203.717       47.985        0.055      343.599       19.820      858.687
06/19/2013  15:29:00      -69.329     -186.057       10.024      130.532      137.956       65.438    17038.592    19031.897     4282.146        3.993        2.018      198.554       54.288        0.075      343.656       19.920      858.731
06/19/2013  15:30:00       36.828     -197.297       -8.427      110.112      115.834       76.048    12124.576    13417.531     5783.350        3.583        1.566      200.705       53.768        0.072      343.534       19.712      858.718
06/19/2013  15:31:00      -35.335     -327.901      -20.175      208.518      176.228       67.963    43479.727    31056.276     4618.933        9.415        3.958      329.800       50.459        0.023      343.406       19.491      858.721
06/19/2013  15:32:00     -270.495     -171.841        3.504      174.544      125.349       75.868    30465.686    15712.375     5755.937        7.731        2.597      320.464       66.106        0.043      343.583       19.794      858.708
06/19/2013  15:33:00     -282.109     -184.798        0.383      207.051      154.513       72.113    42870.004    23874.288     5200.215        9.283        3.597      337.248       83.457        0.061      343.331       19.363      858.705
06/19/2013  15:34:00     -247.068     -223.671       -6.341      167.354      142.699       85.250    28007.442    20363.034     7267.581        8.336        2.782      333.274       73.671        0.049      343.543       19.726      858.701
06/19/2013  15:35:00     -281.302     -210.053      -13.837      188.476      134.682       71.400    35523.033    18139.330     5098.006        9.109        2.938      351.074       58.193        0.027      343.228       19.188      858.710
06/19/2013  15:36:00     -133.915     -185.138       -2.430      111.937       95.548       61.508    12530.003     9129.446     3783.294        3.882        1.272      228.494       40.373        0.031      343.388       19.462      858.674
06/19/2013  15:37:00     -190.505     -151.640       -9.468      122.559      106.983       61.937    15020.826    11445.392     3836.219        4.483        1.515      243.488       62.362        0.066      343.629       19.871      858.638
06/19/2013  15:38:00     -162.518     -125.676       -7.234      162.378      119.874       75.304    26366.719    14369.733     5670.690        4.432        2.320      205.442       65.620        0.102      343.913       20.357      858.615
06/19/2013  15:39:00     -157.012     -262.684       13.452      158.769      182.326       83.169    25207.734    33242.773     6917.143        7.959        3.268      306.032       83.318        0.074      343.709       20.008      858.649
06/19/2013  15:40:00     -186.719     -249.354       18.500      186.978      155.227       93.395    34960.914    24095.431     8722.710        8.257        3.389      311.515       83.205        0.071      343.792       20.150      858.645
06/19/2013  15:41:00     -270.916     -199.349       -8.425      148.615      128.541       67.617    22086.427    16522.794     4572.115        7.819        2.159      336.356       58.752        0.031      343.337       19.375      858.675
06/19/2013  15:42:00     -339.809       -7.807      -28.151      138.215      145.469       50.810    19103.380    21161.360     2581.685        7.958        2.142      339.899       51.273        0.023      343.200       19.139      858.658
06/19/2013  15:43:00     -248.261     -105.018       -4.634      101.895      112.645       55.968    10382.548    12688.846     3132.423        4.944        1.310      269.559       54.628        0.041      343.462       19.587      858.692
06/19/2013  15:44:00     -184.841     -148.485       -6.962      134.227      109.398       52.574    18016.936    11967.814     2764.049        4.450        1.637      237.095       62.996        0.071      343.414       19.504      858.749
06/19/2013  15:45:00      -80.492      -99.082        4.010      122.612      104.592       61.692    15033.648    10939.418     3805.864        2.304        1.489      127.657       65.260        0.261      343.786       20.142      858.720
06/19/2013  15:46:00        6.139     -103.187       20.694      117.150       87.872       74.848    13724.006     7721.559     5602.209        1.908        1.352      103.370       56.011        0.294      343.813       20.188      858.711
06/19/2013  15:47:00     -230.621     -174.373       -4.932      132.365      112.896       62.713    17520.572    12745.560     3932.982        5.890        1.710      289.122       65.005        0.051      343.377       19.442      858.720
06/19/2013  15:48:00     -304.705     -167.851       -9.263      130.154      133.259       65.262    16940.137    17757.860     4259.110        8.002        1.948      347.878       66.866        0.037      343.233       19.197      858.711
06/19/2013  15:49:00     -160.741      -79.040       16.131      141.194       84.192       57.253    19935.802     7088.317     3277.954        3.132        1.515      179.123       65.210        0.133      343.620       19.858      858.686
06/19/2013  15:50:00     -220.664     -190.076        5.346      187.515      151.960       77.824    35161.882    23091.834     6056.560        7.457        3.216      291.242       70.723        0.059      343.828       20.212      858.653
06/19/2013  15:51:00     -295.203     -347.871       -9.853      182.150      185.261       81.685    33178.589    34321.686     6672.487       14.120        3.709      456.244       72.447        0.025      343.558       19.750      858.620
06/19/2013  15:52:00     -373.955     -255.910       -2.008      188.744      175.488       89.217    35624.301    30796.169     7959.720       13.984        3.719      453.136       98.153        0.047      343.449       19.566      858.616
06/19/2013  15:53:00     -462.308     -297.659      -11.831      214.880      155.821       87.889    46173.272    24280.280     7724.466       19.031        3.909      549.845       86.558        0.025      343.324       19.353      858.598
06/19/2013  15:54:00     -271.291     -298.335       -0.534      165.134      158.691       71.176    27269.201    25182.845     5066.050       11.005        2.876      403.240       74.124        0.034      343.418       19.513      858.625
06/19/2013  15:55:00     -494.943     -202.996      -18.356      247.249      156.239       93.231    61132.028    24410.773     8692.061       19.036        4.712      534.954       99.232        0.034      343.440       19.549      858.622
06/19/2013  15:56:00     -347.091     -143.530       -2.685      197.251      145.043       74.432    38908.144    21037.461     5540.142       10.327        3.274      375.597       83.626        0.050      343.275       19.269      858.686
06/19/2013  15:57:00     -293.078     -137.705       -4.233      179.641      120.862       68.003    32271.020    14607.684     4624.466        7.818        2.575      323.817       70.811        0.048      343.512       19.671      858.662
06/19/2013  15:58:00     -316.491     -195.476        2.521      204.076      197.876       94.666    41647.053    39155.082     8961.644       11.406        4.488      371.992      106.777        0.082      343.362       19.416      858.709
06/19/2013  15:59:00     -240.713      -99.831       -0.221      177.860      146.969       60.944    31634.186    21600.032     3714.218        6.242        2.847      260.593       83.040        0.102      343.540       19.720      858.728
06/19/2013  16:00:00     -211.397     -159.647      -22.820      111.668      112.260       55.707    12469.700    12602.345     3103.250        4.943        1.409      264.908       52.262        0.039      343.354       19.401      858.719
06/19/2013  16:01:00     -106.554      -45.655        1.990      161.514       97.156       71.847    26086.635     9439.355     5161.935        2.706        2.034      115.923       67.610        0.340      343.791       20.151      858.695
06/19/2013  16:02:00     -140.817       -6.723       -0.663       86.290       76.188       46.974     7445.937     5804.598     2206.546        1.766        0.773      140.977       48.627        0.119      343.898       20.333      858.700
06/19/2013  16:03:00     -144.630     -106.380      -12.813      152.929      136.843       64.533    23387.137    18725.926     4164.493        3.933        2.314      179.540       51.952        0.084      343.842       20.237      858.647
06/19/2013  16:04:00     -329.193     -159.421       -5.552      234.674      180.317       85.896    55071.811    32514.083     7378.158       11.437        4.748      365.763      101.134        0.076      343.840       20.231      858.643
06/19/2013  16:05:00     -375.115     -130.020        4.421      216.415      132.743       81.891    46835.463    17620.778     6706.119       11.438        3.558      397.010       95.174        0.057      343.755       20.087      858.621
06/19/2013  16:06:00     -211.255      -86.252       14.281      141.765      105.187       58.878    20097.404    11064.275     3466.566        4.344        1.731      228.185       56.082        0.060      344.077       20.638      858.632
06/19/2013  16:07:00     -111.364     -100.801       29.087      163.879      106.332       66.151    26856.365    11306.560     4375.977        3.297        2.127      150.209       83.250        0.307      344.040       20.576      858.621
06/19/2013  16:08:00     -150.974     -120.043       25.607      219.631      114.252       80.737    48237.981    13053.552     6518.524        5.282        3.391      192.882       84.605        0.192      344.268       20.965      858.602
06/19/2013  16:09:00     -335.531     -250.388      -11.429      217.371      122.920       75.109    47250.028    15109.329     5641.296       12.169        3.400      418.659       91.359        0.048      343.337       19.374      858.672
06/19/2013  16:10:00     -208.082     -294.462       13.457      188.729      136.968       82.852    35618.782    18760.132     6864.523        9.570        3.062      360.563       77.122        0.046      343.595       19.813      858.690
06/19/2013  16:11:00     -286.757     -273.868      -15.791      121.968      143.745       64.717    14876.105    20662.708     4188.346        9.860        1.986      396.527       66.050        0.028      343.220       19.176      858.745
06/19/2013  16:12:00      -73.506     -255.050        5.403       67.468       76.130       37.647     4551.969     5795.729     1417.298        4.112        0.588      265.431       33.321        0.016      343.114       18.993      858.700
06/19/2013  16:13:00     -296.660     -125.744       -6.903      137.330      100.160       57.246    18859.457    10032.071     3277.097        6.801        1.608      322.209       51.372        0.025      343.419       19.514      858.645
06/19/2013  16:14:00     -157.909     -200.488      -12.856      113.306       83.355       55.329    12838.205     6948.117     3061.295        4.407        1.142      255.207       36.780        0.021      343.595       19.813      858.657
06/19/2013  16:15:00     -322.835      -25.473        0.809      178.896      109.443       64.156    32003.878    11977.833     4116.039        7.647        2.405      323.838       74.569        0.053      343.725       20.036      858.626
06/19/2013  16:16:00     -378.077      -20.409        3.235      145.169      139.073       90.113    21073.907    19341.343     8120.436        9.594        2.427      378.627       76.788        0.041      343.784       20.138      858.603
06/19/2013  16:17:00     -327.767      -59.781        9.961      145.726      136.187       80.516    21235.956    18546.926     6482.856        7.868        2.313      333.174       84.121        0.064      343.894       20.323      858.668
06/19/2013  16:18:00     -461.093     -229.629       -9.512      210.467      153.587       76.348    44296.454    23588.908     5828.980       16.956        3.686      515.108       95.033        0.034      343.781       20.130      858.714
06/19/2013  16:19:00     -516.454      -69.855      -32.884      194.425      168.738       89.666    37800.985    28472.653     8040.012       17.348        3.716      521.157       92.561        0.032      343.689       19.973      858.726
06/19/2013  16:20:00     -202.860     -151.998      -14.442      151.799      107.206       64.608    23042.914    11493.201     4174.134        5.158        1.936      253.487       47.073        0.034      343.690       19.976      858.758
06/19/2013  16:21:00     -180.134      -68.025       -1.239      155.247      144.643       73.246    24101.576    20921.694     5364.920        4.372        2.519      192.550       78.790        0.167      343.741       20.064      858.735
06/19/2013  16:22:00     -298.006      -73.308      -23.491      137.682      115.907       45.117    18956.245    13434.415     2035.522        6.457        1.721      306.890       40.229        0.017      343.586       19.799      858.726
06/19/2013  16:23:00     -106.125      -81.631        9.179      123.118       73.175       57.360    15158.118     5354.594     3290.116        2.090        1.190      133.889       71.052        0.282      343.604       19.831      858.687
06/19/2013  16:24:00      -99.267      -28.640       14.164       78.451       69.292       38.807     6154.577     4801.315     1505.966        1.167        0.623      103.316       36.000        0.121      343.903       20.342      858.675
06/19/2013  16:25:00     -196.991       24.072      -12.883      113.684       53.267       37.411    12924.068     2837.387     1399.576        2.835        0.858      198.457       43.708        0.049      343.631       19.876      858.676
06/19/2013  16:26:00     -132.006      -11.989       -8.939       47.736       50.833       22.013     2278.716     2584.037      484.583        1.150        0.267      132.549        8.095        0.004      343.583       19.797      858.658
06/19/2013  16:27:00     -166.769      -57.439      -12.093       95.440       66.899       32.988     9108.733     4475.476     1088.194        2.296        0.734      176.384       41.095        0.054      343.593       19.812      858.645
06/19/2013  16:28:00     -182.345      -83.414       -5.704      109.557       86.080       60.302    12002.638     7409.688     3636.303        3.164        1.152      200.518       53.527        0.071      343.904       20.341      858.619
06/19/2013  16:29:00      -56.719     -117.116       -1.980      119.709       64.908       49.742    14330.205     4213.007     2474.253        1.897        1.051      130.127       56.125        0.186      344.277       20.981      858.613
06/19/2013  16:30:00     -167.070      -84.138        8.935      132.057       98.733       54.525    17439.139     9748.156     2972.967        3.261        1.508      187.060       59.407        0.101      344.147       20.758      858.641
06/19/2013  16:31:00     -460.398     -112.585      -23.853      207.295      171.352       86.017    42971.416    29361.551     7398.946       15.246        3.987      473.964       84.593        0.032      343.690       19.977      858.657
06/19/2013  16:32:00     -456.831     -169.715       -9.626      186.977      123.035       73.755    34960.565    15137.540     5439.772       14.655        2.777      487.337       64.563        0.018      343.538       19.717      858.663
06/19/2013  16:33:00     -290.880      -58.095      -17.870      126.886       96.818       55.629    16100.107     9373.799     3094.607        5.843        1.428      296.625       52.073        0.031      343.480       19.618      858.683
06/19/2013  16:34:00     -103.900      -20.078        0.475      129.794      101.839       61.720    16846.581    10371.273     3809.400        2.111        1.551      105.823       64.119        0.367      343.854       20.257      858.644
06/19/2013  16:35:00     -193.334     -188.786       -7.740      160.350      117.335       79.365    25712.143    13767.505     6298.873        5.942        2.289      270.219       79.519        0.087      343.727       20.039      858.645
06/19/2013  16:36:00     -211.203     -131.862       20.640      218.359      146.923       89.907    47680.456    21586.451     8083.264        6.987        3.868      248.986      104.118        0.175      343.805       20.173      858.654
06/19/2013  16:37:00     -141.747      -82.003       25.319      162.736      123.239       78.119    26483.054    15187.893     6102.617        3.761        2.389      163.758       87.729        0.287      343.732       20.047      858.665
06/19/2013  16:38:00      -98.481       11.855        1.806       75.232       72.327       36.766     5659.847     5231.231     1351.743        1.104        0.612       99.192       35.860        0.131      343.947       20.417      858.677
06/19/2013  16:39:00     -216.694        5.322       -0.278      118.563      103.365       58.787    14057.194    10684.284     3455.964        3.759        1.410      216.759       65.351        0.091      343.638       19.887      858.662
06/19/2013  16:40:00     -311.029     -121.932       -6.605      151.455      106.261       60.146    22938.538    11291.393     3617.548        7.474        1.892      334.076       60.254        0.033      343.669       19.941      858.644
06/19/2013  16:41:00     -248.993     -117.491       -0.415      217.959      130.027       81.704    47506.072    16906.906     6675.473        7.343        3.554      275.321       91.456        0.110      343.783       20.135      858.636
06/19/2013  16:42:00     -205.662     -117.090       10.623      125.122       94.282       63.242    15655.497     8889.014     3999.579        4.233        1.427      236.658       64.232        0.074      343.815       20.189      858.633
06/19/2013  16:43:00     -251.315     -151.739       -5.906      194.722      128.196       87.959    37916.617    16434.151     7736.822        7.414        3.104      293.571       94.649        0.104      343.772       20.116      858.648
06/19/2013  16:44:00     -272.065     -104.541      -18.497      168.838      157.215       78.740    28506.319    24716.491     6199.935        7.234        2.971      291.459       88.661        0.093      343.683       19.964      858.640
06/19/2013  16:45:00     -364.055      -55.359      -35.949      297.420      121.375       75.334    88458.594    14731.805     5675.235       12.286        5.443      368.240       93.152        0.064      343.902       20.338      858.645
06/19/2013  16:46:00     -177.447      -60.004       -2.311      120.658      101.680       56.422    14558.291    10338.795     3183.477        3.158        1.404      187.317       55.429        0.088      343.909       20.351      858.688
06/19/2013  16:47:00     -155.323      -96.322       -7.723      161.737      121.270       62.816    26158.914    14706.456     3945.803        3.913        2.241      182.765       78.804        0.186      343.862       20.271      858.679
06/19/2013  16:48:00     -225.514      -26.768      -13.769      148.216       95.717       51.560    21967.861     9161.677     2658.399        4.277        1.689      227.097       46.962        0.043      343.859       20.265      858.703
06/19/2013  16:49:00     -147.783      -28.907       19.620      133.335      101.033       53.646    17778.268    10207.738     2877.940        2.696        1.543      150.583       56.889        0.143      344.202       20.853      858.722
06/19/2013  16:50:00     -123.215      -76.781       -8.045      124.901       77.151       49.379    15600.206     5952.323     2438.317        2.256        1.200      145.180       47.545        0.107      344.122       20.715      858.722
06/19/2013  16:51:00     -264.520       23.144      -16.004      174.728      115.942       63.988    30529.700    13442.478     4094.436        5.941        2.403      265.531       61.732        0.054      343.959       20.436      858.724
06/19/2013  16:52:00     -438.735       10.911      -35.022      162.451      132.121       72.905    26390.210    17456.039     5315.135       12.149        2.458      438.871       79.340        0.033      343.571       19.773      858.724
06/19/2013  16:53:00     -428.266      -44.037      -50.327      131.185      116.916       68.281    17209.466    13669.351     4662.301       11.171        1.777      430.525       67.914        0.025      343.646       19.900      858.702
06/19/2013  16:54:00     -298.543     -217.264       -3.139      208.754      142.037       85.304    43578.083    20174.533     7276.843       10.367        3.551      369.231       85.200        0.053      343.442       19.553      858.709
06/19/2013  16:55:00     -213.762        2.760        0.834      204.803      104.220       61.693    41944.381    10861.791     3806.082        5.115        2.831      213.780       90.034        0.177      343.656       19.919      858.737
06/19/2013  16:56:00     -243.978      -13.101      -11.037      121.197      108.445       52.161    14688.781    11760.248     2720.720        4.449        1.458      244.330       37.897        0.024      343.542       19.725      858.716
06/19/2013  16:57:00     -177.077      -81.761       12.662      203.060      109.654       64.341    41233.322    12023.941     4139.716        4.779        2.870      195.041       92.338        0.224      343.959       20.436      858.677
06/19/2013  16:58:00     -321.646     -145.058       -6.359      219.460      164.494       86.810    48162.626    27058.388     7536.001       10.363        4.138      352.842      102.000        0.084      343.665       19.934      858.690
06/19/2013  16:59:00     -336.179       17.053      -31.679      135.433      120.079       62.550    18342.010    14418.925     3912.528        7.548        1.834      336.612       61.206        0.033      343.687       19.971      858.732
06/19/2013  17:00:00     -290.405       20.219      -24.620      126.135      131.196       56.381    15910.114    17212.287     3178.805        6.082        1.815      291.108       44.408        0.023      343.489       19.632      858.685
06/19/2013  17:01:00     -469.869     -134.234      -24.894      126.010      100.736       60.800    15878.483    10147.793     3696.609       13.456        1.486      488.667       49.862        0.010      343.421       19.517      858.685
06/19/2013  17:02:00     -391.727      -47.474      -18.064      139.062      133.874       67.526    19338.361    17922.221     4559.777        9.892        2.091      394.593       67.246        0.029      343.540       19.719      858.686
06/19/2013  17:03:00     -513.451     -131.565      -10.875      228.334      162.850       81.993    52136.461    26520.059     6722.859       18.320        4.269      530.039       99.075        0.035      343.684       19.965      858.671
06/19/2013  17:04:00     -676.992      -74.578      -43.669      173.684      188.480       85.867    30166.035    35524.767     7373.091       26.941        3.653      681.087       87.100        0.016      343.511       19.670      858.682
06/19/2013  17:05:00     -493.391      -53.319      -49.400      167.169      140.794       66.588    27945.386    19822.981     4433.900       15.045        2.610      496.264       70.079        0.020      343.560       19.754      858.708
06/19/2013  17:06:00     -165.923      -93.952       17.748      137.160      119.438       69.522    18812.901    14265.461     4833.331        3.728        1.896      190.676       74.136        0.151      344.033       20.562      858.725
06/19/2013  17:07:00     -368.178     -150.684       -9.674      130.076      143.823       67.911    16919.665    20685.160     4611.943       10.028        2.111      397.820       65.143        0.027      343.909       20.348      858.757
06/19/2013  17:08:00     -316.678      -74.929        0.599      128.012      126.312       69.918    16386.970    15954.657     4888.590        7.156        1.862      325.422       74.330        0.052      343.743       20.065      858.787
06/19/2013  17:09:00     -270.528      -54.339       -3.894      136.871      106.816       64.598    18733.728    11409.752     4172.866        5.523        1.716      275.932       72.964        0.070      343.677       19.955      858.802
06/19/2013  17:10:00     -247.251     -138.477        7.662      150.533      108.175       56.432    22660.086    11701.762     3184.611        5.895        1.877      283.388       56.629        0.040      343.678       19.956      858.822
06/19/2013  17:11:00     -178.987     -104.320       -0.608      150.687      103.378       68.137    22706.691    10687.053     4642.636        4.047        1.902      207.169       69.877        0.114      343.582       19.791      858.787
06/19/2013  17:12:00     -271.682     -131.273       -6.880      170.967      149.164       67.343    29229.847    22250.010     4535.055        7.354        2.801      301.734       66.413        0.048      343.710       20.011      858.785
06/19/2013  17:13:00     -370.844      -39.734      -24.263      238.526      145.542       83.607    56894.679    21182.494     6990.208       11.236        4.253      372.967      101.460        0.074      343.651       19.910      858.789
06/19/2013  17:14:00     -369.937     -131.119        3.117      230.110      139.023       81.057    52950.420    19327.307     6570.269       11.644        3.942      392.486      100.598        0.066      343.672       19.946      858.781
06/19/2013  17:15:00     -398.894     -133.045      -20.670      235.123      157.764       79.503    55282.931    24889.346     6320.727       13.185        4.325      420.496       96.634        0.053      343.751       20.081      858.794
06/19/2013  17:16:00     -404.508     -212.227        3.141      209.919      134.793       87.461    44066.083    18169.153     7649.480       13.927        3.494      456.801      100.025        0.048      343.467       19.596      858.822
06/19/2013  17:17:00     -124.732      -74.572        3.427      132.249      118.419       72.872    17489.800    14022.989     5310.282        2.897        1.841      145.324       74.176        0.261      343.654       19.917      858.836
06/19/2013  17:18:00     -108.697     -101.985       31.859      170.474      109.888       84.511    29061.329    12075.387     7142.055        3.575        2.414      149.050      104.188        0.489      343.640       19.892      858.828
06/19/2013  17:19:00     -146.184      -10.817       -3.030       89.086       55.293       35.559     7936.259     3057.263     1264.439        1.687        0.613      146.584       39.997        0.074      343.805       20.174      858.804
06/19/2013  17:20:00     -269.319      -59.776       -3.675      174.332      115.192       64.627    30391.615    13269.181     4176.683        6.197        2.392      275.872       61.223        0.049      343.879       20.300      858.814
06/19/2013  17:21:00     -364.822     -318.662       -6.500      210.902      187.264      109.967    44479.615    35067.907    12092.668       16.314        4.582      484.397      116.980        0.058      343.515       19.678      858.801
06/19/2013  17:22:00     -301.779     -289.415        4.463      192.428      163.683      110.417    37028.383    26792.231    12191.846       12.542        3.801      418.128      113.873        0.074      343.550       19.737      858.804
06/19/2013  17:23:00     -247.782      -58.235        4.487      207.044      131.694       71.582    42867.129    17343.192     5123.927        6.506        3.267      254.533       91.578        0.129      343.704       20.000      858.854
06/19/2013  17:24:00     -295.186      -12.496      -15.211      127.036      112.981       64.232    16138.225    12764.641     4125.778        6.027        1.651      295.450       51.912        0.031      343.620       19.857      858.850
06/19/2013  17:25:00     -305.342     -105.725       -4.897      157.066      129.110       72.246    24669.669    16669.352     5219.555        7.549        2.328      323.128       72.375        0.050      343.683       19.965      858.866
06/19/2013  17:26:00     -367.077     -214.624        5.210      228.036      139.394       94.887    52000.258    19430.552     9003.498       13.062        4.022      425.216      118.085        0.077      343.451       19.568      858.873
06/19/2013  17:27:00     -274.680     -233.756        1.772      168.663      160.597       75.691    28447.359    25791.504     5729.135        9.502        2.998      360.681       78.449        0.047      343.447       19.561      858.889
06/19/2013  17:28:00     -276.152     -187.913        0.460      155.794       95.414       75.309    24271.845     9103.860     5671.513        7.530        1.952      334.023       69.009        0.043      343.513       19.674      858.898
06/19/2013  17:29:00     -272.345     -165.765      -12.261      201.871      136.581       75.652    40751.964    18654.447     5723.208        8.345        3.256      318.825       96.420        0.091      343.562       19.759      858.904
06/19/2013  17:30:00     -285.512     -201.445       16.951      218.675      181.896      103.051    47818.662    33086.094    10619.530       10.694        4.576      349.424      109.709        0.099      343.575       19.778      858.901
06/19/2013  17:31:00     -400.138        8.750       -9.348      199.780      174.011       81.856    39912.035    30279.772     6700.350       11.857        3.845      400.234       90.126        0.051      343.486       19.628      858.949
06/19/2013  17:32:00     -137.123      -14.007       11.358      170.389      132.280       74.337    29032.329    17497.892     5525.991        3.558        2.603      137.836       86.999        0.398      343.704       20.002      858.952
06/19/2013  17:33:00     -388.920     -129.249      -43.308      160.502      137.367       70.583    25760.846    18869.666     4981.920       10.972        2.481      409.834       79.563        0.038      343.441       19.552      858.963
06/19/2013  17:34:00     -204.690      -17.831        1.381      140.676       87.736       65.592    19789.732     7697.561     4302.321        3.700        1.589      205.465       71.305        0.120      343.454       19.574      858.940
06/19/2013  17:35:00     -272.386     -176.256       -2.902      151.839       96.218       59.765    23054.973     9257.826     3571.838        7.057        1.794      324.438       54.128        0.028      343.422       19.518      858.938
06/19/2013  17:36:00     -160.714     -151.408        7.977      119.721      111.194       61.105    14333.151    12364.032     3733.784        3.962        1.522      220.802       73.129        0.110      343.312       19.334      858.930
06/19/2013  17:37:00      -74.550      -98.910       -5.861       75.814       99.120       32.060     5747.819     9824.872     1027.832        1.598        0.830      123.858       30.814        0.062      343.393       19.473      858.913
06/19/2013  17:38:00     -233.437       31.958        0.069      115.649       76.506       55.572    13374.644     5853.188     3088.276        3.891        1.116      235.615       57.356        0.059      343.516       19.680      858.908
06/19/2013  17:39:00     -215.247      -77.385        0.776      165.849       90.501       55.084    27505.854     8190.417     3034.271        4.552        1.937      228.735       74.329        0.106      343.738       20.059      858.893
06/19/2013  17:40:00     -129.129      -27.909        5.838      130.473       63.093       35.734    17023.281     3980.708     1276.936        1.988        1.114      132.110       45.345        0.118      343.868       20.280      858.883
06/19/2013  17:41:00      -93.983       44.650       -3.404      160.581       75.822       46.941    25786.100     5748.925     2203.427        2.228        1.687      104.050       63.057        0.367      343.950       20.421      858.880
06/19/2013  17:42:00     -384.861      -51.290      -31.675      175.652      126.353       78.536    30853.799    15965.092     6167.963       10.236        2.649      388.263       75.982        0.038      343.901       20.335      858.855
06/19/2013  17:43:00     -210.120        2.049       -3.365      115.007      127.967       55.226    13226.664    16375.536     3049.922        3.840        1.633      210.130       65.004        0.096      344.056       20.602      858.896
06/19/2013  17:44:00     -361.997       15.878      -45.974       99.190      139.755       66.128     9838.587    19531.403     4372.903        8.357        1.687      362.345       56.726        0.025      343.744       20.069      858.903
06/19/2013  17:45:00     -244.799       16.729      -17.789       96.159       95.357       46.412     9246.491     9092.930     2154.108        4.050        1.025      245.370       49.277        0.040      343.753       20.085      858.908
06/19/2013  17:46:00     -549.003      -22.870      -47.578      136.663      164.706       58.134    18676.833    27128.227     3379.611       17.668        2.459      549.479       58.123        0.011      343.385       19.456      858.909
06/19/2013  17:47:00     -446.623      -39.126      -30.327      152.395      150.487       79.871    23224.226    22646.463     6379.355       12.708        2.613      448.333       69.583        0.024      343.606       19.832      858.895
06/19/2013  17:48:00     -483.642     -123.740      -26.196      151.700      120.483       68.846    23012.897    14516.054     4739.770       14.608        2.113      499.220       69.664        0.019      343.458       19.580      858.920
06/19/2013  17:49:00     -232.353      -69.578       21.884      197.527      153.162       73.919    39017.082    23458.446     5464.024        6.361        3.397      242.547       82.305        0.115      343.509       19.669      858.939
06/19/2013  17:50:00     -210.956        4.842       -1.974      139.521      109.212       53.497    19466.248    11927.357     2861.945        3.939        1.713      211.011       61.808        0.086      343.614       19.847      858.944
06/19/2013  17:51:00      -96.838      -49.158       12.498      103.482      107.843       48.029    10708.591    11630.086     2306.810        1.829        1.232      108.601       53.574        0.243      343.743       20.069      858.940
06/19/2013  17:52:00     -323.844     -273.604      -15.413      203.262      154.060       85.595    41315.252    23734.489     7326.528       12.616        3.619      423.951      100.469        0.056      343.468       19.597      858.947
06/19/2013  17:53:00     -278.543      -98.756       -8.995      152.424      117.548       63.768    23233.214    13817.635     4066.312        6.426        2.056      295.532       76.276        0.067      343.677       19.955      858.966
06/19/2013  17:54:00     -292.187      -35.257        6.376      213.410      122.326       89.762    45543.672    14963.696     8057.225        7.760        3.428      294.307      102.694        0.122      343.666       19.935      858.972
06/19/2013  17:55:00     -270.793     -152.970       -8.660      172.716      166.862       77.069    29830.760    27843.083     5939.602        8.020        3.181      311.012       87.105        0.078      343.635       19.882      858.987
06/19/2013  17:56:00     -521.577     -272.387      -45.007      235.674      144.366       96.007    55542.189    20841.583     9217.320       21.691        4.280      588.419       98.870        0.028      343.454       19.574      858.966
06/19/2013  17:57:00     -408.598     -143.436       -9.409      175.582      176.196       93.750    30828.971    31045.169     8789.054       12.912        3.533      433.043      100.175        0.054      343.466       19.595      858.993
06/19/2013  17:58:00     -390.098     -117.858      -24.109      159.858      118.600       57.843    25554.532    14066.043     3345.826       10.480        2.148      407.513       71.442        0.031      343.483       19.624      859.006
06/19/2013  17:59:00     -242.527     -127.395       -7.036      129.711      110.882       57.393    16824.885    12294.729     3294.007        5.375        1.621      273.951       64.894        0.056      343.537       19.716      859.020
06/19/2013  18:00:00     -217.210      -98.382       -6.684      133.104      137.673       61.443    17716.703    18953.731     3775.211        4.867        2.022      238.451       57.462        0.058      343.476       19.611      859.024
06/19/2013  18:01:00     -395.816     -222.439      -11.997      164.161      132.427       76.547    26948.914    17537.029     5859.504       12.831        2.517      454.037       78.934        0.030      343.209       19.157      859.021
06/19/2013  18:02:00     -242.071     -150.024       12.038      229.773      137.853       90.106    52795.752    19003.335     8119.099        8.057        3.996      284.791      112.885        0.157      343.294       19.301      858.996
06/19/2013  18:03:00     -306.758       76.033       -7.057      209.783      135.086       70.149    44008.961    18248.140     4920.950        8.354        3.359      316.040       78.912        0.062      343.437       19.546      858.975
06/19/2013  18:04:00     -225.376     -112.512      -11.885      144.122      144.053       67.330    20771.204    20751.189     4533.305        5.482        2.303      251.899       74.231        0.087      343.445       19.560      859.009
06/19/2013  18:05:00     -119.968     -127.505        9.408      103.615       98.412       63.856    10736.086     9684.834     4077.630        2.761        1.225      175.071       60.993        0.121      343.434       19.540      859.019
06/19/2013  18:06:00     -286.741      -90.893      -21.508      175.579       91.738       59.029    30828.067     8415.829     3484.370        6.683        2.136      300.803       76.449        0.065      343.362       19.417      859.034
06/19/2013  18:07:00     -291.587      -63.818       -8.562      160.511      110.022       62.257    25763.659    12104.814     3875.872        6.545        2.087      298.489       74.256        0.062      343.439       19.547      859.005
06/19/2013  18:08:00     -451.306      -40.941      -43.145      154.153       92.208       63.058    23763.138     8502.404     3976.366       12.172        1.812      453.159       69.621        0.024      343.267       19.254      859.018
06/19/2013  18:09:00     -232.741      -29.860      -18.208      153.897      128.445       68.117    23684.349    16498.150     4639.932        5.010        2.241      234.649       85.771        0.134      343.625       19.865      859.009
06/19/2013  18:10:00     -426.768     -132.214      -13.158      201.861      136.822       79.997    40747.877    18720.355     6399.459       13.281        3.293      446.779       85.887        0.037      343.392       19.468      859.031
06/19/2013  18:11:00     -395.980     -133.575      -26.276      150.967      148.229       81.391    22790.918    21971.807     6624.420       11.335        2.569      417.903       80.081        0.037      343.353       19.403      859.066
06/19/2013  18:12:00     -291.427     -143.066      -12.414      125.920      151.041       68.964    15855.777    22813.254     4756.082        7.448        2.171      324.650       67.508        0.043      343.367       19.426      859.056
06/19/2013  18:13:00     -217.140     -156.511      -14.546      120.556      104.421       61.704    14533.756    10903.831     3807.443        5.055        1.462      267.666       65.119        0.059      343.329       19.360      859.047
06/19/2013  18:14:00     -204.852     -216.668        7.263      156.646      124.608       80.914    24538.063    15527.169     6547.091        6.778        2.331      298.177       89.892        0.091      343.349       19.395      859.038
06/19/2013  18:15:00     -297.309     -174.344       -3.384      150.815      156.839       80.260    22745.265    24598.476     6441.607        8.628        2.689      344.657       85.743        0.062      343.219       19.173      859.040
06/19/2013  18:16:00     -262.375     -246.299       -2.116      147.857      114.681       61.919    21861.575    13151.625     3834.024        8.417        1.942      359.866       69.080        0.037      343.148       19.053      859.016
06/19/2013  18:17:00     -261.856     -169.499      -17.666      164.092      119.838       67.259    26926.063    14361.173     4523.737        7.170        2.291      311.927       86.384        0.077      343.176       19.101      859.030
06/19/2013  18:18:00     -293.810     -160.938      -13.977      124.619       91.541       60.811    15529.966     8379.765     3698.027        7.001        1.380      335.001       62.107        0.034      343.361       19.415      859.031
06/19/2013  18:19:00     -215.596      -56.767       -4.966      101.279      101.085       54.118    10257.348    10218.211     2928.775        3.656        1.170      222.945       58.573        0.069      343.579       19.785      859.058
06/19/2013  18:20:00     -315.920        3.313      -10.936      144.163      127.368       61.195    20782.905    16222.649     3744.844        7.033        2.038      315.937       69.103        0.048      343.427       19.528      859.085
06/19/2013  18:21:00     -266.982       52.158      -23.237      157.978      117.255       60.934    24957.005    13748.837     3712.901        5.847        2.121      272.030       72.137        0.070      343.518       19.684      859.082
06/19/2013  18:22:00     -180.064      -97.425        2.917      212.045       99.704       71.790    44963.038     9940.792     5153.825        5.098        3.003      204.731       87.426        0.182      343.618       19.854      859.117
06/19/2013  18:23:00     -355.524      -62.644      -11.271      146.956      161.080       65.590    21596.092    25946.616     4302.020        9.114        2.592      361.001       60.856        0.028      343.376       19.440      859.108
06/19/2013  18:24:00     -522.739      -48.070      -40.845      130.547      135.736       56.757    17042.457    18424.164     3221.324       15.795        1.934      524.944       47.656        0.008      343.027       18.846      859.108
06/19/2013  18:25:00     -355.767     -102.788      -21.551      213.379      157.796       89.117    45530.742    24899.452     7941.908       10.797        3.919      370.318       72.229        0.038      343.281       19.280      859.080
06/19/2013  18:26:00     -349.965      -99.503      -19.935      135.115      107.368       58.928    18256.032    11527.874     3472.492        8.301        1.663      363.835       49.989        0.019      343.278       19.273      859.120
06/19/2013  18:27:00     -373.090       17.112      -42.196      162.983      146.858       72.530    26563.532    21567.183     5260.618        9.732        2.670      373.483       68.593        0.034      343.296       19.305      859.112
06/19/2013  18:28:00     -374.372      -53.235      -18.521      196.332      141.256       77.974    38546.336    19953.199     6079.997       10.394        3.229      378.138       81.323        0.046      343.410       19.498      859.080
06/19/2013  18:29:00     -343.940      -14.630      -44.928      152.145      100.287       59.099    23148.087    10057.444     3492.649        7.861        1.835      344.251       63.639        0.034      343.265       19.252      859.100
06/19/2013  18:30:00     -250.692     -118.704       -7.709      148.512      127.126       75.485    22055.726    16160.950     5697.955        6.045        2.196      277.376       68.012        0.060      343.561       19.756      859.128
06/19/2013  18:31:00     -340.345     -240.042        5.405      239.720      198.326      115.586    57465.672    39333.184    13360.109       14.180        5.508      416.480      138.150        0.110      343.297       19.305      859.158
06/19/2013  18:32:00     -331.026     -220.009       -7.458      148.656      134.508       79.088    22098.486    18092.408     6254.945       10.223        2.322      397.470       84.191        0.045      343.296       19.304      859.168
06/19/2013  18:33:00     -327.096     -153.747      -19.588      136.454      132.910       56.183    18619.595    17665.192     3156.542        8.522        1.972      361.428       48.226        0.018      343.299       19.310      859.180
06/19/2013  18:34:00     -212.872     -171.052       12.487      184.587      129.026       86.441    34072.298    16647.743     7472.011        6.645        2.910      273.081       98.450        0.130      343.391       19.465      859.198
06/19/2013  18:35:00     -378.973     -305.829       -8.655      196.582      160.095      101.414    38644.390    25630.528    10284.700       15.588        3.728      486.982      104.189        0.046      343.195       19.131      859.200
06/19/2013  18:36:00     -373.382     -280.860      -10.029      205.893      181.033       98.143    42392.110    32772.954     9632.126       15.158        4.240      467.222      116.552        0.062      343.007       18.813      859.202
06/19/2013  18:37:00     -228.173     -175.786       10.570      149.744      138.299       77.891    22423.300    19126.668     6066.944        6.534        2.381      288.034       92.529        0.103      343.160       19.073      859.235
06/19/2013  18:38:00     -301.285       -5.305       -8.310      204.483      106.123       65.092    41813.413    11262.058     4236.922        7.408        2.866      301.332       59.059        0.038      343.273       19.265      859.253
06/19/2013  18:39:00     -347.220     -166.217       -1.551      191.194      182.372       70.746    36555.211    33259.527     5004.964       11.149        3.741      384.954       74.557        0.038      343.199       19.138      859.266
06/19/2013  18:40:00     -231.813     -162.397       -1.946      156.403      108.470       78.073    24461.776    11765.806     6095.437        6.121        2.116      283.037       79.211        0.078      343.285       19.286      859.275
06/19/2013  18:41:00     -209.407     -104.605        9.980      159.700       90.751       68.250    25503.967     8235.678     4658.011        4.664        1.920      234.080       76.771        0.108      343.209       19.155      859.281
06/19/2013  18:42:00     -222.790      -97.635       -8.451      119.720       77.877       43.748    14332.946     6064.835     1913.867        4.077        1.116      243.245       51.014        0.044      343.304       19.319      859.294
06/19/2013  18:43:00     -346.180     -188.982       -7.724      163.540      113.877       63.486    26745.363    12968.080     4030.517        9.967        2.187      394.404       61.186        0.024      343.221       19.176      859.304
06/19/2013  18:44:00     -309.300     -162.437      -12.045      165.901      130.738       71.079    27523.287    17092.483     5052.238        8.592        2.483      349.360       69.950        0.040      343.164       19.079      859.306
06/19/2013  18:45:00     -287.044      -72.389       -2.714      201.664      111.798       69.023    40668.400    12498.845     4764.120        7.277        2.897      296.031       80.982        0.075      343.186       19.117      859.337
06/19/2013  18:46:00     -350.667     -186.805      -14.175      201.312      161.367       86.690    40526.373    26039.338     7515.125       11.606        3.704      397.321       88.175        0.049      343.157       19.067      859.311
06/19/2013  18:47:00     -352.215     -181.048      -24.582      165.922      131.843       85.202    27530.124    17382.530     7259.380       10.479        2.609      396.023       83.583        0.045      343.171       19.090      859.345
06/19/2013  18:48:00     -226.795     -108.812        0.230      211.394      148.691       70.774    44687.248    22108.941     5009.006        6.753        3.590      251.547       97.404        0.150      343.221       19.178      859.344
06/19/2013  18:49:00     -292.775      -86.061        2.676      249.084      133.947       65.773    62042.999    17941.900     4326.147        8.870        4.216      305.162       90.024        0.087      343.241       19.213      859.365
06/19/2013  18:50:00     -328.190     -119.360       -6.945      228.705      145.232       76.885    52306.017    21092.370     5911.347       10.064        3.965      349.221       82.526        0.056      343.088       18.951      859.388
06/19/2013  18:51:00     -179.181      -58.511        1.084      130.058      105.849       63.462    16914.976    11204.012     4027.487        3.383        1.607      188.493       67.463        0.128      343.303       19.318      859.402
06/19/2013  18:52:00     -229.307     -109.040       12.479      147.655      121.853       68.880    21801.935    14848.191     4744.398        5.300        2.070      253.912       76.638        0.091      343.064       18.910      859.409
06/19/2013  18:53:00     -168.316     -106.588       16.724      181.955      126.146       87.067    33107.668    15912.713     7580.681        4.827        2.830      199.227      103.482        0.270      343.155       19.065      859.410
06/19/2013  18:54:00     -183.793     -126.379        0.913      168.469      105.582       75.951    28381.833    11147.657     5768.621        4.752        2.265      223.050       73.401        0.108      343.022       18.838      859.424
06/19/2013  18:55:00     -184.170       33.642       -7.219      152.900       82.303       55.222    23378.519     6773.847     3049.514        3.415        1.660      187.218       67.362        0.129      343.158       19.071      859.428
06/19/2013  18:56:00     -356.618        0.999       -6.029      122.988      108.972       59.549    15126.106    11874.983     3546.142        7.887        1.527      356.620       64.871        0.033      343.046       18.879      859.435
06/19/2013  18:57:00     -258.904      -49.528      -21.124      105.369       96.057       59.854    11102.618     9227.025     3582.546        4.692        1.196      263.599       52.407        0.040      343.044       18.874      859.412
06/19/2013  18:58:00     -359.731     -155.400      -23.847      214.143      132.381       65.049    45857.090    17524.607     4231.422       11.086        3.381      391.862       85.860        0.048      343.149       19.054      859.393
06/19/2013  18:59:00     -474.998     -135.566      -32.560      228.012      156.755       90.002    51989.626    24572.013     8100.341       16.484        4.233      493.964      104.473        0.045      343.135       19.029      859.382
06/19/2013  19:00:00     -363.834      -49.514      -28.280      160.511      145.738       74.672    25763.829    21239.593     5575.864        9.409        2.629      367.188       62.742        0.029      343.170       19.089      859.438
06/19/2013  19:01:00     -317.691      -33.803      -12.355      158.073      144.008       70.495    24986.943    20738.355     4969.490        7.645        2.535      319.484       72.066        0.051      343.094       18.959      859.472
06/19/2013  19:02:00     -317.909      -34.513      -16.613      171.649       99.870       60.106    29463.245     9973.996     3612.711        7.278        2.152      319.777       73.306        0.053      342.981       18.769      859.472
06/19/2013  19:03:00     -316.468      -65.383      -13.779      149.417      139.650       59.523    22325.314    19502.240     3542.932        7.498        2.269      323.151       64.827        0.040      343.120       19.006      859.475
06/19/2013  19:04:00     -463.553      -77.845      -34.081      128.994      108.165       56.200    16639.421    11699.630     3158.434       12.679        1.575      470.044       47.344        0.010      342.914       18.653      859.474
06/19/2013  19:05:00     -438.617       39.370      -46.723      138.637      100.706       68.155    19220.178    10141.781     4645.166       11.506        1.700      440.380       55.834        0.016      342.958       18.727      859.464
06/19/2013  19:06:00     -415.902      -89.694      -28.108      142.378      138.278       63.185    20271.414    19120.895     3992.283       11.259        2.169      425.464       62.151        0.021      342.949       18.715      859.478
06/19/2013  19:07:00     -327.264      -55.332      -16.361      206.668      121.055       67.433    42711.460    14654.394     4547.172        8.616        3.096      331.908       75.770        0.052      343.029       18.851      859.488
06/19/2013  19:08:00     -218.918      -34.522        2.211      162.651      108.783       60.763    26455.229    11833.772     3692.188        4.554        2.099      221.624       75.229        0.115      343.057       18.899      859.514
06/19/2013  19:09:00     -223.580       14.149        6.389       98.378       75.043       46.720     9678.269     5631.456     2182.764        3.386        0.875      224.028       42.269        0.036      343.023       18.841      859.503
06/19/2013  19:10:00     -316.678      -35.613      -16.951      103.002       81.040       47.388    10609.337     6567.436     2245.584        6.063        0.971      318.674       51.827        0.026      342.991       18.786      859.498
06/19/2013  19:11:00     -333.335      -76.018      -10.141      155.682       92.971       55.968    24236.806     8643.578     3132.411        7.650        1.801      341.894       63.985        0.035      342.949       18.713      859.471
06/19/2013  19:12:00     -320.011     -133.182      -20.991      127.441      101.814       56.540    16241.185    10366.146     3196.757        7.519        1.490      346.619       45.450        0.017      342.945       18.705      859.465
06/19/2013  19:13:00     -256.540     -115.386        2.803      129.153      145.316       60.609    16680.433    21116.728     3673.511        6.029        2.074      281.295       64.609        0.053      342.999       18.799      859.506
06/19/2013  19:14:00     -237.542     -208.076      -13.257      190.679      149.384       78.424    36358.511    22315.481     6150.292        8.235        3.241      315.788       96.940        0.094      342.885       18.606      859.488
06/19/2013  19:15:00     -397.152     -171.658      -12.769      212.190      162.247       84.852    45024.715    26324.194     7199.940       13.294        3.927      432.662       87.459        0.041      342.910       18.647      859.482
06/19/2013  19:16:00     -283.175     -150.682      -11.369      182.636      176.028       83.108    33355.855    30986.006     6906.911        8.712        3.562      320.770       86.840        0.073      342.893       18.619      859.478
06/19/2013  19:17:00     -391.209      -80.288       -8.483      236.109      139.076       93.511    55747.369    19342.135     8744.347       12.168        4.192      399.362      102.149        0.065      342.883       18.602      859.478
06/19/2013  19:18:00     -263.367     -113.799       -7.276      189.668      114.775       64.760    35973.889    13173.296     4193.896        6.784        2.667      286.901       80.457        0.079      342.913       18.654      859.516
06/19/2013  19:19:00     -204.183      -66.899       14.909      202.428      141.900       86.334    40977.219    20135.616     7453.573        5.746        3.428      214.863      102.064        0.226      342.956       18.726      859.532
06/19/2013  19:20:00     -303.657     -136.359      -11.456      156.813      107.227       76.969    24590.231    11497.531     5924.279        7.646        2.101      332.868       80.007        0.058      342.868       18.576      859.554
06/19/2013  19:21:00     -318.637        4.031       -2.560      157.282      106.599       73.095    24737.489    11363.255     5342.944        7.149        2.072      318.662       84.260        0.070      342.852       18.549      859.544
06/19/2013  19:22:00     -444.427      -69.170      -26.022      161.163      137.700       77.477    25973.374    18961.196     6002.750       12.695        2.547      449.777       86.330        0.037      342.763       18.399      859.560
06/19/2013  19:23:00     -384.253      -90.690       -9.134      169.337      118.717       73.539    28675.037    14093.697     5407.996       10.206        2.409      394.810       92.418        0.055      342.765       18.401      859.552
06/19/2013  19:24:00     -259.392     -110.389        5.704      193.414      140.825       68.764    37409.056    19831.792     4728.439        7.072        3.098      281.905       97.583        0.120      342.854       18.553      859.554
06/19/2013  19:25:00     -280.411      -49.478       -0.408      140.809      136.498       69.127    19827.279    18631.732     4778.610        6.215        2.162      284.743       70.702        0.062      342.871       18.581      859.576
06/19/2013  19:26:00     -345.380     -146.345      -14.201      144.905      173.912       71.004    20997.506    30245.323     5041.508        9.858        2.814      375.106       70.981        0.036      342.791       18.446      859.574
06/19/2013  19:27:00     -263.234     -135.530       -0.412      114.739      110.188       55.418    13164.947    12141.497     3071.149        5.801        1.419      296.075       60.967        0.042      342.824       18.500      859.594
06/19/2013  19:28:00     -282.948      -33.060      -10.040      108.270       91.517       63.730    11722.431     8375.356     4061.452        5.270        1.208      284.873       60.056        0.044      342.832       18.514      859.605
06/19/2013  19:29:00     -211.420       -0.422       -8.365      115.392      108.125       56.387    13315.307    11691.008     3179.441        3.647        1.409      211.420       55.767        0.070      342.919       18.663      859.604
06/19/2013  19:30:00     -263.696     -134.942       -0.073      160.963      162.909       80.319    25908.971    26539.249     6451.076        7.331        2.945      296.218       79.895        0.073      342.819       18.492      859.620
06/19/2013  19:31:00     -423.149      -81.691      -11.437      229.884      123.719       71.985    52846.727    15306.505     5181.782       12.958        3.667      430.963       83.278        0.037      342.697       18.285      859.617
06/19/2013  19:32:00     -247.620     -189.137        0.817      181.527      161.960       83.522    32952.081    26231.029     6975.934        8.161        3.308      311.591       88.282        0.080      342.727       18.335      859.621
06/19/2013  19:33:00     -279.044     -220.687      -14.997      197.820      124.214       77.519    39132.906    15429.010     6009.202        9.367        3.029      355.764       87.443        0.060      342.777       18.422      859.641
06/19/2013  19:34:00     -260.337      -36.680      -11.136      171.868      131.640       66.383    29538.467    17329.068     4406.767        6.025        2.564      262.908       80.757        0.094      342.777       18.420      859.662
06/19/2013  19:35:00     -309.231     -102.175       -8.521      152.549      134.171       71.154    23271.162    18001.885     5062.901        7.623        2.317      325.674       69.937        0.046      342.710       18.307      859.669
06/19/2013  19:36:00     -405.956      -70.070      -26.860      154.247      120.596       71.138    23792.276    14543.416     5060.626       10.691        2.170      411.959       67.650        0.027      342.659       18.221      859.679
06/19/2013  19:37:00     -352.965      -41.237      -12.393      246.153      138.485       82.750    60591.159    19178.093     6847.566       10.651        4.331      355.365      102.298        0.083      342.643       18.193      859.689
06/19/2013  19:38:00     -371.449       18.696      -13.761      210.056      115.693       79.846    44123.584    13384.972     6375.360       10.119        3.194      371.919      102.094        0.075      342.652       18.208      859.681
06/19/2013  19:39:00     -274.156     -148.818      -12.577      146.598      137.119       78.976    21490.996    18801.582     6237.276        7.199        2.326      311.943       81.368        0.068      342.660       18.222      859.694
06/19/2013  19:40:00     -247.474      -48.988        3.982      111.452      132.033       68.304    12421.535    17432.769     4665.467        4.908        1.726      252.276       48.392        0.037      342.715       18.315      859.701
06/19/2013  19:41:00     -238.106     -117.665       -2.598      115.383      132.563       63.229    13313.168    17572.949     3997.861        5.271        1.744      265.592       44.246        0.028      342.605       18.129      859.711
06/19/2013  19:42:00     -200.212      -58.116        2.046      102.470      123.362       61.534    10500.147    15218.119     3786.477        3.648        1.475      208.477       48.752        0.055      342.602       18.125      859.711
06/19/2013  19:43:00     -256.083     -149.497       -7.558      121.898      142.364       56.355    14859.020    20267.408     3175.914        6.314        1.915      296.526       57.173        0.037      342.607       18.133      859.703
06/19/2013  19:44:00     -174.999     -147.402       14.094      191.792      170.102       95.831    36784.058    28934.546     9183.618        6.371        3.745      228.806      114.901        0.252      342.538       18.016      859.690
06/19/2013  19:45:00     -323.640     -164.284       -6.551      140.940      119.787       68.990    19864.063    14348.974     4759.551        8.537        1.949      362.949       60.451        0.028      342.543       18.023      859.700
06/19/2013  19:46:00     -258.635     -179.795        4.715      187.119      135.273       91.626    35013.577    18298.839     8395.309        8.046        3.085      314.990      107.096        0.116      342.519       17.982      859.723
06/19/2013  19:47:00     -276.735     -122.764      -10.320      173.808      112.671       76.396    30209.340    12694.828     5836.312        7.024        2.437      302.743       79.143        0.068      342.519       17.982      859.734
06/19/2013  19:48:00     -238.638      -22.137      -13.120      124.756       74.804       51.575    15563.964     5595.696     2660.003        4.071        1.191      239.662       58.858        0.060      342.550       18.036      859.765
06/19/2013  19:49:00     -280.338      -88.194      -12.312      180.813      121.651       71.553    32693.166    14798.883     5119.808        6.956        2.631      293.884       86.350        0.086      342.522       17.987      859.759
06/19/2013  19:50:00     -294.419     -135.640      -11.629      193.138      161.875       92.180    37302.360    26203.530     8497.228        8.860        3.600      324.161       92.388        0.081      342.462       17.884      859.767
06/19/2013  19:51:00     -262.732     -188.795        8.594      199.614      153.451       87.895    39845.616    23547.200     7725.476        8.792        3.556      323.530      100.065        0.096      342.433       17.838      859.755
06/19/2013  19:52:00     -340.019      -59.743       -7.032      198.737      124.606       81.607    39496.340    15526.677     6659.770        9.044        3.084      345.227       92.160        0.071      342.415       17.805      859.769
06/19/2013  19:53:00     -384.167     -139.023      -11.987      139.186      127.232       69.759    19372.812    16187.965     4866.252       10.373        2.021      408.549       66.710        0.027      342.373       17.733      859.775
06/19/2013  19:54:00     -323.146      -58.462      -14.264      139.512      123.451       67.807    19463.564    15240.272     4597.731        7.367        1.965      328.392       66.614        0.041      342.381       17.747      859.788
06/19/2013  19:55:00     -236.051     -122.309       -6.260      111.950      117.588       67.543    12532.810    13827.007     4562.011        5.081        1.546      265.856       65.137        0.060      342.393       17.769      859.784
06/19/2013  19:56:00     -167.865     -112.369       25.699      215.003      160.656      103.938    46226.447    25810.323    10803.182        6.214        4.142      202.004      120.099        0.353      342.344       17.686      859.777
06/19/2013  19:57:00     -301.367     -160.078      -21.853      158.881      113.450       68.120    25243.294    12870.958     4640.361        7.983        2.138      341.243       74.733        0.048      342.314       17.635      859.805
06/19/2013  19:58:00     -223.308       12.209        0.503      148.133       94.630       68.665    21943.297     8954.791     4714.818        4.281        1.781      223.641       79.799        0.127      342.308       17.624      859.807
06/19/2013  19:59:00     -334.221        9.613       -7.624      173.682      115.600       75.730    30165.567    13363.324     5734.994        8.055        2.463      334.359       75.297        0.051      342.310       17.627      859.837
06/19/2013  20:00:00     -420.405      -41.464      -22.676      153.862      128.210       70.761    23673.469    16437.731     5007.159       11.204        2.256      422.445       80.037        0.036      342.227       17.486      859.840
06/19/2013  20:01:00     -308.564     -144.610       -4.496      198.469      130.514       80.798    39389.909    17033.807     6528.288        8.954        3.148      340.769      101.274        0.088      342.204       17.447      859.838
06/19/2013  20:02:00     -341.123      -35.269      -16.455      148.299      136.710       72.305    21992.542    18689.599     5228.079        8.189        2.296      342.941       71.587        0.044      342.216       17.466      859.856
06/19/2013  20:03:00     -221.773       13.936       -5.429       93.019       80.213       48.608     8652.470     6434.069     2362.776        3.342        0.872      222.211       50.172        0.051      342.226       17.485      859.878
06/19/2013  20:04:00     -301.073      -33.083      -11.311      156.178       94.125       63.978    24391.533     8859.572     4093.167        6.460        1.867      302.885       56.837        0.035      342.219       17.472      859.886
06/19/2013  20:05:00     -410.332     -112.115      -37.970      165.209      114.955       64.348    27294.143    13214.745     4140.681       11.351        2.232      425.373       70.371        0.027      342.163       17.376      859.884
06/19/2013  20:06:00     -270.007      -69.217      -18.351      134.808      106.082       55.926    18173.329    11253.317     3127.665        5.529        1.628      278.738       60.543        0.047      342.171       17.392      859.900
06/19/2013  20:07:00     -225.369      -48.063      -18.536       92.782       70.953       44.019     8608.534     5034.328     1937.698        3.451        0.779      230.437       44.796        0.038      342.162       17.374      859.912
06/19/2013  20:08:00     -347.410        9.744      -20.538      164.823      114.605       61.802    27166.515    13134.269     3819.471        8.266        2.206      347.546       66.345        0.036      342.117       17.301      859.922
06/19/2013  20:09:00     -424.904      -55.862      -17.569      173.774      125.485       60.809    30197.448    15746.490     3697.763       11.680        2.482      428.560       67.929        0.025      342.093       17.257      859.928
06/19/2013  20:10:00     -169.660      -16.440      -11.077      111.976       78.925       51.379    12538.649     6229.154     2639.839        2.529        1.070      170.454       43.944        0.066      342.134       17.329      859.921
06/19/2013  20:11:00     -418.163      -52.470       -7.040      214.383      144.059       75.269    45959.971    20753.020     5665.389       12.501        3.619      421.442       90.622        0.046      342.059       17.199      859.923
06/19/2013  20:12:00     -367.767      -89.223      -25.187      114.704      105.658       58.568    13157.064    11163.610     3430.155        8.579        1.388      378.435       56.747        0.022      342.068       17.215      859.943
06/19/2013  20:13:00     -300.939      -42.516      -16.832      157.145       85.649       61.104    24694.547     7335.721     3733.749        6.420        1.788      303.928       73.380        0.058      342.056       17.196      859.961
06/19/2013  20:14:00     -265.754      -17.278      -19.365      182.464      108.869       58.922    33292.955    11852.416     3471.852        5.995        2.431      266.315       78.306        0.086      342.041       17.170      859.984
06/19/2013  20:15:00     -360.652      -54.091      -17.295      156.593      109.175       60.253    24521.418    11919.111     3630.439        8.667        2.004      364.685       64.294        0.031      342.017       17.128      860.007
06/19/2013  20:16:00     -319.414      -74.780      -18.179      100.045       79.449       48.620    10009.000     6312.075     2363.924        6.331        0.934      328.051       51.058        0.024      342.012       17.120      860.045
06/19/2013  20:17:00     -265.970      -53.177      -22.746      121.250       83.195       43.211    14701.454     6921.453     1867.177        4.878        1.175      271.234       37.029        0.019      342.042       17.170      860.053
06/19/2013  20:18:00     -278.257      -57.637      -25.295      214.011       88.299       71.395    45800.640     7796.796     5097.189        7.003        2.935      284.164      105.792        0.139      342.011       17.119      860.079
06/19/2013  20:19:00     -141.186      -29.349       -9.360       77.981       50.103       37.873     6081.068     2510.338     1434.396        1.545        0.501      144.204       30.938        0.046      342.027       17.148      860.112
06/19/2013  20:20:00      -59.698       -8.029       -0.909       47.275       52.527       29.890     2234.914     2759.134      893.404        0.476        0.294       60.236       19.544        0.105      341.992       17.089      860.116
06/19/2013  20:21:00     -132.928      -44.761        2.551       86.518       83.716       35.974     7485.448     7008.403     1294.132        1.773        0.789      140.261       31.973        0.052      342.002       17.106      860.138
06/19/2013  20:22:00     -326.726       67.121      -36.240       77.551       71.439       34.805     6014.136     5103.555     1211.369        6.245        0.616      333.549       21.684        0.004      341.944       17.006      860.151
06/19/2013  20:23:00      -81.415       46.634       -9.684       75.574       55.509       32.346     5711.362     3081.199     1046.250        0.937        0.492       93.825       23.533        0.063      341.912       16.954      860.179
06/19/2013  20:24:00      -35.381       75.158       -2.034       50.503       46.736       34.216     2550.527     2184.273     1170.727        0.640        0.295       83.069       31.207        0.141      341.849       16.847      860.186
06/19/2013  20:25:00     -146.521      -25.149      -18.792       76.248       88.669       35.000     5813.814     7862.142     1224.970        1.867        0.745      148.664       22.657        0.023      341.890       16.917      860.191
06/19/2013  20:26:00     -122.167      -21.548       -4.633       49.286       64.314       33.082     2429.090     4136.281     1094.402        1.153        0.383      124.053       15.174        0.015      341.838       16.829      860.201
06/19/2013  20:27:00     -125.660       -3.452      -21.431       53.677       68.513       20.505     2881.177     4694.013      420.453        1.213        0.400      125.708       19.785        0.025      341.796       16.758      860.210
06/19/2013  20:28:00     -144.537       50.163      -32.258       58.276       79.617       30.061     3396.128     6338.844      903.685        1.754        0.532      152.994       26.809        0.031      341.653       16.513      860.212
06/19/2013  20:29:00     -113.464       25.451      -13.586       49.555       50.009       33.424     2455.696     2500.877     1117.145        0.989        0.304      116.283       22.174        0.036      341.683       16.567      860.212
06/19/2013  20:30:00      -80.807       15.653      -13.960       68.872       64.918       38.953     4743.352     4214.337     1517.359        0.872        0.524       82.309       22.418        0.074      341.695       16.586      860.213
06/19/2013  20:31:00     -128.173       39.654      -15.376       79.120      112.854       50.128     6260.042    12735.994     2512.806        1.987        1.075      134.167       39.372        0.086      341.679       16.558      860.223
06/19/2013  20:32:00      -94.484      -11.548       -0.287       65.796       63.874       52.630     4329.168     4079.867     2769.867        1.012        0.559       95.187       44.627        0.220      341.666       16.538      860.244
06/19/2013  20:33:00     -155.670       -6.189      -11.161       82.475       76.090       44.781     6802.196     5789.712     2005.304        1.949        0.730      155.793       39.600        0.065      341.654       16.515      860.266
06/19/2013  20:34:00     -284.034      -22.776      -18.881       62.799       50.221       40.633     3943.737     2522.103     1651.015        4.483        0.406      284.946       33.935        0.014      341.609       16.433      860.281
06/19/2013  20:35:00     -293.206      -94.944      -26.894       93.717       80.788       43.489     8782.895     6526.633     1891.272        5.645        0.860      308.195       41.510        0.018      341.634       16.480      860.280
06/19/2013  20:36:00     -123.695      -61.002       -3.918      100.580       80.020       42.463    10116.267     6403.166     1803.098        1.868        0.916      137.919       49.805        0.130      341.634       16.481      860.286
06/19/2013  20:37:00     -267.640      -45.580      -22.102       51.789       68.394       32.132     2682.077     4677.732     1032.439        4.129        0.420      271.494       22.517        0.007      341.582       16.390      860.311
06/19/2013  20:38:00     -184.711      -48.758      -18.382       60.522       64.461       38.000     3662.911     4155.213     1444.007        2.305        0.463      191.038       25.696        0.018      341.562       16.359      860.336
06/19/2013  20:39:00     -124.209      -20.692      -10.764       62.521       42.199       26.962     3908.874     1780.749      726.960        1.119        0.321      125.921       26.921        0.046      341.598       16.423      860.342
06/19/2013  20:40:00     -248.961       26.729      -28.184      102.176       50.162       33.454    10439.860     2516.190     1119.173        3.878        0.704      250.392       36.471        0.021      341.567       16.367      860.361
06/19/2013  20:41:00     -143.568       62.847      -18.072       83.868       49.420       33.564     7033.769     2442.294     1126.563        1.774        0.530      156.722       30.983        0.039      341.597       16.417      860.379
06/19/2013  20:42:00     -126.630        2.394       -4.414       77.040       71.653       38.986     5935.197     5134.154     1519.927        1.432        0.629      126.653       39.603        0.098      341.660       16.525      860.386
06/19/2013  20:43:00     -114.285      -50.476       -7.659      100.609       47.237       35.138    10122.261     2231.310     1234.652        1.463        0.679      124.936       43.705        0.122      341.594       16.413      860.402
06/19/2013  20:44:00     -127.899      -75.656      -11.232       70.956       64.216       37.570     5034.718     4123.631     1411.516        1.639        0.528      148.600       29.077        0.038      341.554       16.345      860.429
06/19/2013  20:45:00     -140.588      -58.332      -10.739       88.355       36.517       31.723     7806.641     1333.483     1006.335        1.671        0.507      152.209       23.903        0.025      341.545       16.329      860.439
06/19/2013  20:46:00      -78.575      -19.058       -8.707       46.610       42.663       23.323     2172.485     1820.136      543.951        0.557        0.227       80.853       19.852        0.060      341.494       16.243      860.444
06/19/2013  20:47:00      -50.366       28.218      -11.155       26.675       30.990       16.032      711.536      960.366      257.028        0.269        0.096       57.732       12.692        0.048      341.541       16.324      860.464
06/19/2013  20:48:00      -92.344      -32.236       -5.982       38.235       38.998       18.190     1461.919     1520.857      330.885        0.646        0.166       97.809       13.356        0.019      341.541       16.324      860.468
06/19/2013  20:49:00      -85.262       47.127      -21.776       40.438       68.825       27.576     1635.237     4736.875      760.453        0.855        0.357       97.420       29.412        0.091      341.518       16.285      860.478
06/19/2013  20:50:00     -179.604       85.091      -29.698      100.319       88.131       38.035    10063.889     7767.027     1446.641        2.982        0.964      198.741       46.008        0.054      341.432       16.138      860.487
06/19/2013  20:51:00     -104.772       13.613      -12.551       37.774       46.892       27.294     1426.900     2198.825      744.950        0.784        0.219      105.653       17.198        0.026      341.462       16.191      860.503
06/19/2013  20:52:00     -143.059       -5.499      -14.011       50.563       72.158       37.846     2556.575     5206.723     1432.335        1.494        0.460      143.165       16.477        0.013      341.489       16.235      860.511
06/19/2013  20:53:00     -111.514       10.371      -19.118       49.010       51.813       41.651     2401.942     2684.607     1734.797        0.986        0.341      111.995       37.406        0.112      341.501       16.258      860.522
06/19/2013  20:54:00     -166.314       74.370      -22.985       54.868       63.238       35.561     3010.549     3998.988     1264.612        2.100        0.414      182.184       25.612        0.020      341.453       16.173      860.534
06/19/2013  20:55:00     -171.818       35.350      -26.944       48.723       74.991       31.189     2373.911     5623.639      972.734        2.023        0.449      175.416       25.597        0.021      341.473       16.207      860.536
06/19/2013  20:56:00     -191.102      -42.276       -2.500       72.564       63.748       40.685     5265.506     4063.831     1655.261        2.465        0.549      195.723       33.707        0.030      341.439       16.149      860.539
06/19/2013  20:57:00     -184.681       20.974      -18.368       93.953       79.882       44.120     8827.212     6381.098     1946.561        2.602        0.858      185.868       40.880        0.048      341.381       16.051      860.539
06/19/2013  20:58:00      -80.339      141.857       -0.199       52.187       90.791       48.772     2723.505     8242.922     2378.671        1.996        0.667      163.027       39.841        0.060      341.316       15.943      860.549
06/19/2013  20:59:00      -92.023      101.654      -10.242       61.315       62.297       41.329     3759.512     3880.969     1708.057        1.413        0.467      137.119       35.040        0.065      341.315       15.940      860.559
06/19/2013  21:00:00     -164.972      114.849      -24.850       58.109       59.994       40.607     3376.669     3599.287     1648.907        2.482        0.431      201.012       28.871        0.021      341.286       15.891      860.549
06/19/2013  21:01:00     -180.575      145.102      -31.887       90.517       96.326       50.128     8193.399     9278.722     2512.810        3.733        0.999      231.651       50.520        0.048      341.243       15.818      860.548
06/19/2013  21:02:00     -144.653      156.941      -36.109       58.108       49.397       36.484     3376.496     2440.063     1331.050        2.700        0.357      213.436       34.075        0.025      341.260       15.848      860.544
06/19/2013  21:03:00     -129.767      109.748      -13.596       79.317       51.110       44.302     6291.123     2612.209     1962.710        1.997        0.543      169.954       43.179        0.065      341.285       15.891      860.546
06/19/2013  21:04:00     -186.811       88.983      -39.334       66.668       86.755       41.857     4444.647     7526.466     1752.048        2.904        0.686      206.921       36.044        0.030      341.321       15.949      860.555
06/19/2013  21:05:00     -190.131      128.642      -41.228      128.128      119.883       51.396    16416.885    14371.925     2641.579        4.391        1.672      229.562       68.579        0.089      341.245       15.823      860.558
06/19/2013  21:06:00     -115.933       36.273      -18.618       58.661       79.336       34.119     3441.159     6294.165     1164.094        1.300        0.545      121.475       29.255        0.058      341.297       15.910      860.554
06/19/2013  21:07:00     -129.741      -35.148      -18.770       68.738       64.864       33.308     4724.900     4207.318     1109.391        1.423        0.502      134.418       30.798        0.052      341.294       15.905      860.566
06/19/2013  21:08:00     -151.869       41.079      -22.241       75.244       61.147       47.143     5661.703     3738.991     2222.484        1.843        0.581      157.327       42.740        0.074      341.256       15.840      860.560
06/19/2013  21:09:00     -188.267       21.501      -19.720       58.704       65.300       45.444     3446.214     4264.126     2065.114        2.303        0.489      189.491       37.337        0.039      341.268       15.860      860.566
06/19/2013  21:10:00     -188.956      -21.322      -34.266       53.642       56.602       42.687     2877.439     3203.780     1822.191        2.262        0.395      190.156       33.326        0.031      341.237       15.808      860.565
06/19/2013  21:11:00     -239.543     -110.955      -23.763       83.051       91.312       49.607     6897.438     8337.963     2460.851        4.397        0.885      263.993       41.762        0.025      341.159       15.674      860.558
06/19/2013  21:12:00     -257.173      -62.209      -20.466       96.640       76.878       49.560     9339.312     5910.279     2456.240        4.406        0.885      264.590       44.842        0.029      341.102       15.579      860.563
06/19/2013  21:13:00     -242.544      -70.786       -4.135      117.668       91.180       48.466    13845.698     8313.770     2348.999        4.418        1.225      252.662       44.250        0.031      341.062       15.511      860.555
06/19/2013  21:14:00     -212.774      -72.708      -21.637       89.779       65.228       48.002     8060.291     4254.673     2304.231        3.282        0.731      224.854       47.350        0.044      341.080       15.540      860.549
06/19/2013  21:15:00     -296.913      -79.954      -41.153      127.822       90.157       58.962    16338.427     8128.204     3476.502        6.209        1.397      307.490       37.140        0.015      341.023       15.446      860.539
06/19/2013  21:16:00     -238.156     -111.853       -7.043       96.688      101.851       54.976     9348.593    10373.718     3022.358        4.601        1.137      263.115       46.783        0.032      340.970       15.356      860.540
06/19/2013  21:17:00     -222.057      -87.315      -22.148       81.007       65.600       53.122     6562.171     4303.419     2821.932        3.555        0.684      238.606       44.438        0.035      340.955       15.328      860.562
06/19/2013  21:18:00     -204.391      -48.589      -17.696       91.209       83.560       41.427     8318.995     6982.271     1716.201        3.073        0.851      210.087       22.349        0.011      340.963       15.343      860.571
06/19/2013  21:19:00     -265.848     -105.952      -11.662      107.968      104.110       54.719    11657.025    10838.947     2994.116        5.376        1.275      286.183       49.523        0.030      340.947       15.315      860.567
06/19/2013  21:20:00     -391.203      -72.709      -24.978      119.804       85.399       55.228    14352.968     7292.954     3050.086        9.182        1.235      397.903       54.485        0.019      340.880       15.202      860.573
06/19/2013  21:21:00     -299.347      -81.505      -38.835       85.747       93.137       50.299     7352.562     8674.559     2529.979        5.815        0.928      310.244       34.539        0.012      340.903       15.240      860.560
06/19/2013  21:22:00     -299.640      -78.029      -15.913      100.845      113.162       65.166    10169.726    12805.708     4246.651        6.167        1.361      309.633       49.284        0.025      340.821       15.103      860.560
06/19/2013  21:23:00     -290.211      -53.626      -14.753      137.361      103.890       61.148    18867.971    10793.101     3739.090        6.035        1.670      295.124       67.228        0.052      340.823       15.106      860.570
06/19/2013  21:24:00     -401.208      -66.705      -29.498      136.938       90.455       56.147    18752.051     8182.033     3152.439        9.818        1.504      406.715       57.355        0.020      340.798       15.064      860.560
06/19/2013  21:25:00     -436.393       -3.451      -52.342      101.583       99.465       49.942    10319.039     9893.256     2494.250       10.794        1.135      436.407       32.154        0.005      340.757       14.995      860.566
06/19/2013  21:26:00     -323.257     -108.504      -15.637      145.521      122.925       74.388    21176.487    15110.670     5533.565        7.916        2.091      340.981       71.605        0.044      340.837       15.129      860.580
06/19/2013  21:27:00     -472.323      -44.890      -44.275      154.950      106.801       74.549    24009.463    11406.386     5557.609       13.401        2.049      474.451       86.410        0.033      340.784       15.041      860.595
06/19/2013  21:28:00     -317.635      -30.802      -28.990      104.317       89.996       65.488    10882.074     8099.250     4288.620        6.297        1.163      319.125       53.060        0.028      340.803       15.074      860.595
06/19/2013  21:29:00     -307.383      -45.990      -24.732       85.123       88.852       51.538     7245.970     7894.754     2656.147        5.750        0.890      310.804       42.265        0.018      340.785       15.043      860.610
06/19/2013  21:30:00     -362.920     -140.506       -3.335      152.422      106.580       67.263    23232.474    11359.324     4524.266        9.528        1.956      389.170       74.989        0.037      340.792       15.053      860.624
06/19/2013  21:31:00     -471.859      -64.610      -12.755      134.091      106.237       70.083    17980.431    11286.373     4911.652       13.058        1.709      476.262       74.689        0.025      340.844       15.141      860.627
06/19/2013  21:32:00     -360.917      -91.357      -14.608      160.684       89.263       66.548    25819.475     7967.953     4428.682        8.851        1.911      372.299       75.534        0.041      340.842       15.139      860.651
06/19/2013  21:33:00     -335.085      -69.643       -7.231      123.276       88.823       59.122    15197.051     7889.495     3495.444        7.188        1.329      342.246       62.115        0.033      340.840       15.135      860.657
06/19/2013  21:34:00     -318.345      -87.632      -14.125      131.146       88.503       64.700    17199.382     7832.699     4186.043        6.921        1.461      330.186       69.684        0.045      340.823       15.105      860.657
06/19/2013  21:35:00     -356.285      -38.212      -31.250       93.002       77.860       51.372     8649.356     6062.142     2639.060        7.336        0.868      358.329       48.411        0.018      340.824       15.107      860.652
06/19/2013  21:36:00     -253.615      -83.347      -14.882      109.326       89.463       51.995    11952.093     8003.665     2703.472        4.707        1.133      266.959       55.612        0.043      340.787       15.044      860.645
06/19/2013  21:37:00     -361.260      -50.316      -12.238      113.352       81.244       56.985    12848.640     6600.645     3247.285        7.794        1.135      364.747       58.703        0.026      340.785       15.043      860.632
06/19/2013  21:38:00     -279.687      -86.033      -21.342       79.632       79.426       45.892     6341.202     6308.486     2106.059        5.042        0.738      292.619       41.838        0.020      340.781       15.036      860.630
06/19/2013  21:39:00     -351.100      -28.537      -19.617      100.752       69.791       48.730    10150.887     4870.818     2374.659        7.093        0.870      352.258       44.209        0.016      340.765       15.008      860.636
06/19/2013  21:40:00     -321.278      -11.985      -14.048      103.584       83.184       43.943    10729.619     6919.510     1930.989        6.157        0.979      321.501       43.767        0.019      340.748       14.980      860.640
06/19/2013  21:41:00     -243.313      -49.137      -19.101      105.115       71.901       50.364    11049.147     5169.755     2536.508        4.036        0.938      248.225       57.498        0.054      340.722       14.936      860.661
06/19/2013  21:42:00     -189.018      -11.469       -6.783      133.745       75.386       45.535    17887.728     5683.040     2073.454        3.077        1.282      189.366       61.949        0.107      340.718       14.929      860.673
06/19/2013  21:43:00     -261.256      -20.797      -23.023      103.768       82.976       49.820    10767.827     6885.034     2482.009        4.467        1.007      262.083       46.927        0.032      340.704       14.904      860.709
06/19/2013  21:44:00     -219.380      -56.121       -0.486      106.766       77.622       48.038    11398.891     6025.126     2307.687        3.550        0.987      226.445       41.395        0.033      340.664       14.838      860.722
06/19/2013  21:45:00     -284.382      -29.250      -40.374       99.998      121.767       51.208     9999.591    14827.117     2622.237        5.540        1.372      285.882       48.369        0.029      340.681       14.866      860.739
06/19/2013  21:46:00     -136.239       70.227      -27.535       69.248       75.025       36.069     4795.292     5628.755     1300.988        1.799        0.586      153.274       28.838        0.035      340.669       14.848      860.769
06/19/2013  21:47:00      -53.903      -40.947        0.984       99.216       53.624       30.383     9843.885     2875.516      923.097        0.911        0.682       67.691       34.802        0.264      340.710       14.918      860.780
06/19/2013  21:48:00     -136.113      -35.621      -12.608       64.304       40.599       34.363     4135.037     1648.290     1180.848        1.346        0.348      140.697       33.422        0.056      340.663       14.838      860.808
06/19/2013  21:49:00     -213.787      -14.708      -24.649       67.322       62.794       34.961     4532.247     3943.114     1222.248        2.811        0.485      214.292       30.956        0.021      340.660       14.832      860.813
06/19/2013  21:50:00     -114.825      -10.896        4.222       42.101       72.869       31.577     1772.511     5309.820      997.125        1.070        0.404      115.341       24.565        0.045      340.645       14.810      860.823
06/19/2013  21:51:00      -91.553        5.664        0.459       72.800       99.631       37.829     5299.893     9926.253     1431.011        1.253        0.833       91.728       35.935        0.153      340.671       14.852      860.830
06/19/2013  21:52:00     -117.570       69.376      -14.440       77.504       63.057       41.997     6006.867     3976.219     1763.777        1.529        0.587      136.513       44.888        0.108      340.667       14.843      860.854
06/19/2013  21:53:00     -105.755      -14.909      -12.391       72.243       50.618       32.551     5219.077     2562.139     1059.579        1.020        0.442      106.801       34.477        0.104      340.655       14.824      860.862
06/19/2013  21:54:00      -19.473       -0.138       -4.063       66.529       50.821       28.075     4426.088     2582.729      788.197        0.409        0.390       19.473       20.919        1.154      340.605       14.740      860.880
06/19/2013  21:55:00     -164.212       14.156       -5.838       97.412       97.838       45.459     9489.129     9572.317     2066.514        2.416        1.056      164.821       27.687        0.028      340.655       14.825      860.896
06/19/2013  21:56:00      -39.363       72.306        2.854       43.375       32.769       29.227     1881.394     1073.783      854.243        0.530        0.190       82.326       18.452        0.050      340.600       14.733      860.921
06/19/2013  21:57:00     -106.586      -14.736      -15.875       66.396       64.985       31.382     4408.391     4223.044      984.816        1.072        0.481      107.600       33.696        0.098      340.682       14.872      860.919
06/19/2013  21:58:00     -127.299       15.046      -28.397       90.262      111.044       50.256     8147.254    12330.673     2525.665        2.012        1.150      128.185       51.318        0.160      340.656       14.824      860.920
06/19/2013  21:59:00      -80.957      -10.700      -11.799       53.350       35.544       28.593     2846.245     1263.406      817.541        0.587        0.246       81.661       26.706        0.107      340.641       14.802      860.925
06/19/2013  22:00:00      -90.152      -54.349        0.783       78.614       61.206       34.939     6180.218     3746.162     1220.739        1.111        0.557      105.267       45.208        0.184      340.590       14.714      860.923
06/19/2013  22:01:00      -40.862      -23.555        1.502       94.927       45.082       39.981     9011.164     2032.342     1598.456        0.743        0.632       47.165       32.700        0.481      340.551       14.648      860.926
06/19/2013  22:02:00       -2.272      -30.532        7.495       44.498       38.826       23.833     1980.103     1507.492      567.997        0.252        0.203       30.616       24.465        0.639      340.498       14.560      860.938
06/19/2013  22:03:00      -98.583      -24.352        2.758       65.291       44.621       29.273     4262.854     1990.995      856.923        0.871        0.356      101.546       31.912        0.099      340.499       14.561      860.933
06/19/2013  22:04:00     -122.000      -62.066      -14.984       76.918       49.693       31.199     5916.312     2469.368      973.372        1.416        0.468      136.880       31.619        0.053      340.456       14.486      860.945
06/19/2013  22:05:00     -106.209      -27.560       -0.062       49.119       42.448       25.097     2412.670     1801.833      629.857        0.844        0.242      109.726       23.844        0.047      340.461       14.496      860.946
06/19/2013  22:06:00     -161.496       -2.354       -0.542       80.598       69.125       37.446     6496.078     4778.236     1402.223        1.938        0.634      161.513       34.543        0.046      340.483       14.534      860.959
06/19/2013  22:07:00      -89.820       17.975       -9.704       81.327       55.334       39.898     6614.023     3061.812     1591.820        0.987        0.563       91.601       25.687        0.079      340.508       14.577      860.992
06/19/2013  22:08:00     -132.177       62.882       -7.404       72.529      133.944       57.127     5260.445    17941.115     3263.508        2.397        1.323      146.373       61.685        0.178      340.625       14.774      860.987
06/19/2013  22:09:00     -202.080       36.194      -17.836      119.833       94.500       44.721    14360.047     8930.242     1999.968        3.387        1.265      205.296       43.875        0.046      340.669       14.847      860.985
06/19/2013  22:10:00     -136.516      -44.360       -2.140      107.085      111.589       42.133    11467.294    12452.203     1775.171        2.315        1.285      143.542       43.917        0.094      340.693       14.887      861.004
06/19/2013  22:11:00     -147.352        1.335        2.888      112.567       78.318       59.777    12671.382     6133.737     3573.258        2.205        1.119      147.358       56.756        0.148      340.706       14.910      861.001
06/19/2013  22:12:00     -270.577      -59.696      -15.763      115.821      106.497       61.146    13414.431    11341.684     3738.855        5.275        1.425      277.084       68.277        0.061      340.704       14.905      861.022
06/19/2013  22:13:00     -246.806     -180.386       -3.119      111.799       94.390       53.655    12499.084     8909.518     2878.903        5.887        1.214      305.700       61.343        0.040      340.492       14.546      861.047
06/19/2013  22:14:00     -176.581     -143.708       16.734      134.431      103.288       60.633    18071.768    10668.402     3676.390        4.226        1.621      227.668       73.162        0.103      340.441       14.461      861.049
06/19/2013  22:15:00     -143.566     -136.337       15.304      157.181      116.116       76.622    24705.878    13482.811     5870.937        4.174        2.203      197.988       84.486        0.182      340.480       14.528      861.066
06/19/2013  22:16:00     -216.518     -130.780       -3.664      156.785       81.001       63.843    24581.522     6561.114     4075.888        4.960        1.761      252.949       44.177        0.031      340.510       14.578      861.047
06/19/2013  22:17:00     -278.699     -116.296      -15.009       96.353      103.773       57.208     9283.979    10768.737     3272.805        5.737        1.166      301.990       51.017        0.029      340.504       14.565      861.060
06/19/2013  22:18:00     -239.102      -79.998       -0.665      109.200       89.906       42.153    11924.734     8083.086     1776.841        4.267        1.089      252.130       47.217        0.035      340.425       14.434      861.093
06/19/2013  22:19:00     -314.414      -67.249      -15.246      127.183       96.443       55.906    16175.555     9301.168     3125.499        6.610        1.430      321.525       55.373        0.030      340.430       14.441      861.065
06/19/2013  22:20:00     -289.511     -102.812       -5.442      156.891      124.260       71.368    24614.781    15440.646     5093.387        6.977        2.257      307.225       76.608        0.062      340.410       14.407      861.068
06/19/2013  22:21:00     -238.162      -98.763       -1.309       99.369       82.983       60.589     9874.256     6886.244     3671.013        4.345        1.022      257.828       56.119        0.047      340.447       14.470      861.051
06/19/2013  22:22:00     -199.805      -56.173      -25.852       98.476       83.447       52.744     9697.471     6963.397     2781.886        3.159        0.972      207.551       53.880        0.067      340.462       14.497      861.049
06/19/2013  22:23:00     -246.795      -32.538      -17.110       87.819       80.745       47.938     7712.189     6519.825     2298.030        3.939        0.827      248.930       43.596        0.031      340.422       14.428      861.044
06/19/2013  22:24:00     -240.604       -3.707      -13.092      104.908       91.336       48.808    11005.622     8342.336     2382.188        3.990        1.087      240.632       41.769        0.030      340.399       14.389      861.060
06/19/2013  22:25:00     -215.139      -37.720       -8.045      105.820       71.506       44.470    11197.821     5113.090     1977.542        3.303        0.914      218.420       41.148        0.035      340.351       14.310      861.060
06/19/2013  22:26:00     -229.561      -86.028       -7.238       94.232       85.204       50.683     8879.710     7259.807     2568.751        3.943        0.935      245.151       56.553        0.053      340.367       14.336      861.066
06/19/2013  22:27:00     -297.888      -49.863      -17.804      117.457       92.957       55.283    13796.209     8641.003     3056.217        5.851        1.275      302.032       58.530        0.038      340.362       14.327      861.065
06/19/2013  22:28:00     -336.966      -78.913      -10.305      108.234       92.998       54.817    11714.618     8648.709     3004.853        7.162        1.168      346.083       48.838        0.020      340.357       14.317      861.070
06/19/2013  22:29:00     -237.284      -50.678       -0.119      106.369       86.086       56.157    11314.363     7410.850     3153.639        4.037        1.094      242.635       55.305        0.052      340.327       14.267      861.072
06/19/2013  22:30:00     -203.862      -41.220       -5.909       75.639       91.219       49.634     5721.185     8320.989     2463.544        2.990        0.825      207.987       45.780        0.048      340.293       14.210      861.072
06/19/2013  22:31:00     -155.871      -24.539        6.565       85.676       62.338       41.410     7340.429     3886.046     1714.808        1.894        0.647      157.791       46.485        0.087      340.271       14.174      861.064
06/19/2013  22:32:00     -201.876      -29.717        0.879      117.159       78.826       45.626    13726.126     6213.478     2081.737        3.183        1.101      204.052       56.469        0.077      340.333       14.278      861.049
06/19/2013  22:33:00     -215.365      -68.371      -18.218      114.045       69.832       48.092    13006.271     4876.559     2312.824        3.579        1.010      225.957       50.645        0.050      340.300       14.222      861.064
06/19/2013  22:34:00     -126.248      -76.285        8.835      112.074       76.067       37.721    12560.493     5786.130     1422.853        2.080        0.988      147.506       45.734        0.096      340.303       14.229      861.071
06/19/2013  22:35:00     -173.637      -54.443        2.901       92.036       73.400       40.204     8470.587     5387.515     1616.390        2.430        0.774      181.972       42.892        0.056      340.286       14.197      861.087
06/19/2013  22:36:00     -218.027      -26.482       -9.106       53.840       58.640       30.474     2898.732     3438.624      928.694        2.779        0.363      219.629       31.523        0.021      340.276       14.181      861.115
06/19/2013  22:37:00     -180.693      -54.887       -4.466       81.593       66.771       34.365     6657.407     4458.347     1180.952        2.399        0.615      188.846       38.309        0.041      340.249       14.135      861.129
06/19/2013  22:38:00     -198.878        3.575       -7.492       69.114       76.482       31.174     4776.727     5849.432      971.817        2.561        0.580      198.910       25.845        0.017      340.223       14.091      861.136
06/19/2013  22:39:00     -223.815      -29.660      -15.309       79.515       53.301       37.446     6322.667     2841.000     1402.184        3.088        0.528      225.772       31.431        0.019      340.221       14.088      861.154
06/19/2013  22:40:00      -53.201      -36.999       12.084       72.520       40.580       27.854     5259.207     1646.765      775.829        0.601        0.384       64.802       28.234        0.190      340.205       14.064      861.165
06/19/2013  22:41:00     -128.904      -23.341        0.661       85.780       43.950       32.224     7358.236     1931.617     1038.401        1.374        0.516      131.000       44.516        0.115      340.249       14.139      861.170
06/19/2013  22:42:00     -126.114      -17.354       -3.440       83.157       39.886       27.368     6915.130     1590.857      749.009        1.273        0.463      127.302       31.868        0.063      340.189       14.038      861.185
06/19/2013  22:43:00     -183.405      -58.436      -10.685       73.769       84.835       34.301     5441.800     7197.046     1176.575        2.549        0.691      192.489       39.985        0.043      340.189       14.035      861.194
06/19/2013  22:44:00     -158.687      -47.462        8.598       70.021       68.472       36.768     4902.968     4688.423     1351.907        1.922        0.547      165.633       33.516        0.041      340.166       13.996      861.200
06/19/2013  22:45:00     -153.022      -47.400       -8.942       59.221       64.858       35.757     3507.080     4206.585     1278.536        1.737        0.450      160.195       36.886        0.053      340.187       14.034      861.204
06/19/2013  22:46:00     -121.752      -43.284       -2.166       96.247       38.024       29.216     9263.401     1445.842      853.597        1.413        0.578      129.217       45.071        0.122      340.167       14.000      861.200
06/19/2013  22:47:00     -155.496      -53.789      -11.243       60.446       62.043       33.247     3653.719     3849.339     1105.385        1.790        0.430      164.536       35.104        0.046      340.179       14.019      861.199
06/19/2013  22:48:00      -72.412      -16.406       -1.590       50.182       31.504       21.890     2518.245      992.476      479.163        0.475        0.199       74.247       23.990        0.104      340.171       14.006      861.203
06/19/2013  22:49:00     -159.968      -25.274       -2.575       62.538       54.132       34.124     3911.032     2930.232     1164.448        1.712        0.400      161.952       35.352        0.048      340.155       13.980      861.213
06/19/2013  22:50:00     -145.527      -45.392        4.501       94.482       65.591       41.316     8926.913     4302.133     1707.008        1.909        0.747      152.442       50.599        0.110      340.123       13.924      861.222
06/19/2013  22:51:00     -266.615      -95.270       -0.713       96.250       71.378       48.537     9264.156     5094.861     2355.819        4.843        0.836      283.125       50.255        0.032      340.120       13.917      861.227
06/19/2013  22:52:00     -112.119     -103.204        4.096       90.128       68.174       46.058     8123.032     4647.732     2121.370        1.906        0.745      152.387       46.940        0.095      340.092       13.873      861.245
06/19/2013  22:53:00      -96.395      -22.885       15.187       91.155       70.480       50.002     8309.294     4967.438     2500.221        1.291        0.789       99.074       56.243        0.322      340.105       13.896      861.243
06/19/2013  22:54:00     -160.003      -52.725       -0.020       88.466       56.566       35.914     7826.284     3199.759     1289.789        2.035        0.616      168.466       38.493        0.052      340.130       13.937      861.236
06/19/2013  22:55:00     -252.512     -103.685       -7.977       89.564       86.987       46.152     8021.666     7566.715     2129.964        4.614        0.886      272.971       43.564        0.025      340.084       13.856      861.230
06/19/2013  22:56:00     -224.288      -62.710       -2.414      102.493       92.411       48.669    10504.774     8539.868     2368.708        3.782        1.071      232.890       52.620        0.051      340.082       13.855      861.226
06/19/2013  22:57:00     -265.626      -38.168      -27.543       89.244       92.266       38.576     7964.416     8512.952     1488.140        4.537        0.898      268.354       30.130        0.013      340.135       13.942      861.223
06/19/2013  22:58:00     -270.783        4.354      -20.312      128.590       91.286       49.520    16535.376     8333.216     2452.265        5.053        1.366      270.818       47.817        0.031      340.140       13.952      861.194
06/19/2013  22:59:00     -294.495      -63.537       -5.257      121.208      107.350       58.096    14691.330    11524.102     3375.188        6.019        1.480      301.271       61.450        0.042      340.103       13.890      861.176
06/19/2013  23:00:00     -313.356      -53.184      -11.727      127.732       77.630       40.570    16315.575     6026.366     1645.952        6.257        1.199      317.837       37.646        0.014      340.145       13.960      861.176
06/19/2013  23:01:00     -291.881      -61.228      -18.244      133.986       91.239       49.254    17952.185     8324.493     2425.916        5.898        1.435      298.234       44.427        0.022      340.121       13.919      861.148
06/19/2013  23:02:00     -229.080      -73.238       -1.085      106.406       88.972       54.086    11322.220     7915.995     2925.247        4.000        1.108      240.502       47.814        0.040      340.159       13.983      861.126
06/19/2013  23:03:00     -220.110      -67.017        0.569      122.316       91.134       60.399    14961.294     8305.379     3648.039        3.992        1.346      230.086       55.270        0.058      340.108       13.898      861.118
06/19/2013  23:04:00     -219.101      -61.012        1.415      171.192       90.924       53.160    29306.698     8267.254     2825.984        4.606        2.020      227.437       70.632        0.096      340.096       13.879      861.090
06/19/2013  23:05:00     -363.452      -50.427      -25.539      169.121      112.414       59.916    28601.914    12636.871     3589.871        9.005        2.241      366.933       67.374        0.034      340.114       13.909      861.056
06/19/2013  23:06:00     -306.757      -62.728      -11.259      125.350       87.280       49.378    15712.642     7617.718     2438.149        6.196        1.288      313.105       45.291        0.021      340.105       13.893      861.059
06/19/2013  23:07:00     -378.403      -73.205      -30.345       83.096      106.055       50.162     6904.993    11247.722     2516.200        8.506        1.033      385.419       45.992        0.014      340.095       13.875      861.054
06/19/2013  23:08:00     -244.787      -93.380        1.042      168.043      109.465       60.644    28238.528    11982.670     3677.735        5.626        2.195      261.993       70.768        0.073      340.070       13.835      861.049
06/19/2013  23:09:00     -312.881      -73.977      -11.544      139.701       95.494       44.660    19516.484     9119.085     1994.532        6.706        1.532      321.507       52.128        0.026      340.083       13.855      861.060
06/19/2013  23:10:00     -315.428      -89.402      -15.446      111.433      136.558       55.483    12417.266    18648.181     3078.320        7.093        1.707      327.853       48.661        0.022      340.123       13.922      861.060
06/19/2013  23:11:00     -243.470     -107.223        2.170      119.183       80.685       46.272    14204.655     6510.093     2141.131        4.681        1.143      266.035       51.925        0.038      340.153       13.974      861.068
06/19/2013  23:12:00     -191.116     -108.753       -3.794      102.570      108.825       59.872    10520.690    11842.881     3584.672        3.715        1.297      219.892       53.605        0.059      340.098       13.881      861.068
06/19/2013  23:13:00     -171.848      -71.818       13.501      112.489       99.138       65.899    12653.728     9828.268     4342.691        3.084        1.341      186.251       65.063        0.122      340.111       13.903      861.073
06/19/2013  23:14:00     -271.276     -103.889      -14.444      114.799      109.575       56.024    13178.794    12006.790     3138.687        5.645        1.416      290.488       56.887        0.038      340.108       13.896      861.102
06/19/2013  23:15:00     -270.378      -56.057      -19.910      158.196      101.715       61.409    25025.853    10345.858     3771.093        5.789        1.957      276.128       64.478        0.055      340.153       13.974      861.100
06/19/2013  23:16:00     -245.185      -40.407       -4.823      170.586       84.807       53.763    29099.546     7192.238     2890.429        5.047        1.959      248.492       64.782        0.068      340.105       13.892      861.120
06/19/2013  23:17:00     -214.775       -2.799       -9.466      117.009       83.093       42.018    13691.050     6904.405     1765.497        3.429        1.118      214.793       43.613        0.041      340.053       13.807      861.138
06/19/2013  23:18:00     -256.874     -103.567       -8.206      103.643       69.654       51.247    10741.925     4851.663     2626.236        4.750        0.911      276.966       53.972        0.038      340.080       13.851      861.146
06/19/2013  23:19:00     -260.197      -45.438      -11.517       70.429       74.140       48.283     4960.314     5496.776     2331.226        4.134        0.639      264.134       32.884        0.015      340.057       13.811      861.178
06/19/2013  23:20:00     -232.222       37.037      -28.652      121.172       71.466       49.417    14682.609     5107.381     2442.029        3.917        1.112      235.157       36.374        0.024      340.128       13.932      861.174
06/19/2013  23:21:00     -244.921      -66.113      -18.411       82.482       82.422       38.932     6803.206     6793.320     1515.684        3.990        0.756      253.688       30.459        0.014      340.218       14.082      861.152
06/19/2013  23:22:00     -219.904      -71.651      -11.539       73.085       89.795       41.008     5341.408     8063.063     1681.642        3.435        0.754      231.283       35.854        0.024      340.144       13.957      861.155
06/19/2013  23:23:00     -258.120      -46.628      -23.889       44.866       52.758       30.880     2012.929     2783.426      953.598        3.756        0.287      262.298       23.052        0.008      340.160       13.984      861.164
06/19/2013  23:24:00     -199.741      -68.052       -8.250       64.057       65.934       33.417     4103.247     4347.343     1116.681        2.708        0.478      211.015       30.330        0.021      340.143       13.957      861.151
06/19/2013  23:25:00      -97.039      -49.220        9.176       93.620       52.587       35.528     8764.660     2765.439     1262.225        1.236        0.640      108.808       44.718        0.169      340.073       13.840      861.147
06/19/2013  23:26:00     -173.289      -99.132       -1.687       95.201       92.085       41.574     9063.247     8479.689     1728.395        2.956        0.964      199.640       43.120        0.047      340.080       13.849      861.158
06/19/2013  23:27:00     -302.359      -75.272      -21.531      109.475       54.755       45.266    11984.786     2998.084     2049.020        5.729        0.852      311.588       47.905        0.024      340.038       13.779      861.155
06/19/2013  23:28:00     -329.960      -97.252       -2.633      132.146       94.487       51.130    17462.579     8927.827     2614.233        7.367        1.450      343.994       57.743        0.028      340.087       13.862      861.131
06/19/2013  23:29:00     -308.322      -82.120        0.085      131.483      102.322       60.109    17287.814    10469.707     3613.066        6.658        1.569      319.071       58.802        0.034      340.064       13.822      861.129
06/19/2013  23:30:00     -396.605      -94.623      -11.590      114.833       85.508       63.378    13186.685     7311.692     4016.752        9.544        1.226      407.737       61.602        0.023      340.080       13.850      861.119
06/19/2013  23:31:00     -340.389      -31.850      -15.687       95.719       93.665       50.287     9162.047     8773.056     2528.775        6.879        1.023      341.875       45.684        0.018      340.063       13.820      861.124
06/19/2013  23:32:00     -307.320      -42.016      -24.514      101.573      103.734       56.116    10317.022    10760.764     3148.999        6.051        1.211      310.179       46.677        0.023      340.049       13.797      861.138
06/19/2013  23:33:00     -357.496      -58.341      -21.141      130.315      103.561       59.135    16981.870    10724.833     3496.917        8.142        1.560      362.225       67.651        0.035      340.048       13.795      861.134
06/19/2013  23:34:00     -336.502      -51.349      -17.916      128.383       79.461       56.893    16482.250     6314.007     3236.819        7.111        1.302      340.397       59.685        0.031      340.063       13.821      861.118
06/19/2013  23:35:00     -182.949      -32.520        4.090       97.083       93.742       53.032     9425.172     8787.627     2812.385        2.778        1.051      185.817       48.590        0.068      340.024       13.757      861.103
06/19/2013  23:36:00     -259.073      -35.797        7.389      113.750      100.554       62.856    12939.075    10111.112     3950.924        4.772        1.350      261.534       63.764        0.059      340.003       13.721      861.102
06/19/2013  23:37:00     -257.376      -57.222       -7.927      124.385       83.288       51.358    15471.542     6936.896     2637.693        4.731        1.252      263.661       62.455        0.056      340.015       13.742      861.091
06/19/2013  23:38:00     -319.935      -37.216      -15.806      106.616       86.720       48.608    11367.038     7520.361     2362.762        6.262        1.063      322.092       47.786        0.022      339.988       13.695      861.109
06/19/2013  23:39:00     -298.203      -40.104      -23.245       95.282       76.618       48.437     9078.570     5870.265     2346.120        5.418        0.865      300.888       43.598        0.021      340.001       13.716      861.109
06/19/2013  23:40:00     -339.855      -73.179      -12.714      115.982       89.010       58.378    13451.851     7922.851     3407.963        7.290        1.239      347.644       50.240        0.021      340.014       13.738      861.112
06/19/2013  23:41:00     -298.476      -44.255      -17.395       95.729      100.835       55.083     9164.100    10167.624     3034.106        5.685        1.118      301.739       50.804        0.028      340.057       13.811      861.117
06/19/2013  23:42:00     -311.608      -45.551      -42.521       94.636       94.423       49.022     8955.986     8915.622     2403.134        6.062        1.014      314.920       40.802        0.017      340.084       13.856      861.116
06/19/2013  23:43:00     -142.406       37.230       -0.253      106.380      132.965       53.031    11316.688    17679.762     2812.313        2.673        1.590      147.192       40.364        0.075      339.992       13.702      861.135
06/19/2013  23:44:00     -110.090       57.108      -13.475       43.221       64.758       34.121     1868.039     4193.653     1164.272        1.139        0.361      124.021       26.295        0.045      339.948       13.631      861.147
06/19/2013  23:45:00     -142.278      193.019      -33.533       70.725       61.321       39.374     5002.052     3760.314     1550.330        3.447        0.516      239.790       42.629        0.032      339.670       13.159      861.134
06/19/2013  23:46:00     -173.204      143.079      -39.520       57.553       54.501       30.648     3312.347     2970.371      939.271        2.963        0.361      224.658       25.830        0.013      339.585       13.015      861.135
06/19/2013  23:47:00     -184.582      113.190      -35.669       55.879       75.213       34.576     3122.411     5657.054     1195.499        2.906        0.499      216.523       29.942        0.019      339.613       13.062      861.132
06/19/2013  23:48:00     -136.748      142.089      -33.771       56.702       63.449       39.531     3215.155     4025.743     1562.664        2.442        0.440      197.204       39.405        0.040      339.590       13.026      861.115
06/19/2013  23:49:00     -117.492      110.623      -16.500       51.805       52.683       30.990     2683.802     2775.549      960.367        1.637        0.321      161.374       20.810        0.017      339.587       13.023      861.097
06/19/2013  23:50:00     -137.428       24.475       -1.187       65.349       51.081       37.373     4270.480     2609.249     1396.769        1.388        0.414      139.590       35.254        0.064      339.685       13.188      861.094
06/19/2013  23:51:00     -158.510       66.727      -21.507       52.335       77.476       37.068     2738.993     6002.586     1374.035        2.008        0.506      171.982       24.423        0.020      339.751       13.299      861.093
06/19/2013  23:52:00     -164.260       78.147      -28.505       53.196       54.565       38.957     2829.769     2977.389     1517.612        2.061        0.366      181.902       32.481        0.032      339.710       13.229      861.084
06/19/2013  23:53:00     -124.723      148.138      -30.900       55.194       87.422       41.632     3046.390     7642.622     1733.208        2.544        0.621      193.651       33.170        0.029      339.670       13.160      861.084
06/19/2013  23:54:00     -116.177      110.240      -24.583       45.526       52.269       35.177     2072.581     2732.020     1237.434        1.615        0.302      160.156       29.816        0.035      339.655       13.137      861.083
06/19/2013  23:55:00     -139.429      159.812      -27.136       55.381       58.183       37.483     3067.029     3385.286     1405.000        2.679        0.393      212.086       38.669        0.033      339.704       13.217      861.070
06/19/2013  23:56:00     -138.323      208.487      -41.666       53.396       74.093       36.974     2851.118     5489.777     1367.065        3.702        0.485      250.200       29.115        0.014      339.694       13.201      861.064
06/19/2013  23:57:00     -126.189      159.525      -32.543       50.249       57.769       33.207     2524.948     3337.294     1102.676        2.470        0.348      203.401       34.943        0.030      339.705       13.220      861.073
06/19/2013  23:58:00     -173.801      182.626      -50.234       55.392       58.715       35.477     3068.268     3447.502     1258.639        3.693        0.389      252.109       33.452        0.018      339.697       13.205      861.073
06/19/2013  23:59:00      -89.189      182.897      -23.243       66.438       68.035       39.665     4413.997     4628.728     1573.328        2.628        0.531      203.484       37.759        0.034      339.626       13.085      861.077
